GFSSW_con_sbcape_000.txt.gz
CAPE
1 3 4 9 8 4 3 4 23 78 102 102 53 73 81 63 29 2 4 0 0 0 100 15 0 0 0 0 0 0 0 0 0 0 0 0 0 0 0 0 0 0 0 0 0
1 4 8 7 9 22 32 21 27 56 79 111 87 44 96 49 5 5 0 0 0 0 0 0 0 0 0 0 0 0 0 0 0 0 0 0 0 0 0 0 0 0 0 0 0
13 9 8 9 11 19 40 47 47 48 70 106 106 125 127 3 1 0 0 0 0 0 7 0 0 0 0 0 0 0 0 0 0 0 0 0 0 0 0 0 0 0 0 0 0
10 21 14 14 5 5 26 55 61 71 65 86 122 224 149 7 6 1 0 0 0 0 5 48 42 0 0 0 0 0 0 0 0 0 0 0 0 0 0 0 0 0 0 0 0
4 20 19 20 16 14 1 35 46 83 103 141 152 187 63 26 0 0 0 0 0 0 11 44 0 0 0 0 0 0 0 0 0 0 0 0 0 0 0 0 0 0 0 0 0
39 34 22 23 32 28 30 15 35 98 132 232 376 309 33 15 0 0 0 0 0 0 8 39 8 0 0 0 0 0 0 0 0 0 0 0 0 0 0 0 0 0 0 0 0
47 46 35 25 16 37 47 39 36 106 146 275 424 103 31 0 0 0 0 0 0 0 0 23 65 0 0 3 0 0 0 0 0 0 0 0 0 0 0 0 0 0 0 0 0
49 57 34 36 20 31 34 57 67 176 169 283 385 38 5 0 0 0 0 0 0 0 0 120 134 1 1 0 0 0 0 0 0 0 0 0 0 0 0 0 0 0 0 0 0
27 35 40 50 54 70 52 72 97 132 171 269 112 25 28 0 0 0 0 0 0 0 3 178 4 12 14 2 1 0 0 0 0 0 0 0 0 0 0 0 0 0 0 0 0
46 46 20 23 44 56 74 46 90 61 58 55 64 13 0 0 0 0 0 0 6 0 14 171 41 24 24 14 12 0 0 0 0 0 0 0 0 0 0 0 0 0 0 0 0
50 71 40 23 15 71 71 33 4 22 26 0 0 0 1 0 0 0 0 0 6 0 34 121 77 28 2 0 0 0 0 0 0 0 0 0 0 0 0 0 0 0 0 0 0
55 90 40 14 33 87 10 0 0 4 7 0 37 0 28 34 74 4 1 5 25 0 31 108 24 4 0 0 5 0 0 0 0 0 0 0 0 0 0 0 0 0 0 0 0
53 55 39 24 64 62 0 0 68 30 36 0 0 25 7 24 38 8 0 13 20 0 8 35 16 8 5 0 0 0 0 0 0 0 0 0 0 0 0 0 0 0 0 0 0
22 18 6 46 35 22 1 1 47 43 18 16 12 1 15 18 26 30 5 34 21 0 5 39 5 3 4 1 0 1 0 0 0 0 0 0 0 0 0 0 0 0 0 0 0
36 7 39 58 55 47 41 1 42 67 0 0 10 3 11 5 24 62 0 5 7 0 44 39 5 35 15 1 0 0 0 0 0 0 0 0 0 0 0 0 0 0 0 0 0
19 3 45 34 49 43 10 28 26 21 0 3 36 9 7 0 61 62 75 73 30 3 26 2 1 14 19 0 0 0 0 0 0 0 0 0 0 0 0 0 0 0 0 0 0
3 17 25 43 40 59 13 12 6 28 1 16 26 26 23 10 51 39 11 10 18 34 46 0 5 0 0 0 0 0 0 0 0 0 0 0 0 0 0 0 0 0 0 0 0
4 16 18 18 19 12 32 3 26 10 0 31 46 12 22 28 43 31 62 51 9 0 5 3 44 0 0 0 0 0 0 0 0 0 0 0 0 0 0 0 0 0 0 0 0
10 0 10 16 28 14 10 5 8 5 4 42 29 0 40 22 30 84 21 15 16 2 0 4 1 0 0 0 0 0 0 0 0 0 0 0 0 0 0 0 0 0 0 0 0
0 0 0 6 27 29 13 7 15 4 1 8 3 13 65 27 25 13 30 17 7 0 0 0 0 0 0 0 0 0 0 0 0 0 0 0 0 0 0 0 0 0 0 0 0
0 0 3 5 33 42 13 3 10 0 0 12 12 3 4 1 10 2 1 0 0 0 0 0 0 0 0 0 0 0 0 0 0 0 0 0 0 0 0 0 0 0 0 0 0
0 0 11 9 26 48 22 42 2 11 43 18 10 1 0 3 2 7 4 0 0 0 0 0 0 0 0 0 0 0 0 0 0 0 0 0 0 0 0 0 0 0 0 0 0
0 5 4 8 5 2 21 16 23 13 26 32 0 0 0 0 1 1 0 0 0 0 0 0 0 0 0 0 0 0 0 0 0 0 0 0 0 0 0 0 0 0 0 0 0
0 0 8 9 1 0 4 13 33 15 6 0 0 0 0 8 0 0 0 0 0 0 0 0 0 0 0 0 0 0 0 0 0 0 0 0 0 0 0 0 0 0 0 0 0
0 0 0 0 0 0 0 6 13 4 0 0 22 0 0 0 0 0 0 0 0 0 0 0 0 0 0 0 0 0 0 0 0 0 0 0 0 0 0 0 0 0 0 0 0
0 0 0 0 0 0 0 0 0 0 0 1 2 0 0 0 0 0 0 0 0 0 0 0 0 0 0 0 0 0 0 0 0 0 0 0 0 0 0 0 0 0 0 0 0
0 0 0 0 0 0 0 0 0 0 0 0 0 0 0 0 0 0 0 0 0 0 0 0 0 0 0 0 0 0 0 0 0 0 0 0 0 0 0 0 0 0 0 0 0

GFSSW_con_sbcape_003.txt.gz
CAPE
1 0 0 2 5 7 2 0 2 10 53 81 97 84 107 91 40 0 1 0 0 0 0 0 0 0 0 0 0 0 0 0 0 0 0 0 0 0 0 0 0 0 0 0 0
3 2 1 1 2 6 10 14 1 2 15 68 79 94 76 84 0 3 0 0 0 0 0 3 0 0 0 0 0 0 0 0 0 0 0 0 0 0 0 0 0 0 0 0 0
1 1 0 2 3 3 9 20 35 29 30 61 75 110 124 2 7 0 0 0 0 0 0 7 4 0 0 0 0 0 0 0 0 0 0 0 0 0 0 0 0 0 0 0 0
1 0 0 3 10 17 12 14 31 56 48 57 79 96 103 0 5 0 0 0 5 1 0 2 54 0 0 0 0 0 0 0 0 0 0 0 0 0 0 0 0 0 0 0 0
8 2 3 0 15 20 25 6 25 48 63 69 73 103 14 34 3 0 0 0 0 9 0 4 47 0 0 0 0 0 0 0 0 0 0 0 0 0 0 0 0 0 0 0 0
8 1 1 0 1 41 34 23 17 41 92 93 115 100 2 12 0 0 0 0 0 11 2 0 12 0 0 0 0 0 0 0 0 0 0 0 0 0 0 0 0 0 0 0 0
4 15 15 12 46 28 32 44 29 23 97 108 125 28 30 0 0 0 0 0 0 3 5 0 7 1 0 0 0 0 5 0 0 0 0 0 0 0 0 0 0 0 0 0 0
13 22 33 14 33 32 46 52 77 104 94 105 69 10 16 1 0 0 0 0 0 0 0 0 35 12 4 1 0 12 0 1 0 0 0 0 0 0 0 0 0 0 0 0 0
6 14 31 36 45 55 72 76 91 105 110 69 28 31 12 4 0 0 0 0 0 25 13 2 95 97 14 1 6 0 1 0 0 0 0 0 0 0 0 0 0 0 0 0 0
7 55 65 37 35 42 67 85 79 78 38 44 15 18 3 2 0 0 0 0 1 67 80 93 198 61 48 39 49 0 0 0 0 0 0 0 0 0 0 0 0 0 0 0 0
20 41 69 48 7 29 47 37 15 20 13 0 0 0 10 0 0 5 0 0 0 74 4 38 74 65 28 20 0 0 0 0 0 0 0 0 0 0 0 0 0 0 0 0 0
11 26 70 39 13 26 58 0 0 0 0 0 0 0 0 36 171 32 0 0 27 1 0 78 81 47 0 2 0 0 0 0 0 0 0 0 0 0 0 0 0 0 0 0 0
8 28 30 0 6 45 8 0 2 11 7 1 0 3 9 0 46 69 0 1 67 0 7 23 16 17 11 13 24 0 0 0 0 0 0 0 0 0 0 0 0 0 0 0 0
14 36 31 3 46 9 4 8 0 1 12 6 4 1 12 68 20 32 0 5 60 0 0 69 6 19 16 1 0 1 0 0 0 0 0 0 0 0 0 0 0 0 0 0 0
8 19 43 5 31 42 7 15 2 10 5 1 5 2 0 1 16 14 0 40 39 0 43 31 28 14 15 0 0 0 0 0 0 0 0 0 0 0 0 0 0 0 0 0 0
12 5 47 28 26 30 5 24 53 10 0 23 15 24 20 12 63 73 1 35 55 5 2 13 5 91 10 0 0 0 0 0 0 0 0 0 0 0 0 0 0 0 0 0 0
13 29 37 31 46 11 6 29 7 5 4 24 18 24 6 0 12 38 7 21 24 15 16 10 27 2 28 0 0 0 2 2 1 0 0 0 0 0 0 0 0 0 0 0 0
14 29 23 14 55 4 38 11 8 2 0 21 6 31 13 0 36 47 3 6 26 7 1 10 8 0 0 0 0 0 0 0 0 0 0 0 0 0 0 0 0 0 0 0 0
12 1 17 8 39 33 2 6 0 3 0 13 26 6 17 18 36 35 5 6 8 7 0 3 1 0 0 0 0 0 0 0 0 0 0 0 0 0 0 0 0 0 0 0 0
0 2 3 3 6 13 4 6 12 3 14 0 0 0 0 13 5 11 31 18 50 0 0 0 0 0 0 0 0 0 0 0 0 0 0 0 0 0 0 0 0 0 0 0 0
1 0 3 29 16 32 5 3 6 15 0 0 15 9 10 0 7 1 0 53 38 0 0 0 0 0 0 0 0 0 0 0 0 0 0 0 0 0 0 0 0 0 0 0 0
0 0 9 8 16 26 16 7 1 0 10 0 0 17 0 0 0 12 2 1 14 0 0 0 0 0 0 0 0 0 0 0 0 0 0 0 0 0 0 0 0 0 0 0 0
0 3 24 18 13 13 18 10 8 18 38 22 1 0 0 0 19 31 11 0 0 2 0 0 0 0 0 0 0 0 0 0 0 0 0 0 0 0 0 0 0 0 0 0 0
0 3 22 18 8 7 21 26 21 34 38 38 0 0 0 0 0 0 0 0 0 0 0 0 0 0 0 0 0 0 0 0 0 0 0 0 0 0 0 0 0 0 0 0 0
0 0 0 2 2 0 0 20 9 25 18 1 1 0 0 0 0 0 0 0 0 0 0 0 0 0 0 0 0 0 0 0 0 0 0 0 0 0 0 0 0 0 0 0 0
0 0 0 0 0 1 0 25 20 4 2 0 0 0 0 4 0 0 0 0 0 0 0 0 0 0 0 0 0 0 0 0 0 0 0 0 0 0 0 0 0 0 0 0 0
0 0 0 0 0 0 0 0 0 0 0 0 0 0 0 0 0 0 0 0 0 0 0 0 0 0 0 0 0 0 0 0 0 0 0 0 0 0 0 0 0 0 0 0 0

GFSSW_con_sbcape_006.txt.gz
CAPE
0 0 0 0 0 0 0 0 0 0 2 47 82 74 88 85 51 16 7 0 0 0 0 0 21 158 76 2 0 0 0 0 0 0 0 0 0 0 0 0 0 0 0 0 0
0 1 0 0 0 0 0 1 5 0 0 1 42 46 65 75 50 31 0 0 0 0 0 0 18 207 112 0 0 0 1 0 0 0 0 0 0 0 0 0 0 0 0 0 0
0 0 0 0 0 1 6 2 2 23 6 0 16 57 90 69 42 16 0 14 38 24 0 0 203 219 117 15 9 0 0 0 0 0 0 0 0 0 0 0 0 0 0 0 0
1 0 0 0 0 0 0 2 8 21 43 32 39 60 81 50 18 50 3 0 23 43 20 0 12 97 149 62 7 0 0 0 0 0 0 0 0 0 0 0 0 0 0 0 0
9 2 0 0 0 0 0 0 0 13 32 51 51 58 60 55 24 28 0 0 0 8 14 0 47 42 164 105 33 0 1 0 0 0 0 0 0 0 0 0 0 0 0 0 0
13 8 0 0 0 0 0 0 0 1 37 76 73 80 37 39 1 0 2 0 0 2 9 6 45 45 24 154 83 3 0 0 0 0 0 0 0 0 0 0 0 0 0 0 0
15 14 0 0 0 4 0 0 13 37 29 67 81 66 40 1 0 0 0 0 0 0 5 6 6 181 38 175 140 58 25 20 0 0 0 0 0 0 0 0 0 0 0 0 0
8 34 31 8 1 1 0 6 51 117 53 42 36 44 16 0 0 0 0 0 0 0 0 5 15 57 202 137 171 153 77 59 0 4 0 0 0 0 0 0 0 0 0 0 0
6 27 16 39 32 31 8 24 74 79 86 54 28 38 8 0 0 0 0 0 0 0 0 1 51 106 270 55 142 145 53 18 12 3 0 0 0 0 0 0 0 0 0 0 0
13 34 50 65 53 41 11 18 72 56 47 28 33 31 0 0 0 0 0 0 34 144 123 106 67 179 283 137 65 31 42 18 22 2 0 0 0 0 0 0 0 0 0 0 0
15 36 43 71 64 18 13 28 7 28 8 0 0 0 0 0 0 3 0 0 46 223 90 78 52 44 62 50 61 23 21 19 9 0 0 0 0 0 0 0 0 0 0 0 0
10 32 46 67 82 32 30 39 0 0 8 0 0 0 19 8 34 28 18 0 11 19 153 54 42 45 14 100 67 34 9 13 18 0 0 0 0 0 0 0 0 0 0 0 0
6 22 42 39 12 14 29 14 0 0 2 7 2 11 13 8 71 100 53 0 2 9 23 13 21 26 94 98 60 39 13 7 6 0 0 0 0 0 0 0 0 0 0 0 0
8 22 51 9 14 36 40 2 0 0 2 7 12 6 32 67 20 23 71 4 52 16 34 5 14 98 93 72 93 49 33 8 0 20 46 0 0 0 0 0 0 0 0 0 0
6 11 54 16 44 16 4 1 0 0 4 0 10 3 7 19 31 3 125 19 38 59 7 0 31 3 148 40 41 47 15 21 14 22 3 0 0 0 0 0 0 0 0 0 0
10 30 48 46 53 15 2 1 1 5 3 24 15 22 31 31 53 134 123 28 57 29 4 0 30 19 56 17 39 0 0 0 0 0 20 2 0 0 0 0 0 0 0 0 0
15 23 29 11 17 12 12 6 15 19 4 29 25 32 13 9 9 37 68 36 27 60 23 0 6 70 112 25 0 34 38 30 63 19 10 0 0 0 0 0 0 0 0 0 0
10 15 11 12 27 24 9 18 23 2 16 9 30 29 13 26 23 40 39 28 24 30 0 16 20 58 41 18 0 5 31 13 11 1 1 0 0 0 0 0 0 0 0 0 0
2 5 9 11 71 5 3 10 6 21 2 24 35 36 31 28 7 42 18 9 20 4 0 16 3 11 28 0 0 0 1 0 0 0 0 0 0 0 0 0 0 0 0 0 0
0 0 6 0 50 15 5 17 10 11 5 17 3 9 13 15 75 67 15 1 7 1 21 0 7 0 0 2 0 0 0 0 0 0 0 0 0 0 0 0 0 0 0 0 0
1 6 3 10 17 14 11 14 12 10 0 3 0 2 3 3 5 27 6 2 0 7 2 5 1 0 0 1 0 3 0 0 0 0 1 0 0 0 0 0 0 0 0 0 0
6 17 11 14 11 23 25 9 6 16 6 0 0 0 0 0 0 12 1 6 0 25 4 0 5 2 0 0 0 2 0 0 18 0 0 0 0 0 0 0 0 0 0 0 0
2 7 13 7 11 12 22 16 15 17 3 0 4 0 0 0 0 7 8 0 0 11 18 0 10 10 1 0 0 0 0 0 0 0 0 0 0 0 0 0 0 0 0 0 0
1 12 35 37 13 20 15 14 24 16 12 25 9 7 0 0 0 0 10 7 7 0 0 0 0 0 0 0 0 0 0 0 0 1 0 0 0 0 0 0 0 0 0 0 0
0 3 1 6 6 7 15 17 7 37 49 32 5 0 0 0 15 4 5 2 2 0 9 1 4 0 0 0 0 0 0 0 0 0 0 0 0 0 0 0 0 0 0 0 0
0 0 0 1 2 7 2 25 10 14 1 0 5 0 0 0 0 5 0 0 7 5 19 5 6 0 0 0 0 0 0 0 0 0 0 0 0 0 0 0 0 0 0 0 0
0 0 0 0 0 1 0 12 5 14 1 0 5 0 1 1 3 1 0 0 0 0 0 1 1 0 0 0 0 0 0 0 0 0 0 0 0 0 0 0 0 0 0 0 0

GFSSW_con_sbcape_009.txt.gz
CAPE
1 0 2 0 0 0 0 0 0 0 0 0 3 41 62 80 53 20 4 0 0 0 0 0 0 0 86 49 4 0 2 1 0 0 0 1 0 0 0 0 0 0 0 0 0
2 0 0 0 0 0 0 0 0 0 0 0 0 37 68 55 30 51 7 1 0 4 0 0 0 0 193 92 54 0 2 0 0 0 3 2 0 0 0 0 0 0 0 0 0
4 2 1 1 1 0 0 0 0 0 1 0 0 31 50 46 52 22 38 23 38 29 0 0 0 37 60 148 59 36 1 1 1 2 0 0 0 0 0 0 0 0 0 0 0
9 9 3 1 7 7 0 0 0 0 0 9 10 35 75 28 21 65 26 0 2 6 15 4 0 12 52 50 67 50 10 0 7 8 0 0 0 0 0 0 0 0 0 0 0
5 15 10 2 10 8 4 0 0 0 0 23 44 48 54 46 25 25 0 0 0 23 17 9 0 0 27 35 85 56 19 6 5 10 0 0 0 0 0 0 0 0 0 0 0
2 11 11 2 4 3 0 0 0 0 0 5 65 73 53 24 2 28 24 0 0 9 15 45 4 0 4 19 58 54 88 28 23 14 0 0 0 0 0 0 0 0 0 0 0
1 4 17 0 2 28 12 0 1 0 0 0 36 49 47 2 1 4 0 0 0 0 25 33 49 33 23 33 1 54 100 45 26 35 3 2 0 0 0 0 0 0 0 0 0
0 4 26 22 21 45 43 8 1 0 0 0 0 47 56 0 2 1 0 0 0 0 0 13 56 16 20 75 17 25 124 58 25 39 4 4 0 0 0 0 0 0 0 0 0
8 3 10 43 44 70 57 44 36 45 21 2 16 62 17 0 0 0 0 0 3 0 0 6 55 46 49 63 123 128 87 30 62 43 2 16 0 0 0 0 0 0 0 0 0
37 27 16 30 43 82 82 27 35 48 43 40 35 42 0 0 0 0 0 1 8 25 28 25 61 42 52 72 64 61 45 43 56 30 10 21 0 0 0 0 0 0 0 0 0
45 29 20 17 37 72 15 34 17 7 11 0 1 0 0 0 0 0 0 7 12 28 40 41 63 42 7 5 1 67 163 125 96 24 34 14 0 0 0 0 0 0 0 0 0
42 25 29 21 38 83 33 24 5 1 11 5 1 8 10 3 1 0 6 16 21 30 23 152 200 23 3 8 33 117 127 176 75 17 3 2 1 0 0 0 0 0 0 0 0
35 14 21 17 18 62 39 0 0 0 3 6 2 10 5 10 10 29 17 19 24 26 39 206 147 113 29 0 245 196 162 140 72 14 0 3 2 0 0 0 0 0 0 0 0
29 14 24 28 2 4 31 2 0 0 0 6 12 5 1 25 19 4 60 61 28 27 89 158 67 164 60 9 54 221 97 91 54 47 15 12 0 0 0 0 0 0 0 0 0
16 15 53 1 24 50 1 2 0 0 11 4 21 3 10 16 6 0 6 96 46 37 0 0 46 47 67 35 32 108 111 85 82 123 71 17 10 0 1 0 0 0 0 0 0
13 24 49 58 26 27 1 0 3 5 7 12 11 16 22 32 8 23 3 59 53 23 34 0 4 23 12 48 72 116 132 140 81 38 17 11 6 1 0 0 0 0 0 0 0
37 13 25 4 7 3 0 11 7 19 2 23 19 25 30 35 47 46 68 51 78 23 46 12 7 1 13 13 18 24 56 118 25 40 7 11 18 5 0 0 0 0 0 0 0
44 4 11 0 59 8 6 8 8 1 2 10 14 14 28 16 36 44 48 80 37 1 4 49 28 5 0 38 23 5 31 8 14 14 4 0 0 0 0 0 0 0 0 0 0
20 4 12 2 45 11 8 4 13 18 9 19 44 53 60 20 16 16 44 64 11 0 17 8 10 0 1 36 2 0 55 0 3 0 34 0 0 0 0 0 0 0 0 0 0
0 1 1 6 47 16 10 12 28 17 7 14 13 23 46 38 34 38 32 9 9 2 4 8 11 0 2 2 0 5 24 8 2 0 16 2 0 0 0 0 0 0 0 0 0
0 4 11 4 41 11 2 13 21 22 1 23 20 5 18 19 15 21 9 0 0 1 1 21 2 1 1 10 13 11 1 2 5 0 50 41 0 0 0 0 0 0 0 0 0
3 16 9 19 17 11 8 6 11 10 3 18 5 17 11 2 2 31 16 1 0 0 19 20 11 2 0 0 2 8 0 11 33 0 0 1 0 0 0 0 0 0 0 0 0
3 40 13 8 12 9 7 16 11 9 21 5 5 7 1 2 5 8 0 0 0 0 36 39 2 22 13 0 0 0 1 18 15 1 1 0 1 0 0 0 0 0 0 0 0
9 62 13 27 6 13 8 15 16 0 14 0 1 3 10 5 0 0 5 2 0 0 4 10 1 0 7 0 0 3 0 0 0 0 0 5 1 0 0 0 0 0 0 0 0
1 21 6 11 11 7 15 20 12 15 8 0 12 4 4 0 0 5 0 24 0 0 0 22 19 2 1 0 0 0 1 0 0 0 2 0 0 0 0 0 0 0 0 0 0
1 0 5 30 0 6 5 10 16 4 21 12 38 13 2 0 0 0 3 15 15 33 3 10 32 0 6 0 0 0 0 0 0 0 0 0 0 0 0 0 0 0 0 0 0
0 0 0 19 35 7 10 0 4 12 9 9 9 25 16 1 0 12 0 3 19 1 26 19 31 13 9 0 0 0 0 0 0 0 0 0 0 0 0 0 0 0 0 0 0

GFSSW_con_sbcape_012.txt.gz
CAPE
0 1 4 9 2 0 0 0 0 0 0 0 4 0 29 42 39 16 0 0 0 0 0 0 0 0 0 23 21 16 0 0 0 0 0 0 0 0 0 0 0 0 0 0 0
0 2 2 4 4 2 0 0 0 2 0 0 1 1 6 3 3 27 0 13 19 3 0 0 0 0 0 45 20 6 0 0 0 0 0 2 0 0 0 0 0 0 0 0 0
1 3 1 3 2 4 1 2 0 1 1 0 0 0 6 6 14 0 11 3 39 27 5 0 0 0 11 6 30 8 0 0 0 0 0 0 0 0 0 0 0 0 0 0 0
1 2 3 1 1 3 0 0 1 0 3 15 0 0 16 1 6 28 14 0 6 44 27 1 0 0 18 3 16 24 13 0 0 0 10 0 0 0 0 0 0 0 0 0 0
1 2 4 3 1 5 0 0 0 1 4 24 32 21 1 7 1 8 0 0 0 0 16 6 15 0 2 10 38 23 24 14 1 0 1 2 0 0 0 0 0 0 0 0 0
12 2 5 5 4 8 0 0 1 7 18 22 53 45 8 4 0 0 14 5 0 2 18 31 37 11 0 4 13 45 50 26 18 3 1 1 0 0 0 0 0 0 0 0 0
29 18 21 14 0 6 7 1 0 22 38 47 48 45 19 0 0 0 21 10 0 0 0 36 27 53 21 5 20 18 8 60 16 8 8 8 0 0 0 0 0 0 0 0 0
26 42 32 42 18 19 19 0 0 17 52 55 37 46 17 0 0 0 0 0 0 0 0 0 16 45 42 12 36 62 30 0 0 9 6 5 0 0 0 0 0 0 0 0 0
34 45 33 54 60 62 48 3 2 5 60 42 24 51 6 0 0 0 0 0 0 0 0 0 1 27 43 30 45 24 0 0 0 14 7 7 0 0 0 0 0 0 0 0 0
64 55 47 54 72 67 64 2 0 0 31 32 9 13 0 0 0 0 0 1 2 2 1 8 20 28 39 38 6 6 23 0 0 0 16 3 0 0 0 0 0 0 0 0 0
57 53 43 70 66 67 29 4 1 6 22 0 0 0 0 0 0 0 0 2 4 14 13 19 31 12 0 0 0 0 20 79 0 64 14 4 0 0 0 0 0 0 0 0 0
60 38 39 60 71 60 47 4 0 0 7 2 0 0 0 2 0 0 0 9 16 21 14 39 17 0 0 4 8 1 16 15 41 87 29 9 1 1 0 0 0 0 0 0 0
56 34 40 41 50 49 10 2 0 0 20 17 0 0 1 1 5 9 0 0 3 11 16 18 0 0 4 16 37 8 9 1 48 116 17 16 1 0 0 0 0 0 0 0 0
51 40 27 35 12 5 30 13 11 1 3 2 9 8 0 0 2 2 8 12 13 6 17 46 3 5 22 10 16 15 0 6 74 80 30 0 0 0 0 0 0 0 0 0 0
55 47 24 1 42 21 1 0 0 0 0 0 14 1 4 1 0 1 0 30 29 8 36 0 1 4 35 15 14 2 39 0 99 107 32 5 0 0 0 0 0 0 0 0 0
48 26 37 28 11 9 4 0 0 2 0 2 7 23 27 8 11 7 2 34 20 36 33 1 17 43 14 35 57 11 2 4 72 51 77 12 2 0 0 0 0 0 0 0 0
60 20 23 16 7 1 0 0 2 10 0 13 16 14 11 25 27 9 17 26 20 23 16 29 1 0 1 211 35 116 110 178 40 68 15 0 32 4 0 0 0 0 0 0 0
60 36 11 4 0 0 3 3 8 3 0 6 11 13 37 31 44 14 9 19 36 26 6 7 4 2 0 13 14 54 34 3 38 18 1 0 0 0 0 0 0 0 0 0 0
46 19 4 8 0 0 8 2 11 13 11 11 15 24 16 42 62 23 22 21 1 9 27 79 6 0 3 0 55 9 0 4 1 0 0 0 0 0 0 0 0 0 0 0 0
0 2 4 5 3 8 20 13 13 19 5 12 30 5 3 11 8 9 14 4 7 20 0 2 14 11 15 16 66 9 23 9 0 0 10 0 0 0 0 0 0 0 0 0 0
0 2 0 4 4 17 4 3 3 10 7 11 5 4 6 0 0 2 0 0 2 4 0 4 10 2 0 71 26 31 40 0 0 0 12 0 0 0 0 0 0 0 0 0 0
1 2 4 8 10 11 8 4 9 19 12 16 11 3 1 0 0 0 0 0 0 0 9 4 24 4 2 0 1 30 0 0 21 0 0 0 0 0 0 0 0 0 0 0 0
1 9 11 0 6 8 3 12 6 5 22 14 4 0 0 0 0 0 10 14 0 0 0 11 13 3 0 6 5 13 4 0 0 0 0 0 0 0 0 0 0 0 0 0 0
0 19 31 19 4 7 4 17 12 10 6 20 3 0 0 0 0 0 0 28 0 0 8 38 19 3 2 0 0 3 0 0 0 0 0 0 0 0 0 0 0 0 0 0 0
0 10 2 7 5 5 6 6 11 9 6 0 0 0 0 3 0 0 0 2 6 0 7 9 16 11 0 0 0 0 0 0 0 0 0 0 0 0 0 0 0 0 0 0 0
0 0 1 15 0 3 5 8 12 6 16 4 0 6 0 0 0 0 0 1 0 4 0 0 2 0 0 0 0 0 0 0 0 0 0 0 0 0 0 0 0 0 0 0 0
0 0 0 16 25 5 6 1 2 13 14 1 0 0 8 0 0 0 0 0 3 0 0 3 2 4 0 0 0 0 0 0 0 0 0 0 0 0 0 0 0 0 0 0 0

GFSSW_con_sbcape_015.txt.gz
CAPE
0 0 0 2 0 0 0 0 1 1 0 5 3 15 44 38 32 9 0 0 0 0 0 0 0 0 0 0 0 0 0 0 0 0 0 0 0 0 0 0 0 0 0 0 0
0 1 2 0 0 0 0 1 1 2 1 0 0 14 25 25 5 7 0 0 19 4 0 0 0 0 0 0 0 0 0 0 0 0 0 0 0 0 0 0 0 0 0 0 0
0 1 6 0 0 0 0 0 0 0 4 10 0 0 27 24 11 0 0 3 39 34 5 0 0 0 0 0 0 4 0 0 0 0 0 0 0 0 0 0 0 0 0 0 0
0 1 6 6 1 0 0 0 0 0 2 8 14 0 33 22 0 0 0 0 17 45 26 9 0 0 0 1 0 1 0 0 0 0 0 0 0 0 0 0 0 0 0 0 0
0 1 6 9 9 0 0 0 0 0 0 5 22 34 31 11 0 0 0 0 0 3 6 20 10 0 0 0 0 0 0 0 0 0 0 0 0 0 0 0 0 0 0 0 0
22 16 10 4 10 2 0 0 0 0 0 0 0 37 21 6 0 0 0 0 0 0 0 10 5 3 5 0 0 0 0 0 0 0 0 0 0 0 0 0 0 0 0 0 0
50 42 36 10 8 0 1 15 3 0 0 0 0 1 15 0 0 0 2 0 0 0 0 28 19 35 18 0 0 0 0 0 0 3 0 0 0 0 0 0 0 0 0 0 0
69 64 43 31 7 6 12 19 26 11 18 22 0 8 2 0 0 0 0 0 0 0 0 0 1 0 18 10 0 0 21 1 0 0 0 15 0 0 0 0 0 0 0 0 0
78 73 58 44 43 52 54 29 10 21 29 26 4 10 0 0 0 0 0 0 0 0 0 0 0 0 5 19 9 5 3 12 2 0 15 28 0 0 0 0 0 0 0 0 0
98 77 56 50 45 50 55 27 1 0 11 27 6 4 0 0 0 0 0 0 0 0 0 0 0 0 2 41 13 1 4 2 1 0 7 9 6 0 0 0 0 0 0 0 0
76 70 56 44 46 37 5 0 0 0 32 0 0 0 0 0 0 0 0 0 0 0 3 0 1 9 0 0 0 0 0 1 0 0 2 0 0 0 0 0 0 0 0 0 0
85 73 79 56 50 56 1 3 0 0 3 0 0 0 0 0 0 0 0 1 9 4 0 1 7 0 0 0 11 2 0 0 0 0 18 9 0 0 0 0 0 0 0 0 0
94 71 69 63 76 17 0 1 0 0 1 7 0 0 0 0 0 1 0 0 0 8 1 0 0 0 0 0 8 7 0 0 1 0 2 10 1 0 0 0 0 0 0 0 0
87 87 59 57 15 0 4 0 0 0 1 0 3 12 3 0 0 1 9 0 17 4 0 0 0 0 0 0 3 6 0 0 0 9 13 48 24 0 0 0 0 0 0 0 0
97 95 55 0 0 0 0 0 0 2 0 0 10 0 5 2 3 0 0 14 9 7 9 0 1 0 0 0 0 0 0 0 7 7 23 23 30 0 0 0 0 0 0 0 0
98 88 45 15 0 0 0 0 0 0 0 1 0 16 16 22 14 6 2 11 11 17 10 0 2 2 0 0 0 0 0 0 16 67 54 7 6 0 0 0 0 0 0 0 0
99 73 33 0 0 0 0 0 0 2 0 2 5 12 7 10 12 24 21 30 14 5 8 30 3 1 1 12 3 26 27 32 35 54 9 0 3 0 0 0 0 0 0 0 0
79 58 15 0 0 0 0 0 1 0 0 2 5 0 20 1 22 31 26 20 26 7 0 0 0 0 0 1 0 0 0 44 9 2 6 54 8 0 0 0 0 0 0 0 0
108 40 6 8 0 0 3 4 0 0 0 4 7 12 25 15 13 28 23 7 0 2 0 0 0 0 0 0 60 3 26 0 33 35 4 25 1 0 0 0 0 0 0 0 0
74 1 4 2 0 0 6 0 0 0 1 6 26 12 3 1 6 47 7 0 0 0 0 0 5 6 1 0 3 108 73 40 5 53 27 0 0 0 0 0 0 0 0 0 0
0 1 7 3 4 6 4 2 0 1 0 15 29 30 1 0 0 0 0 0 0 0 0 2 21 1 0 18 0 25 149 43 14 0 5 1 0 0 0 0 0 0 0 0 0
0 11 9 3 15 19 15 1 2 0 12 16 14 17 4 0 0 0 0 0 0 0 0 1 18 27 6 11 10 5 42 11 29 0 1 0 0 0 0 0 0 0 0 0 0
1 19 12 5 2 12 5 5 7 13 17 19 15 6 1 1 0 0 0 0 0 0 2 12 20 3 1 10 2 2 33 6 4 21 0 0 0 0 0 0 0 0 0 0 0
1 8 36 19 10 2 4 7 9 5 10 25 16 2 0 0 0 0 0 14 0 0 11 9 13 6 2 27 18 13 1 3 6 2 0 0 0 0 0 0 0 0 0 0 0
0 11 3 2 4 5 7 7 8 5 4 9 15 2 0 0 0 1 0 2 0 1 16 5 5 7 1 1 0 1 0 2 6 0 0 0 0 0 0 0 0 0 0 0 0
0 0 3 0 0 5 7 12 8 5 7 20 3 0 0 0 0 0 0 0 5 0 1 1 6 12 7 0 8 0 0 4 0 0 0 0 0 0 0 0 0 0 0 0 0
0 0 0 7 0 4 4 1 0 2 1 0 9 1 0 0 2 26 0 0 2 0 0 0 0 9 0 4 1 0 1 0 0 0 0 0 0 0 0 0 0 0 0 0 0

GFSSW_con_sbcape_018.txt.gz
CAPE
0 0 2 2 2 0 0 0 0 0 2 0 0 6 30 56 40 10 0 0 0 0 0 0 0 0 0 0 0 0 0 0 0 0 0 0 0 0 0 0 0 0 0 0 0
0 0 4 4 4 0 0 0 0 0 0 0 0 14 18 10 6 4 0 26 38 8 0 0 0 0 0 0 0 0 0 0 0 0 0 0 0 0 0 0 0 0 0 0 0
2 0 4 12 6 0 0 0 0 0 0 0 0 4 24 12 4 0 0 22 64 50 0 0 0 0 0 0 0 0 2 0 0 0 0 0 0 0 0 0 0 0 0 0 0
22 2 2 6 10 0 0 0 0 0 0 2 10 0 0 0 0 0 0 0 18 42 6 2 0 0 0 0 0 0 0 0 0 0 0 0 0 0 0 0 0 0 0 0 0
32 16 6 4 14 2 0 0 0 0 0 0 8 20 2 8 0 0 0 0 0 10 20 12 0 0 0 0 0 0 0 0 0 0 0 0 0 0 0 0 0 0 0 0 0
64 28 26 10 10 8 0 0 0 0 0 0 0 6 0 0 0 0 0 0 0 8 8 10 0 0 0 0 0 0 0 0 0 0 0 0 0 0 0 0 0 0 0 0 0
98 80 60 32 4 12 0 0 0 0 0 0 4 10 14 0 0 0 0 0 0 2 2 8 0 14 8 4 0 0 0 0 0 0 0 0 0 0 0 0 0 0 0 0 0
118 94 84 58 18 20 14 24 26 4 0 2 12 6 0 0 0 0 0 0 0 0 0 0 2 26 4 12 0 0 0 0 0 0 0 0 0 0 0 0 0 0 0 0 0
126 102 80 68 64 60 62 48 20 14 6 20 0 0 0 0 0 0 0 0 0 0 0 0 0 0 0 44 16 0 0 0 2 0 0 0 0 0 0 0 0 0 0 0 0
110 120 104 76 66 68 72 48 26 2 0 26 10 6 0 0 0 0 0 0 0 0 0 0 0 0 4 28 6 2 0 0 0 2 0 0 0 0 0 0 0 0 0 0 0
104 90 94 80 70 72 32 0 0 2 16 0 0 0 0 0 0 0 0 0 0 0 0 0 0 2 0 0 0 0 0 0 0 6 0 0 0 0 0 0 0 0 0 0 0
98 96 80 94 78 72 0 0 0 0 0 0 0 0 0 0 0 0 0 0 0 0 0 4 16 0 0 0 0 0 0 0 0 0 4 0 0 0 0 0 0 0 0 0 0
102 94 94 104 78 38 0 0 0 0 0 2 0 4 0 4 4 0 0 0 0 4 14 4 0 0 0 0 2 0 0 0 0 0 0 0 0 0 0 0 0 0 0 0 0
90 104 110 82 24 0 10 0 0 2 0 0 2 16 8 26 6 2 6 4 6 4 0 2 0 0 4 10 0 2 0 0 10 14 2 20 8 0 0 0 0 0 0 0 0
80 140 104 8 0 0 0 0 0 10 0 0 4 0 8 10 0 0 2 20 6 4 0 2 0 0 0 0 0 0 0 0 16 22 14 0 12 2 0 0 0 0 0 0 0
98 138 58 0 0 0 0 0 2 0 0 4 0 4 8 18 16 4 0 14 18 18 12 0 0 0 0 0 0 10 8 14 12 56 14 0 8 0 0 0 0 0 0 0 0
56 130 10 0 0 0 0 0 0 0 0 6 4 4 2 8 12 10 6 12 34 14 0 8 12 0 4 8 6 18 40 12 0 8 0 0 0 0 0 0 0 0 0 0 0
12 66 2 0 0 0 0 2 0 0 0 4 2 4 2 0 14 14 30 22 10 10 12 2 2 0 0 4 8 10 12 0 0 0 0 2 0 0 0 0 0 0 0 0 0
4 6 8 0 0 0 6 6 0 0 0 0 4 8 6 8 2 26 20 12 0 18 4 0 0 0 0 0 26 12 30 0 0 0 20 2 42 2 0 0 0 0 0 0 0
42 44 18 0 0 2 6 2 0 0 0 2 0 2 2 0 8 16 0 0 4 0 0 0 0 0 0 0 4 10 4 10 18 12 10 14 12 0 0 0 0 0 0 0 0
24 58 12 2 10 14 2 0 0 0 0 0 4 16 2 0 0 0 0 0 0 0 0 0 0 0 0 0 0 2 4 22 0 0 158 24 0 0 0 0 0 0 0 0 0
14 8 6 4 4 2 10 0 0 0 0 0 8 18 16 0 0 0 0 0 0 0 0 0 6 2 0 0 0 0 0 0 14 4 0 0 0 0 0 0 0 0 0 0 0
50 30 6 2 0 6 8 0 0 4 8 14 14 12 2 0 0 0 0 0 0 0 0 2 36 8 2 2 18 34 4 18 20 2 18 18 0 0 0 0 0 0 0 0 0
20 18 18 18 10 6 4 8 6 2 10 12 12 12 12 0 0 0 0 0 0 0 2 8 20 14 2 12 8 30 4 10 0 0 0 0 0 0 0 0 0 0 0 0 0
40 12 4 2 16 0 6 6 2 10 6 10 10 14 10 0 0 0 0 0 0 2 8 6 8 4 6 8 14 22 0 30 48 0 4 0 0 0 0 0 0 0 0 0 0
20 0 2 0 2 6 2 2 12 12 8 10 6 4 2 0 0 0 0 0 0 2 10 12 4 8 8 0 12 14 0 22 10 0 0 0 0 0 0 0 0 0 0 0 0
0 0 0 2 2 6 6 2 4 2 2 2 2 10 2 0 0 0 0 0 0 0 6 14 8 4 6 10 6 32 2 4 0 0 0 0 0 0 0 0 0 0 0 0 0

GFSSW_con_sbcape_021.txt.gz
CAPE
5 0 1 2 6 8 8 2 0 1 6 1 5 9 40 57 31 34 2 0 0 0 0 0 0 0 0 0 0 0 0 0 0 0 0 0 0 0 0 0 0 0 0 0 0
11 6 1 7 5 6 6 2 0 0 0 7 0 10 20 16 7 16 0 9 21 18 0 0 0 0 0 0 0 0 0 0 0 0 0 0 0 0 0 0 0 0 0 0 0
25 24 6 4 15 9 5 5 0 0 0 0 0 0 20 7 0 0 0 26 57 45 0 0 0 0 0 0 0 0 0 0 0 0 0 0 0 0 0 0 0 0 0 0 0
59 37 16 1 10 15 4 3 0 0 0 0 0 0 0 0 0 0 0 0 29 15 0 0 0 0 0 0 0 0 0 0 0 0 0 0 0 0 0 0 0 0 0 0 0
135 64 31 12 7 27 9 3 0 1 0 0 0 4 1 0 0 0 0 0 0 7 2 1 0 0 0 0 0 0 0 0 0 0 0 0 0 0 0 0 0 0 0 0 0
112 90 70 38 21 35 20 7 0 0 0 0 0 11 0 0 0 0 0 0 0 4 6 12 0 0 2 0 0 0 0 0 0 0 0 0 0 0 0 0 0 0 0 0 0
149 116 90 72 30 19 30 21 14 1 1 0 0 1 2 0 0 0 0 0 0 0 0 6 16 30 14 16 0 0 0 0 0 0 0 0 0 0 0 0 0 0 0 0 0
93 112 79 81 61 28 30 33 50 25 11 1 9 3 0 0 0 0 0 0 0 0 0 0 31 33 43 5 1 2 0 0 0 0 0 0 0 0 0 0 0 0 0 0 0
119 115 151 96 74 61 67 65 51 33 29 30 0 0 0 0 0 0 0 0 0 0 0 1 0 0 2 32 25 7 1 0 0 0 0 0 0 0 0 0 0 0 0 0 0
116 102 92 93 81 76 90 70 52 13 7 24 14 1 0 0 0 0 0 0 0 0 0 0 0 0 9 31 1 0 0 0 0 0 0 0 0 0 0 0 0 0 0 0 0
38 99 97 107 91 92 48 0 0 3 6 0 2 0 0 0 0 0 0 0 0 0 0 0 0 0 0 0 1 0 0 0 0 0 0 0 0 0 0 0 0 0 0 0 0
17 93 95 117 118 108 0 0 0 0 0 0 0 0 0 0 0 0 0 0 0 0 0 0 1 0 0 0 0 0 9 7 0 0 0 0 0 0 0 0 0 0 0 0 0
22 19 79 123 119 42 1 0 0 0 0 0 0 1 0 0 1 1 0 0 0 0 0 0 0 0 0 0 0 0 2 2 0 0 0 0 0 0 0 0 0 0 0 0 0
40 8 87 129 53 1 7 0 0 1 0 0 1 2 8 27 12 0 0 0 1 1 0 3 0 0 0 0 0 0 1 0 0 11 1 0 0 0 0 0 0 0 0 0 0
18 13 66 44 0 1 0 0 1 0 0 0 12 0 14 9 0 0 0 10 6 0 0 0 0 0 0 0 0 1 0 4 13 10 1 0 12 0 0 0 0 0 0 0 0
8 36 22 0 0 0 0 0 31 0 0 1 2 7 17 13 12 2 0 30 11 19 4 0 0 0 0 0 0 8 1 3 11 11 4 0 1 0 0 0 0 0 0 0 0
17 45 13 0 0 0 0 1 1 0 0 3 1 4 0 4 10 10 3 10 14 4 0 9 11 5 0 0 0 13 29 8 17 13 0 0 0 0 0 0 0 0 0 0 0
36 3 12 0 0 0 0 0 0 0 0 0 0 1 0 0 5 14 17 6 31 15 13 0 2 11 0 0 0 1 3 2 0 0 0 0 0 0 0 0 0 0 0 0 0
47 12 70 7 0 1 4 0 0 0 0 0 2 7 4 4 6 11 17 1 3 2 5 0 0 0 0 0 0 16 11 0 6 0 5 0 0 0 0 0 0 0 0 0 0
16 11 32 3 1 13 2 0 0 0 0 0 0 0 0 2 7 7 1 0 1 0 2 0 1 0 0 0 3 3 0 14 10 3 0 0 0 0 0 0 0 0 0 0 0
24 28 72 1 5 12 0 0 0 0 0 0 0 1 0 0 2 0 0 0 0 0 1 13 3 0 1 13 2 16 15 7 0 0 10 6 0 0 0 0 0 0 0 0 0
38 4 37 8 17 0 13 0 0 0 0 0 0 0 8 0 0 0 0 0 0 0 3 2 1 0 0 0 0 0 0 2 8 0 0 0 0 0 0 0 0 0 0 0 0
46 30 37 9 1 6 12 0 0 2 0 3 3 8 4 10 0 0 0 0 0 0 0 0 15 0 18 0 7 24 0 1 0 12 0 0 0 0 0 0 0 0 0 0 0
32 2 34 26 7 0 4 8 6 1 3 4 12 11 12 1 1 0 0 0 0 0 1 0 13 8 0 5 2 14 10 3 6 8 0 0 0 0 0 0 0 0 0 0 0
11 10 5 2 6 0 0 9 8 13 2 6 14 9 13 10 0 0 0 0 0 6 12 4 5 3 2 3 7 8 6 10 9 0 1 0 0 0 0 0 0 0 0 0 0
26 7 1 4 3 1 6 11 5 1 4 7 11 4 3 11 0 0 0 0 0 0 14 14 1 3 1 3 8 29 13 0 3 4 0 0 0 0 0 0 0 0 0 0 0
1 0 0 9 7 8 4 3 0 12 5 3 0 4 9 3 1 0 0 0 0 0 8 6 7 10 7 7 11 22 5 0 0 0 4 3 0 0 0 0 0 0 0 0 0

GFSSW_con_sbcape_024.txt.gz
CAPE
27 9 1 0 2 8 2 2 4 9 8 20 5 5 26 73 65 35 1 0 0 0 0 0 0 0 0 0 0 0 0 0 0 0 0 0 0 0 0 0 0 0 0 0 0
63 15 13 6 0 6 8 4 3 8 8 2 0 8 16 32 56 33 2 14 3 6 0 0 0 0 0 0 0 0 0 0 0 0 0 0 0 0 0 0 0 0 0 0 0
92 42 27 18 2 3 9 6 3 2 1 6 3 0 7 2 0 0 2 34 58 54 0 0 0 0 0 0 0 0 0 0 0 0 0 0 0 0 0 0 0 0 0 0 0
75 84 51 26 13 5 7 5 4 0 0 6 15 6 0 0 0 0 0 0 29 26 0 0 0 0 0 0 0 0 0 0 0 0 0 0 0 0 0 0 0 0 0 0 0
92 115 100 55 23 4 14 5 6 2 0 0 18 26 1 0 0 0 0 0 0 18 15 0 0 0 0 0 0 0 0 0 0 0 0 0 0 0 0 0 0 0 0 0 0
87 132 126 99 63 30 30 9 9 5 1 0 2 17 1 0 0 0 0 0 0 8 14 1 2 0 0 0 0 0 0 0 0 0 0 0 0 0 0 0 0 0 0 0 0
39 118 130 107 78 37 28 30 19 0 1 4 19 9 0 0 0 0 0 0 0 0 29 3 0 9 5 2 0 0 0 0 0 0 0 0 0 0 0 0 0 0 0 0 0
26 69 113 129 119 78 33 51 39 34 2 6 26 3 0 0 0 0 0 0 0 0 0 0 22 40 36 0 0 3 2 2 0 0 0 0 0 0 0 0 0 0 0 0 0
19 30 92 134 121 114 95 81 73 68 41 32 0 0 0 0 0 0 0 0 0 0 0 0 3 0 1 4 4 3 0 0 0 0 0 0 0 0 0 0 0 0 0 0 0
19 16 17 92 133 106 117 76 64 25 8 10 15 0 0 0 0 0 0 0 0 0 0 0 2 2 0 4 0 0 0 0 0 0 0 0 0 0 0 0 0 0 0 0 0
36 24 26 78 121 123 89 14 6 29 10 0 0 0 0 0 0 0 0 0 0 0 0 0 2 5 3 0 0 0 0 4 4 1 0 0 0 0 0 0 0 0 0 0 0
58 39 31 11 114 136 0 0 0 0 0 0 0 0 0 0 0 0 0 0 0 0 0 0 1 0 0 0 0 0 0 1 0 0 0 0 0 0 0 0 0 0 0 0 0
74 61 49 2 78 25 0 0 0 0 0 0 0 0 0 0 1 0 0 0 0 0 0 0 0 0 0 0 0 0 0 0 0 0 0 0 0 0 0 0 0 0 0 0 0
77 29 19 17 49 2 6 0 0 0 0 0 1 0 0 16 6 3 1 0 0 0 0 0 0 0 0 0 0 0 0 0 0 1 0 0 0 0 0 0 0 0 0 0 0
101 36 3 22 48 1 0 0 0 0 0 0 14 0 22 0 0 0 0 11 12 0 0 1 0 0 1 0 0 1 0 0 0 0 1 0 8 0 0 0 0 0 0 0 0
54 6 11 29 13 0 0 0 0 0 0 3 6 19 26 18 9 2 6 24 0 15 7 0 0 0 0 0 0 1 0 1 3 10 7 0 0 0 0 0 0 0 0 0 0
54 62 53 52 34 0 0 0 0 0 0 1 4 6 4 5 8 16 16 18 22 10 1 11 3 3 0 0 0 4 23 7 4 7 0 0 0 0 0 0 0 0 0 0 0
118 70 31 17 76 0 1 0 0 0 0 0 0 1 0 1 2 9 17 13 22 7 7 0 0 0 0 0 0 0 2 2 0 0 0 0 0 0 0 0 0 0 0 0 0
114 43 35 14 64 5 0 0 0 0 0 0 5 1 2 0 3 12 19 3 0 8 13 14 0 0 2 0 1 19 12 0 7 5 14 0 0 0 0 0 0 0 0 0 0
48 33 4 53 49 20 0 0 0 0 0 0 0 0 0 1 1 10 2 0 1 3 0 0 8 0 0 1 1 15 1 9 1 0 2 0 0 0 0 0 0 0 0 0 0
6 4 75 63 57 28 3 0 0 0 0 0 0 0 0 0 0 0 0 0 0 0 0 2 14 0 5 13 0 19 42 40 6 3 0 0 0 0 0 0 0 0 0 0 0
11 1 76 38 9 12 4 0 0 0 0 0 0 0 0 0 0 0 0 0 0 0 0 0 18 4 0 0 0 0 0 3 1 0 0 0 0 0 0 0 0 0 0 0 0
26 15 72 8 0 3 2 0 0 0 0 0 0 0 1 3 2 0 0 0 0 0 0 0 24 3 0 0 8 4 2 1 5 4 0 0 0 0 0 0 0 0 0 0 0
0 0 24 32 15 0 0 9 0 0 0 0 2 6 2 17 2 0 0 0 0 0 0 0 13 0 0 0 0 7 9 5 1 14 0 0 0 0 0 0 0 0 0 0 0
1 5 2 1 8 0 0 0 0 2 0 1 10 10 9 28 8 1 0 0 0 0 0 1 2 1 2 3 1 6 2 13 4 0 0 0 0 0 0 0 0 0 0 0 1
1 15 14 6 3 0 0 0 0 4 3 4 13 2 10 18 0 0 0 0 0 0 10 15 0 3 1 1 4 13 30 8 2 0 0 0 0 0 6 1 0 0 0 3 0
2 0 0 16 5 4 3 1 2 5 1 2 0 5 9 6 0 0 0 0 0 1 8 8 7 11 0 3 2 8 5 6 3 3 0 4 0 0 0 12 2 0 0 0 0

GFSSW_con_sbcape_027.txt.gz
CAPE
92 91 27 7 0 0 2 5 10 8 4 1 1 4 32 58 64 11 0 0 0 1 0 0 0 0 0 0 0 0 0 0 0 0 0 0 0 0 0 0 0 0 0 0 0
100 104 78 27 6 0 1 5 4 6 4 2 0 4 12 34 48 36 0 15 40 38 0 0 0 0 0 0 0 0 0 0 0 0 0 0 0 0 0 0 0 0 0 0 0
132 98 112 79 31 6 0 7 1 0 5 2 4 0 0 12 0 0 0 59 109 57 0 0 0 0 0 0 0 0 0 0 0 0 0 0 0 0 0 0 0 0 0 0 0
68 130 126 122 84 19 6 3 1 0 1 2 9 3 0 0 0 0 0 0 10 22 0 0 0 0 0 0 0 0 0 0 0 0 0 0 0 0 0 0 0 0 0 0 0
43 54 109 123 123 42 7 3 0 0 0 0 3 13 0 0 0 0 0 0 0 3 6 0 0 0 0 0 0 0 0 0 0 0 0 0 0 0 0 0 0 0 0 0 0
18 32 27 96 132 111 49 19 0 0 1 0 0 4 0 0 0 0 0 0 0 25 20 1 0 0 0 0 0 0 0 0 0 0 0 0 0 0 0 0 0 0 0 0 0
27 22 26 24 96 137 56 42 9 0 0 0 10 0 0 0 0 0 0 0 0 16 21 18 0 0 0 0 0 0 0 0 0 0 0 0 0 0 0 0 0 0 0 0 0
38 26 22 31 58 129 100 66 46 38 26 12 27 0 0 0 0 0 0 0 0 0 0 2 2 30 30 0 0 7 0 0 0 0 0 0 0 0 0 0 0 0 0 0 0
72 36 17 32 39 93 119 112 88 59 54 52 0 0 0 0 0 0 0 0 0 0 0 5 3 0 0 6 2 0 0 0 0 0 0 0 0 0 0 0 0 0 0 0 0
69 61 25 21 24 76 131 128 70 50 20 41 17 0 0 0 0 0 0 0 0 0 0 0 0 0 7 2 0 0 1 0 0 0 0 0 0 0 0 0 0 0 0 0 0
89 60 48 37 31 55 85 8 5 7 9 0 0 0 0 0 0 0 0 0 0 0 0 0 6 5 0 0 0 0 0 0 0 0 0 0 0 0 0 0 0 0 0 0 0
106 77 69 39 58 7 1 0 0 0 0 0 0 0 0 0 0 0 0 0 0 0 0 0 3 0 1 2 3 4 6 4 1 0 0 0 0 0 0 0 0 0 0 0 0
103 114 71 37 16 23 2 0 0 0 0 0 0 0 0 0 0 0 0 0 0 0 0 0 0 0 0 0 2 0 2 3 0 0 0 0 0 0 0 0 0 0 0 0 0
108 118 89 50 12 57 2 0 0 0 0 0 0 0 1 10 1 0 0 0 0 0 0 0 0 0 0 0 0 2 0 0 0 2 0 0 0 0 0 0 0 0 0 0 0
106 97 73 55 13 30 4 0 0 0 0 0 6 0 16 0 0 0 0 10 2 0 0 0 0 0 1 0 0 0 0 0 0 1 3 1 6 0 0 0 0 0 0 0 0
49 32 29 26 40 0 5 0 0 0 0 7 12 26 32 17 18 1 17 27 2 12 7 0 0 0 0 0 0 0 0 4 6 17 18 0 1 0 0 0 0 0 0 0 0
100 169 16 13 11 55 7 2 0 0 0 6 12 27 13 11 20 16 16 21 9 15 2 1 7 2 0 0 0 2 29 14 23 32 1 0 0 0 0 0 0 0 0 0 0
118 132 48 3 3 0 1 3 0 0 0 1 1 5 3 5 2 3 13 21 17 19 27 2 0 3 4 1 0 4 2 8 0 0 0 0 0 0 0 0 0 0 0 0 0
139 97 82 21 4 0 15 0 0 0 0 2 6 5 4 1 0 6 7 2 6 26 12 1 0 0 0 0 0 18 9 0 7 1 28 0 0 0 0 0 0 0 0 0 0
52 54 27 12 0 23 1 0 0 0 0 0 0 0 0 1 0 6 1 0 0 1 8 0 0 0 0 2 3 19 0 21 12 11 15 0 0 0 0 0 0 0 0 0 0
11 33 29 48 9 13 1 0 0 0 0 0 0 0 0 0 0 0 0 0 0 0 1 0 0 0 2 5 0 27 51 46 8 15 8 0 0 0 0 6 0 0 0 0 0
24 22 53 87 1 3 7 0 0 0 0 0 0 0 0 0 0 0 0 0 0 0 0 0 0 0 0 0 0 0 5 2 21 0 2 0 0 0 2 0 2 0 0 0 0
16 17 46 0 2 4 2 0 0 0 0 0 0 0 0 0 0 0 0 0 0 0 0 0 9 0 0 0 0 8 3 7 1 2 1 1 0 0 0 0 0 0 0 0 0
0 8 10 37 3 2 0 0 1 0 0 0 0 0 0 6 0 0 0 0 0 0 0 0 1 0 0 0 0 4 11 5 1 3 0 0 0 0 0 0 0 3 0 0 0
2 4 2 3 5 4 0 0 0 0 0 0 3 2 1 4 3 4 0 0 0 0 0 0 7 4 1 1 1 0 2 1 4 0 0 0 0 0 0 0 3 0 0 0 0
8 15 3 0 0 2 2 0 0 0 0 1 0 0 4 18 0 0 0 0 0 0 0 6 5 5 3 2 1 2 9 4 6 5 3 0 0 0 0 0 0 0 0 0 0
10 3 11 10 0 0 0 0 0 0 0 0 0 1 12 1 1 0 0 0 0 4 1 17 7 10 0 0 3 6 1 3 5 3 0 4 0 0 0 0 0 0 0 0 1

GFSSW_con_sbcape_030.txt.gz
CAPE
107 115 108 82 11 2 0 0 4 4 8 6 1 13 28 27 62 41 30 3 3 0 0 0 0 0 0 0 0 0 0 0 0 0 0 0 0 0 0 0 0 0 0 0 0
14 79 108 95 69 12 0 0 0 1 2 1 6 9 2 5 54 45 3 35 48 26 0 0 0 0 0 0 0 0 0 0 0 0 0 0 0 0 0 0 0 0 0 0 0
12 25 81 102 101 51 5 0 0 0 0 0 7 3 0 0 7 3 6 108 104 76 1 0 0 0 0 0 0 0 0 0 0 0 0 0 0 0 0 0 0 0 0 0 0
10 20 18 43 105 108 29 1 0 0 0 0 6 10 0 0 0 0 0 0 54 65 32 0 0 0 1 0 0 0 0 0 0 0 0 0 0 0 0 0 0 0 0 0 0
16 13 15 19 42 98 111 20 0 0 0 0 0 5 0 0 0 0 0 0 0 60 35 0 1 4 2 0 0 0 0 0 0 0 0 0 0 0 0 0 0 0 0 0 0
31 34 7 18 25 55 118 65 12 2 0 0 0 1 0 0 0 0 0 0 15 37 62 15 6 1 5 1 0 0 0 0 0 0 0 0 0 0 0 0 0 0 0 0 0
31 54 43 11 17 21 98 66 35 4 0 0 0 1 0 0 0 0 0 0 0 59 48 29 3 1 10 14 11 3 0 0 0 0 0 0 0 0 0 0 0 0 0 0 0
37 53 54 24 9 30 58 124 114 69 9 0 17 0 0 0 0 0 0 0 0 0 50 53 24 30 30 16 9 2 2 0 0 0 0 0 0 0 0 0 0 0 0 0 0
37 56 59 40 14 24 17 98 107 72 43 24 1 0 0 0 0 0 0 0 0 0 0 60 48 2 16 15 6 5 0 0 0 0 0 0 0 0 0 0 0 0 0 0 0
72 77 67 61 40 40 2 85 83 70 56 51 7 0 0 0 0 0 0 0 0 0 0 0 2 3 0 7 0 0 1 0 0 0 0 0 0 0 0 0 0 0 0 0 0
90 128 108 66 52 25 34 59 10 7 9 0 0 0 0 0 0 0 0 0 0 8 15 15 11 1 0 0 0 0 1 3 2 0 0 0 0 0 0 0 0 0 0 0 0
149 166 144 96 66 35 9 14 6 0 1 0 0 0 0 0 0 0 0 0 9 13 13 10 5 0 0 0 3 5 7 2 0 1 0 0 0 0 0 0 0 0 0 0 0
157 161 144 83 77 18 28 16 0 0 0 0 0 0 0 0 1 0 0 1 1 7 5 1 0 0 0 2 6 4 1 3 3 3 0 0 0 0 0 0 0 0 0 0 0
77 126 133 98 74 7 39 33 0 0 5 0 2 0 0 11 0 0 0 0 0 2 4 8 2 0 0 5 4 4 0 3 7 5 3 1 0 0 0 0 0 0 0 0 0
89 105 93 56 59 6 0 14 0 0 9 0 6 6 7 0 0 7 0 5 12 0 0 0 0 6 5 1 3 4 2 3 6 7 3 2 8 0 0 0 0 0 0 0 0
78 121 130 55 64 0 4 5 0 6 1 12 18 34 18 13 12 14 15 25 11 13 4 5 0 3 6 0 1 3 9 14 15 22 22 0 4 0 0 0 0 0 0 0 0
83 132 70 93 35 97 78 1 3 11 0 11 11 39 12 11 21 16 35 24 17 22 23 8 13 4 0 5 3 13 38 13 23 28 2 0 11 0 0 0 0 0 0 0 0
229 182 139 46 113 116 86 7 4 0 3 5 18 25 23 6 20 16 22 26 16 12 12 8 3 2 9 10 5 12 19 18 1 1 1 0 0 0 0 0 0 0 0 0 0
36 137 134 93 47 41 5 7 5 0 1 5 18 11 7 7 3 9 12 2 3 14 5 12 1 0 2 2 5 19 22 2 27 28 50 5 0 0 0 0 0 0 0 0 0
25 99 112 124 48 1 2 22 0 0 0 1 4 0 1 3 6 2 5 0 4 8 7 9 8 0 0 4 8 13 5 18 44 10 11 0 0 0 0 0 8 0 7 12 0
26 14 101 123 19 4 13 10 7 1 0 0 0 4 2 4 3 3 1 0 0 0 16 10 3 1 12 12 3 9 27 53 13 22 12 7 1 0 0 0 0 0 10 12 0
20 8 67 24 6 6 41 15 8 1 0 0 0 0 0 0 0 3 0 0 0 0 3 1 9 3 2 0 0 0 0 7 37 4 12 30 2 0 0 25 41 0 1 19 4
6 73 68 37 48 52 5 23 3 0 0 0 0 0 0 0 0 1 0 0 0 0 0 7 20 5 0 0 0 5 0 0 21 17 20 32 1 0 4 46 0 0 2 4 13
20 7 11 18 24 3 16 6 5 0 0 0 0 0 0 0 0 2 0 0 0 0 0 3 12 0 0 0 2 17 2 5 7 16 5 19 0 0 1 1 0 0 0 0 9
23 6 5 8 19 4 5 3 2 0 0 0 0 0 0 1 1 3 1 1 0 0 2 11 15 4 1 0 1 3 8 8 4 6 11 0 10 0 10 4 1 0 0 0 2
15 20 11 9 5 9 4 4 0 0 0 0 0 0 0 0 0 3 1 5 0 0 9 17 3 14 8 2 5 6 4 6 8 7 10 17 13 0 0 0 0 8 1 0 0
13 2 33 9 19 22 4 0 0 0 0 0 0 0 0 0 0 8 0 1 0 1 2 13 12 16 4 0 3 3 11 11 1 1 2 14 0 0 2 1 0 0 0 0 0

GFSSW_con_sbcape_033.txt.gz
CAPE
5 13 58 76 80 63 6 0 0 1 0 1 2 0 19 33 55 51 21 12 15 3 0 1 0 0 0 0 0 0 4 0 0 0 0 0 0 0 0 0 0 0 0 0 0
9 6 15 46 80 82 42 9 1 1 0 0 2 1 2 7 58 42 8 11 12 11 0 2 0 0 0 0 0 7 0 0 0 0 0 0 0 0 0 0 0 0 0 0 0
20 17 12 17 40 61 101 31 1 3 0 0 0 1 0 0 43 13 30 51 68 52 13 14 10 0 0 0 0 0 0 0 0 0 0 0 0 0 0 0 0 0 0 0 0
17 21 20 11 15 25 82 111 9 5 3 0 0 0 0 4 15 22 0 33 83 78 34 12 9 2 0 0 0 0 0 0 0 0 0 0 0 0 0 0 0 0 0 0 0
11 14 13 21 8 13 26 89 49 10 4 0 0 0 0 8 2 0 0 0 0 75 58 14 17 9 2 0 0 0 0 0 0 0 0 0 0 0 0 0 0 0 0 0 0
18 12 21 39 24 9 8 37 105 33 8 0 0 0 0 0 0 0 0 0 4 40 39 25 25 18 22 10 0 1 0 0 0 0 0 0 0 0 0 0 0 0 0 0 0
23 27 14 37 36 26 4 25 113 60 28 4 0 0 3 0 0 0 0 0 12 13 52 23 9 0 19 8 7 1 1 0 0 0 0 0 0 0 0 0 0 0 0 0 0
37 31 40 33 47 40 14 17 55 95 42 2 0 1 0 0 0 0 0 0 0 61 52 50 17 22 23 14 2 0 1 0 0 0 0 0 0 0 0 0 0 0 0 0 0
59 46 42 61 59 53 22 22 12 105 66 34 20 7 5 0 0 0 0 10 8 7 46 43 33 31 38 24 5 6 0 0 0 0 0 0 0 0 0 0 0 0 0 0 0
86 86 70 76 79 59 43 19 15 92 62 60 21 4 0 0 0 0 0 18 12 13 32 23 16 3 1 19 5 3 2 0 0 0 0 0 0 0 0 0 0 0 0 0 0
114 105 138 123 123 66 56 13 136 47 55 22 0 0 0 0 0 0 0 16 13 14 4 1 4 1 0 12 6 0 0 0 0 0 0 0 0 0 0 0 0 0 0 0 0
105 92 150 175 151 91 78 10 20 21 4 0 0 3 0 0 1 0 0 7 2 5 4 7 10 0 1 0 0 0 0 0 0 0 0 0 0 0 0 0 0 0 0 0 0
71 31 87 156 143 73 73 0 4 1 21 15 5 2 0 0 6 2 1 7 9 8 0 10 0 0 0 0 0 0 0 0 0 0 0 0 0 0 0 0 0 0 0 0 0
32 58 112 89 79 55 72 54 29 0 7 6 11 2 2 1 3 8 0 4 8 1 4 8 1 0 0 0 0 1 0 0 0 1 0 0 0 0 0 0 0 0 0 0 0
67 90 62 63 57 66 63 48 19 4 23 8 13 9 10 0 2 10 3 12 5 9 0 0 0 6 3 0 2 1 2 0 2 6 0 0 1 0 0 0 0 0 0 0 0
69 91 116 78 87 50 74 47 28 3 24 11 12 11 6 13 10 18 16 17 9 7 7 5 1 5 7 1 3 2 1 1 4 8 7 0 0 0 0 0 0 0 0 0 0
87 25 213 58 42 72 77 9 7 21 0 23 16 19 10 3 12 24 17 17 8 24 13 8 3 1 2 5 6 10 14 2 4 18 0 0 0 0 0 0 0 0 0 0 0
48 36 171 81 73 140 28 4 44 8 5 3 26 27 18 4 13 5 6 22 11 4 2 2 5 3 0 4 4 1 12 0 0 0 0 0 0 0 0 0 0 0 0 0 0
58 65 157 157 111 31 31 24 69 5 4 11 33 27 19 13 7 18 19 14 12 7 1 4 0 0 8 5 3 8 13 1 15 7 5 0 0 0 0 0 0 0 0 0 0
27 35 90 93 74 45 42 1 24 5 0 14 6 2 11 16 13 6 11 4 0 3 5 3 4 0 8 7 1 5 4 4 16 6 1 0 0 0 0 4 2 0 4 13 0
6 52 117 55 35 8 20 54 37 7 3 8 3 2 1 8 6 3 1 0 1 1 7 0 2 1 2 4 1 3 13 14 8 15 9 3 0 0 0 0 0 47 33 31 13
22 9 78 45 53 21 53 26 10 9 0 3 7 3 3 5 8 7 0 0 0 0 2 2 0 7 0 0 0 5 0 5 29 0 3 8 3 0 0 2 45 51 48 17 0
33 24 87 56 121 73 18 22 16 8 3 3 5 1 0 6 1 7 1 0 0 0 4 2 8 3 1 0 0 1 0 0 12 17 12 25 1 0 0 0 5 68 20 2 0
52 18 16 21 25 41 28 27 19 17 5 0 0 0 0 2 0 3 0 0 0 0 0 8 6 0 0 14 5 2 3 5 4 17 5 5 1 0 12 19 3 3 14 12 10
114 18 8 33 73 29 25 13 16 14 1 1 0 1 0 1 5 2 2 1 0 0 0 6 22 6 8 4 2 4 4 1 3 3 3 0 1 0 5 9 7 13 11 1 0
11 32 20 16 9 26 3 3 17 5 7 8 7 0 0 3 3 1 0 3 2 3 6 9 24 24 10 0 0 8 0 4 9 6 6 3 3 3 1 0 0 0 5 6 5
9 7 32 10 25 17 0 4 14 6 3 0 2 2 4 4 0 1 1 3 3 2 7 14 21 20 1 0 0 8 2 4 8 11 13 16 3 9 3 4 2 0 0 4 15

GFSSW_con_sbcape_036.txt.gz
CAPE
10 11 7 7 20 36 90 73 2 1 4 6 2 2 0 0 11 41 11 0 10 28 0 0 0 0 0 0 0 0 0 0 0 0 0 0 0 0 0 0 0 0 0 0 325
12 7 8 11 6 15 24 94 43 2 3 7 2 0 0 4 6 9 0 30 39 26 0 0 0 0 0 0 0 0 0 0 0 0 0 0 0 0 0 0 0 0 0 0 0
18 15 8 12 15 7 20 26 97 35 1 3 1 0 0 0 16 0 1 35 63 47 0 0 0 0 0 0 0 0 0 0 0 0 0 0 0 0 0 0 0 0 0 0 0
32 25 17 18 14 13 14 15 38 108 7 2 0 0 0 0 0 2 127 95 94 69 32 24 1 2 1 0 0 0 0 0 0 0 0 0 0 0 0 0 0 0 0 0 0
42 42 29 19 24 16 22 16 16 104 51 9 0 0 0 5 0 4 0 0 15 79 55 35 0 0 0 0 0 0 0 0 0 0 0 0 0 0 0 0 0 0 0 0 0
67 47 42 32 32 43 38 24 10 40 89 22 0 0 0 0 0 0 0 0 0 11 61 57 15 11 12 1 1 1 0 0 0 0 0 0 0 0 0 0 0 0 0 0 0
79 62 44 39 37 43 52 46 14 5 124 37 4 0 3 0 0 0 0 0 17 9 74 64 12 12 15 9 4 1 0 0 0 0 0 0 0 0 0 0 0 0 0 0 0
136 121 61 50 46 51 61 60 18 6 79 72 43 1 7 0 0 0 0 0 0 27 43 78 36 15 18 3 3 0 0 0 0 0 0 0 0 0 0 0 0 0 0 0 0
129 145 127 94 69 60 69 66 33 7 40 75 45 17 1 0 0 0 0 0 0 56 49 100 45 7 15 8 11 1 0 0 0 0 0 0 0 0 0 0 0 0 0 0 0
150 158 161 128 113 104 92 78 27 2 71 51 40 31 0 0 0 0 0 2 2 2 67 63 2 6 16 14 1 0 0 0 0 0 0 0 0 0 0 0 0 0 0 0 0
161 165 144 88 152 130 107 79 104 87 49 20 11 0 0 0 0 0 0 5 8 16 22 42 10 1 0 0 0 0 0 0 0 0 0 0 0 0 0 0 0 0 0 0 0
147 105 44 76 112 154 134 31 1 16 33 12 10 13 0 0 0 0 0 8 6 19 5 1 0 0 0 7 2 0 0 0 0 0 0 0 0 0 0 0 0 0 0 0 0
63 36 76 85 62 25 110 21 2 0 36 12 16 14 1 0 0 0 0 1 5 7 0 4 0 0 0 0 0 0 0 0 0 0 0 0 0 0 0 0 0 0 0 0 0
39 65 77 71 36 41 74 81 26 10 2 28 7 25 1 7 1 0 0 4 9 0 0 0 0 0 0 0 0 0 0 0 0 0 0 0 0 0 0 0 0 0 0 0 0
59 86 113 143 10 0 76 98 54 51 6 11 11 10 0 0 0 2 0 11 4 6 7 0 0 0 0 0 0 0 0 0 0 0 0 0 0 0 0 0 0 0 0 0 0
51 68 90 36 71 0 18 79 5 4 3 21 4 7 17 32 11 0 6 6 2 2 1 1 1 0 0 0 0 0 0 0 0 0 0 0 0 0 0 0 0 0 0 0 0
28 60 39 154 27 18 86 0 3 5 3 23 12 21 13 19 22 6 11 3 0 0 5 3 0 1 0 1 1 4 4 0 1 2 0 0 0 0 0 0 0 0 0 0 0
58 56 112 41 132 90 26 19 8 13 11 0 17 19 7 19 20 16 23 10 7 0 0 2 0 2 0 1 1 3 0 0 0 0 0 0 0 0 0 0 0 0 0 0 0
45 21 135 106 116 70 26 4 12 2 3 20 30 5 12 13 9 17 6 9 0 5 0 1 0 0 0 1 1 5 1 0 0 0 0 0 0 0 0 0 0 0 0 0 0
42 14 93 75 96 38 36 13 24 6 5 17 11 10 6 1 4 13 12 1 2 1 0 0 0 0 7 1 1 0 0 0 3 0 0 0 0 0 0 0 0 0 0 0 0
4 47 75 85 68 18 33 14 30 4 1 3 0 3 1 7 7 4 0 0 2 0 1 0 1 0 0 0 0 0 1 1 1 1 0 0 0 0 0 0 0 0 0 0 0
4 16 43 75 1 5 47 36 30 8 4 10 4 0 3 3 6 0 0 0 0 0 0 0 1 0 0 0 0 0 0 0 3 0 0 0 0 0 0 0 0 0 5 0 0
36 52 63 27 30 40 2 24 11 10 17 12 2 3 0 0 0 4 0 0 0 0 1 0 0 0 0 0 0 0 0 0 0 0 0 1 0 0 0 0 0 0 0 0 0
73 3 17 20 10 7 10 9 3 6 13 4 0 2 2 0 2 0 0 0 0 0 3 0 3 0 0 0 5 0 0 0 1 1 0 0 0 0 0 0 0 0 0 0 0
78 4 5 11 38 17 12 18 1 19 3 4 8 10 4 0 0 0 0 0 0 0 0 0 1 0 0 0 0 0 0 0 0 1 2 0 1 0 0 0 0 0 0 0 1
4 10 15 0 11 21 1 8 25 21 12 15 1 0 0 1 0 2 0 0 0 0 0 2 0 1 0 0 0 0 0 0 0 4 6 2 2 5 1 3 0 0 0 0 0
3 3 7 3 3 7 19 0 10 11 1 1 0 1 3 0 0 0 0 0 0 0 0 9 1 1 0 0 0 0 0 1 0 2 6 5 4 8 3 5 6 0 0 0 1

GFSSW_con_sbcape_039.txt.gz
CAPE
17 16 15 10 9 10 17 20 50 51 2 0 2 3 3 0 6 19 9 0 0 26 0 0 0 0 0 0 0 0 0 0 0 0 0 0 0 0 0 0 0 0 0 45 168
20 27 18 17 17 10 9 14 17 61 52 3 2 1 1 7 2 3 0 0 20 49 0 0 0 0 0 0 0 0 0 0 0 0 0 0 0 0 0 0 0 0 0 15 203
32 35 35 28 18 25 11 23 21 13 88 19 5 0 0 9 10 0 0 0 32 39 0 0 0 0 0 0 0 0 0 0 0 0 0 0 0 0 0 0 0 0 0 0 65
61 50 50 36 34 28 24 18 21 19 52 82 10 0 0 0 0 4 98 40 75 43 5 3 6 0 0 0 0 0 0 0 0 0 0 0 0 0 0 0 0 0 0 0 0
61 69 52 66 38 44 33 15 28 33 28 104 21 4 4 4 0 2 108 202 73 69 38 9 4 0 1 0 0 0 0 0 0 0 0 0 0 0 0 0 0 0 0 0 0
103 84 90 71 68 45 42 45 33 33 12 40 41 38 3 0 0 0 0 0 7 65 42 45 6 0 0 0 0 0 0 0 0 0 0 0 0 0 0 0 0 0 0 0 0
107 101 131 98 70 60 48 44 54 45 8 23 62 10 11 0 0 0 0 0 0 0 43 44 25 0 1 0 0 0 0 0 0 0 0 0 0 0 0 0 0 0 0 0 0
122 147 190 155 121 98 70 51 57 32 11 4 103 10 4 0 0 0 0 0 0 0 42 90 21 3 10 0 0 0 0 0 0 0 0 0 0 0 0 0 0 0 0 0 0
180 189 203 192 134 142 105 79 65 24 18 1 35 7 1 0 0 0 0 0 0 37 43 90 13 3 17 4 5 0 0 0 0 0 0 0 0 0 0 0 0 0 0 0 0
157 172 164 186 137 112 155 98 60 34 0 20 19 5 0 0 0 0 0 0 0 41 93 57 1 0 0 1 0 0 0 0 0 0 0 0 0 0 0 0 0 0 0 0 0
152 160 116 53 106 119 60 13 24 48 30 6 19 0 0 0 0 0 0 0 0 9 2 49 0 0 0 0 0 0 0 0 0 0 0 0 0 0 0 0 0 0 0 0 0
135 81 22 87 118 124 15 1 21 6 1 16 4 1 0 0 0 0 0 1 3 6 0 0 0 2 2 1 3 0 0 0 0 0 0 0 0 0 0 0 0 0 0 0 0
43 36 54 111 70 0 0 0 13 1 8 43 27 6 0 0 0 0 0 1 0 9 0 0 0 0 0 0 1 0 0 0 0 0 0 0 0 0 0 0 0 0 0 0 0
38 53 68 81 15 12 8 11 4 0 7 20 34 10 9 4 0 0 0 0 1 0 0 0 0 0 0 0 0 0 0 0 0 0 0 0 0 0 0 0 0 0 0 0 0
37 54 60 94 45 3 33 11 22 1 0 16 30 7 21 0 0 2 0 11 0 0 0 0 0 0 0 0 0 0 0 0 0 0 0 0 0 0 0 0 0 0 0 0 0
19 40 99 28 47 6 0 34 2 0 0 19 2 29 22 10 2 0 2 1 0 6 0 0 0 0 0 0 0 0 0 0 0 0 0 0 0 0 0 0 0 0 0 0 0
44 70 100 67 36 1 0 0 0 0 4 12 16 19 10 34 1 0 7 2 0 0 1 2 1 0 0 0 0 1 0 0 0 0 0 0 0 0 0 0 0 0 0 0 0
59 198 11 68 9 5 0 0 0 22 11 11 13 21 22 19 6 9 5 0 0 0 0 0 0 0 0 0 0 0 0 0 0 0 0 0 0 0 0 0 0 0 0 0 0
135 3 39 8 5 0 15 0 1 12 14 13 5 22 11 16 10 16 11 0 0 0 0 0 0 0 0 0 0 0 1 0 0 0 0 0 0 0 0 0 0 0 0 0 0
0 5 76 12 0 4 4 26 6 12 9 3 3 0 10 12 5 5 11 1 1 0 0 0 0 1 4 1 0 0 0 0 0 0 0 0 0 0 0 0 0 0 0 0 0
0 16 17 35 0 10 0 6 9 9 4 7 0 1 0 6 2 7 0 0 0 0 0 0 0 0 0 0 0 0 2 1 0 0 0 0 0 0 0 0 0 0 0 0 0
0 0 0 0 0 4 54 54 4 2 0 6 0 0 0 0 1 1 0 0 0 0 0 0 0 0 0 0 0 0 0 0 0 0 0 0 0 0 0 0 0 0 0 0 0
0 0 2 10 4 8 17 6 5 10 35 20 3 0 0 0 0 1 0 0 0 0 1 0 0 0 0 0 0 0 0 0 0 0 0 0 0 0 0 0 0 0 0 0 0
0 0 0 1 2 1 15 6 4 14 18 0 0 0 13 4 0 0 0 0 0 0 11 0 0 0 0 0 0 0 0 0 0 0 0 0 0 0 0 0 0 0 0 0 0
0 0 0 0 6 1 5 0 16 9 5 6 27 2 3 0 0 0 0 0 0 0 0 0 0 0 0 0 0 0 0 0 0 0 0 0 0 0 0 4 0 0 1 0 0
0 4 0 0 2 0 0 3 15 0 0 0 0 0 0 0 0 0 0 0 0 0 0 0 0 0 0 0 0 0 0 0 0 0 0 1 3 0 0 0 3 0 0 9 0
1 0 6 0 0 0 0 1 2 0 0 0 0 0 0 0 0 0 0 0 0 0 0 0 0 0 0 0 0 0 0 0 0 0 0 3 0 0 0 2 1 3 5 9 3

GFSSW_con_sbcape_042.txt.gz
CAPE
35 18 24 32 26 20 7 15 19 7 31 88 4 5 4 7 12 8 5 0 0 14 0 0 0 0 0 0 0 0 0 0 0 0 0 0 0 0 0 0 0 0 0 0 33
55 52 39 27 32 28 24 10 17 8 12 51 66 14 8 9 15 7 0 0 0 56 7 0 0 0 0 0 0 0 0 0 0 0 0 0 0 0 0 0 0 0 0 0 21
63 60 64 47 54 32 37 32 12 8 4 13 133 20 8 20 15 0 0 0 0 34 0 0 0 0 0 0 0 0 0 0 0 0 0 0 0 0 0 0 0 0 12 2 2
84 73 60 63 71 63 63 36 18 18 6 13 42 30 5 16 0 0 158 0 18 39 0 0 0 0 0 0 0 0 0 0 0 0 0 0 0 0 0 0 0 0 0 0 0
123 133 127 90 84 59 62 40 29 16 4 15 9 37 18 11 0 0 82 76 21 23 0 3 10 0 0 0 0 0 0 0 0 0 0 0 0 0 0 0 0 0 0 0 0
122 113 132 160 135 113 77 73 33 31 16 7 7 59 17 0 0 0 0 116 82 46 30 30 17 0 0 0 0 0 0 0 0 0 0 0 0 0 0 0 0 0 0 0 0
134 142 153 177 161 162 138 76 66 35 39 4 0 42 15 0 0 0 0 12 10 60 16 14 21 3 0 0 0 0 0 0 0 0 0 0 0 0 0 0 0 0 0 0 0
141 183 197 195 180 177 166 100 41 36 33 4 7 66 3 0 0 0 0 0 0 0 58 83 13 1 0 0 0 0 0 0 0 0 0 0 0 0 0 0 0 0 0 0 0
125 170 177 174 184 160 147 151 105 60 34 18 9 30 0 0 0 0 0 0 0 0 2 94 52 10 1 0 0 0 0 0 0 0 0 0 0 0 0 0 0 0 0 0 0
107 126 142 126 89 134 137 111 73 47 14 15 4 6 0 0 0 0 0 0 0 74 78 76 34 8 13 2 2 0 0 0 0 0 0 0 0 0 0 0 0 0 0 0 0
83 68 58 44 76 115 22 0 0 4 12 30 4 0 0 0 0 0 0 0 0 5 19 16 2 1 6 0 0 0 0 0 0 0 0 0 0 0 0 0 0 0 0 0 0
47 52 42 59 106 113 7 1 1 3 0 0 2 0 0 0 0 0 0 1 1 10 2 25 5 0 0 0 1 0 0 0 0 0 0 0 0 0 0 0 0 0 0 0 0
59 54 55 78 79 5 7 3 2 6 10 3 31 5 0 0 0 0 0 0 0 0 0 1 0 0 0 1 8 0 0 0 0 0 0 0 0 0 0 0 0 0 0 0 0
33 38 51 97 64 15 7 0 4 1 0 10 28 22 8 1 0 0 6 0 13 6 0 0 0 0 0 0 0 0 0 0 0 0 0 0 0 0 0 0 0 0 0 0 0
23 22 76 131 57 8 45 8 9 0 0 8 22 28 16 2 0 0 0 3 0 0 0 0 0 0 0 0 0 0 0 0 0 0 0 0 0 0 0 0 0 0 0 0 0
67 109 138 80 17 19 28 23 5 1 0 42 29 29 15 0 0 0 7 0 0 0 0 0 0 0 0 0 0 0 0 0 0 0 0 0 0 0 0 0 0 0 0 0 0
111 152 175 86 47 25 3 24 0 0 2 4 14 21 1 8 0 10 11 0 0 1 0 0 0 0 0 0 0 0 0 0 0 0 0 0 0 0 0 0 0 0 0 0 0
156 122 11 36 12 0 2 0 0 3 9 6 4 8 9 10 8 20 2 0 0 0 0 0 0 0 0 0 0 0 0 0 0 0 0 0 0 0 0 0 0 0 0 0 0
1 1 1 0 1 0 10 0 0 15 10 13 13 35 19 11 10 4 0 0 0 0 0 0 0 0 0 0 0 0 0 0 0 0 0 0 0 0 0 0 0 0 0 0 0
0 5 8 16 0 0 3 24 5 6 8 1 3 0 13 5 9 6 4 0 0 0 0 0 0 0 0 0 0 0 0 0 0 0 0 0 0 0 0 0 0 0 0 0 0
0 6 0 0 0 0 5 32 12 5 6 0 0 0 0 1 0 1 0 0 0 0 0 0 0 0 2 0 0 0 0 0 0 0 0 0 0 0 0 0 0 0 0 0 0
0 0 0 0 0 4 17 10 3 0 0 0 0 0 0 0 0 0 0 0 0 0 0 0 0 0 0 0 0 0 0 0 0 0 0 0 0 0 0 0 0 0 0 0 0
0 0 0 0 3 0 10 6 1 6 3 2 0 0 0 0 0 1 0 0 0 0 0 0 0 0 0 0 0 0 0 0 0 0 0 0 0 0 0 0 0 0 0 0 0
0 0 0 0 0 3 4 3 4 4 0 0 0 0 0 0 0 0 0 0 0 1 13 0 0 0 0 0 0 0 0 0 0 0 0 0 0 0 0 0 0 0 0 1 0
0 0 0 0 0 2 1 0 2 10 1 0 0 0 7 0 0 0 0 0 0 1 0 0 0 0 0 0 0 0 0 0 0 0 0 0 0 0 0 0 0 0 0 1 0
0 1 0 0 0 0 0 0 0 0 0 0 0 0 0 0 0 0 0 0 0 0 0 0 0 0 0 0 0 0 0 0 0 0 0 0 0 0 0 0 0 0 2 0 2
1 0 6 0 0 0 0 0 0 0 0 0 0 0 0 0 0 0 0 0 0 0 0 0 0 0 0 0 0 0 0 0 0 0 0 0 0 0 0 0 0 2 0 0 0

GFSSW_con_sbcape_045.txt.gz
CAPE
61 59 42 50 45 59 57 23 9 8 0 6 23 86 16 8 19 17 4 0 0 0 2 0 0 0 0 0 0 0 0 0 0 0 0 0 0 0 0 0 0 0 0 0 0
65 68 65 57 63 60 52 59 39 12 1 2 7 86 53 20 15 16 0 0 0 0 20 0 0 0 0 0 0 0 0 0 0 0 0 0 0 0 0 0 0 0 0 0 0
67 89 125 101 106 90 69 49 42 36 13 2 10 38 99 24 18 0 0 0 0 6 40 0 0 0 0 0 0 0 0 0 0 0 0 0 0 0 0 0 0 0 0 0 8
97 99 108 142 139 104 110 85 60 29 22 9 9 21 29 27 0 0 127 3 88 21 24 0 0 0 0 0 0 0 0 0 0 0 0 0 0 0 0 0 0 0 0 0 0
82 101 122 173 155 154 141 136 90 44 20 11 3 10 72 9 0 0 59 211 11 86 24 0 0 0 0 0 0 0 0 0 0 0 0 0 0 0 0 0 0 0 0 0 0
86 96 123 164 163 165 195 157 118 63 42 19 14 12 16 0 0 0 0 99 106 29 0 11 0 0 0 0 0 0 0 0 0 0 0 0 0 0 0 0 0 0 0 0 0
90 95 127 176 188 191 220 202 128 96 75 20 11 12 11 0 0 0 103 188 165 105 5 16 2 0 0 0 0 0 0 0 0 0 0 0 0 0 0 0 0 0 0 0 0
82 82 101 139 187 212 226 241 180 112 79 36 28 25 21 0 0 0 0 3 46 55 66 61 12 8 0 0 0 0 0 0 0 0 0 0 0 0 0 0 0 0 0 0 0
77 76 60 72 154 126 178 207 194 166 104 61 25 18 2 0 0 0 0 0 0 0 68 99 57 24 4 4 0 0 0 0 0 0 0 0 0 0 0 0 0 0 0 0 0
73 54 48 39 55 120 197 209 171 110 51 57 36 49 0 0 0 0 0 0 0 35 71 156 81 9 6 1 0 0 0 0 0 0 0 0 0 0 0 0 0 0 0 0 0
64 57 55 31 66 155 63 0 0 3 23 0 9 0 0 0 0 0 0 0 104 52 47 50 33 16 1 0 0 0 0 0 0 0 0 0 0 0 0 0 0 0 0 0 0
59 25 37 41 126 159 7 15 0 3 1 0 0 2 2 0 0 0 0 0 65 83 11 76 14 2 4 5 1 0 0 0 0 0 0 0 0 0 0 0 0 0 0 0 0
27 24 27 52 128 6 0 0 0 6 4 0 2 12 7 0 5 0 0 3 27 14 8 4 2 1 3 0 1 1 0 0 0 0 0 0 0 0 0 0 0 0 0 0 0
74 95 59 62 55 30 1 16 0 4 1 2 2 13 5 11 6 0 2 18 12 0 0 0 0 0 0 0 0 0 0 0 0 0 0 0 0 0 0 0 0 0 0 0 0
156 138 95 95 15 80 21 14 3 5 0 0 23 28 30 2 0 1 0 0 1 0 0 0 0 0 0 0 0 0 0 0 0 0 0 0 0 0 0 0 0 0 0 0 0
190 142 76 65 37 37 48 27 0 0 1 9 17 22 7 5 1 0 7 0 0 0 0 0 0 0 0 0 0 0 0 0 0 0 0 0 0 0 0 0 0 0 0 0 0
99 119 24 36 1 31 21 22 0 0 3 4 9 11 2 25 17 13 2 0 1 1 1 0 0 0 0 0 0 0 0 0 0 0 0 0 0 0 0 0 0 0 0 0 0
18 0 6 0 2 0 0 0 0 1 2 15 9 14 29 17 21 8 0 0 0 0 0 0 0 0 0 0 0 0 0 0 0 0 0 0 0 0 0 0 0 0 0 0 0
2 0 1 5 0 0 0 0 0 1 7 22 23 25 19 3 4 5 6 0 0 0 0 0 0 0 0 0 0 0 0 0 0 0 0 0 0 0 0 0 0 0 0 0 0
0 0 0 0 0 0 1 9 3 3 6 0 6 8 5 0 14 0 0 0 0 0 0 0 0 0 0 0 0 0 0 0 0 0 0 0 0 0 0 0 0 0 0 0 0
0 0 0 0 0 0 1 9 7 1 3 0 0 0 0 0 0 1 0 0 0 0 0 0 0 0 0 1 0 0 0 0 0 0 0 0 0 0 0 0 0 0 0 0 0
0 0 0 0 0 0 18 9 2 0 0 0 0 0 0 0 0 0 0 0 0 0 0 0 0 1 0 0 0 0 0 0 0 0 0 0 0 0 0 0 0 0 0 0 0
0 0 0 0 0 1 1 1 1 0 0 0 0 0 0 0 0 0 0 0 0 0 0 0 0 0 0 0 0 0 0 0 0 0 0 0 0 0 0 0 0 0 0 0 0
0 0 0 0 0 3 3 0 0 0 0 0 0 0 0 0 0 0 0 0 0 0 0 0 0 0 0 0 0 0 0 0 0 0 0 0 0 0 0 0 0 0 0 0 0
0 0 1 0 0 0 0 0 1 0 0 0 0 0 0 0 0 0 0 0 0 9 0 0 0 0 0 0 0 0 0 0 0 0 0 0 0 0 0 0 0 0 0 0 0
0 2 0 0 0 0 0 0 0 0 0 0 0 0 0 0 0 0 0 0 0 0 0 0 0 0 0 0 0 0 0 0 0 0 0 0 0 0 0 0 0 0 0 0 0
0 0 5 0 0 0 0 0 0 0 1 0 0 0 0 0 0 0 0 0 0 0 0 0 0 0 0 0 0 0 0 0 0 0 0 0 0 0 0 0 0 0 0 0 0

GFSSW_con_sbcape_048.txt.gz
CAPE
63 66 69 73 86 75 72 49 46 16 22 0 1 4 34 90 30 19 9 0 0 0 26 1 10 0 0 0 0 0 0 0 0 0 0 0 0 0 0 0 0 0 0 0 17
55 73 85 92 101 112 86 74 70 52 13 17 2 4 8 79 8 5 0 0 0 1 3 35 8 0 0 0 0 0 0 0 0 0 0 0 0 0 0 0 0 0 0 0 478
78 72 70 67 86 114 104 133 95 70 39 4 5 6 15 38 0 0 0 0 0 8 17 1 0 0 0 0 0 0 0 0 0 0 0 0 0 0 0 0 0 0 0 0 18
84 83 70 89 95 100 131 158 164 153 82 19 9 6 13 20 0 0 45 11 0 1 57 5 0 0 0 0 0 0 0 0 0 0 0 0 0 0 0 0 0 0 0 0 0
72 81 83 88 102 110 148 174 217 196 137 61 26 13 14 4 0 0 5 57 0 28 21 0 1 0 0 0 0 0 0 0 0 0 0 0 0 0 0 0 0 0 0 0 0
75 82 87 84 89 119 189 208 227 234 199 116 56 15 25 3 0 0 0 109 17 153 55 0 0 0 0 0 0 0 0 0 0 0 0 0 0 0 0 0 0 0 0 0 0
84 90 93 71 76 118 208 221 210 248 211 126 72 38 19 0 0 0 0 132 72 215 70 0 0 0 0 0 0 0 0 0 0 0 0 0 0 0 0 0 0 0 0 0 0
92 98 77 85 79 112 166 201 227 225 208 139 63 56 19 1 0 0 0 123 168 102 110 29 2 0 0 0 0 0 0 0 0 0 0 0 0 0 0 0 0 0 0 0 0
115 103 82 66 68 107 172 262 278 264 247 156 45 40 44 33 0 0 0 63 139 50 108 76 54 25 2 0 0 0 0 0 0 0 0 0 0 0 0 0 0 0 0 0 0
105 107 79 62 86 117 194 179 173 95 93 106 62 25 33 1 0 0 0 0 4 67 142 130 53 36 1 3 0 2 0 0 0 0 0 0 0 0 0 0 0 0 0 0 0
46 52 26 25 91 175 89 0 0 0 25 0 13 0 8 2 0 0 0 2 76 42 96 59 37 16 4 1 0 0 0 0 0 0 0 0 0 0 0 0 0 0 0 0 0
117 92 74 31 107 182 0 0 0 0 1 0 2 0 0 25 0 2 0 0 53 54 49 19 18 11 0 0 0 0 0 0 0 0 0 0 0 0 0 0 0 0 0 0 0
226 218 151 119 51 4 0 0 0 2 14 19 6 16 27 15 16 1 0 6 48 84 54 25 4 6 10 17 24 3 0 0 0 0 0 0 0 0 0 0 0 0 0 0 0
139 176 183 86 9 42 2 10 0 12 0 5 0 24 6 18 2 0 0 47 32 25 3 0 7 10 13 8 1 2 0 0 0 0 0 0 0 0 0 0 0 0 0 0 0
113 133 84 26 12 31 23 9 10 1 0 0 4 39 47 9 1 1 0 2 24 1 0 0 2 0 10 0 0 0 0 0 0 0 0 0 0 0 0 0 0 0 0 0 0
30 59 33 2 12 30 3 1 0 0 0 2 31 10 6 4 22 12 8 0 0 0 0 0 0 0 0 0 0 0 0 0 0 0 0 0 0 0 0 0 0 0 0 0 0
6 7 11 2 0 26 6 0 0 0 2 9 10 6 10 30 30 32 5 4 0 0 0 0 0 0 0 0 0 0 0 0 0 0 0 0 0 0 0 0 0 0 0 0 0
5 0 3 1 9 0 0 0 0 0 1 4 11 16 27 28 31 6 0 0 0 0 0 0 0 0 0 0 0 0 0 0 0 0 0 0 0 0 0 0 0 0 0 0 0
0 0 0 5 0 0 0 0 0 1 3 4 7 9 22 20 21 6 0 0 0 0 0 0 0 0 0 0 0 0 0 0 0 0 0 0 0 0 0 0 0 0 0 0 0
0 0 0 0 0 0 0 0 1 4 4 1 2 0 1 9 0 1 0 0 0 0 0 0 0 0 0 0 0 0 0 0 0 0 0 0 0 0 0 0 0 0 0 0 0
0 0 0 0 0 0 0 3 3 0 1 0 0 0 0 1 0 0 0 0 0 0 0 0 0 0 0 0 0 0 0 0 0 0 0 0 0 0 0 0 0 0 0 0 0
0 0 0 0 0 0 6 5 2 0 0 0 0 0 0 0 0 0 0 0 0 0 0 0 0 2 0 0 0 0 0 0 0 0 0 0 0 0 0 0 0 0 0 0 0
0 0 0 0 0 0 0 0 0 0 0 0 0 0 0 0 0 0 0 0 0 0 0 0 0 0 0 0 0 0 0 0 0 0 0 0 0 0 0 0 0 0 0 0 0
0 0 0 0 0 1 1 2 0 0 0 0 0 0 0 0 0 0 0 0 0 0 0 0 0 0 0 0 0 0 0 0 0 0 0 0 0 0 0 0 0 0 0 0 0
0 0 1 0 0 0 0 0 0 0 0 0 0 0 0 0 0 0 0 0 0 0 0 0 0 0 0 0 0 0 0 0 0 0 0 0 0 0 0 0 0 0 0 0 0
0 0 0 0 0 0 0 0 0 0 0 0 0 0 0 0 0 0 0 0 0 0 0 0 0 0 0 0 0 0 0 0 0 0 0 0 0 0 0 0 0 0 0 0 0
0 0 1 0 0 0 0 0 0 0 1 0 0 0 0 0 0 0 0 0 0 0 0 0 0 0 0 0 0 0 0 0 0 0 0 0 0 0 0 0 0 0 0 0 0

GFSSW_con_sbcape_051.txt.gz
CAPE
60 57 73 73 71 77 73 90 78 69 56 0 0 0 4 10 23 30 15 0 0 0 40 0 41 6 0 0 0 0 0 0 0 0 0 0 0 0 0 0 0 0 0 0 16
67 82 83 81 78 76 74 72 90 79 67 25 0 0 2 12 2 10 0 0 0 0 0 3 14 0 0 0 0 0 0 0 0 0 0 0 0 0 0 0 0 0 0 47 263
68 71 73 69 77 88 74 70 61 92 88 65 52 2 0 22 31 1 5 27 0 3 0 51 14 0 0 0 0 0 0 0 0 0 0 0 0 0 0 0 0 0 0 4 245
64 82 82 93 94 79 74 87 85 88 100 104 75 37 16 21 6 0 11 22 85 0 32 33 2 0 0 0 0 0 0 0 0 0 0 0 0 0 0 0 0 0 0 0 155
79 88 87 95 97 79 86 94 137 176 208 189 156 80 47 82 7 0 0 0 14 0 14 13 2 10 10 0 0 0 0 0 0 0 0 0 0 0 0 0 0 0 0 0 0
98 94 91 112 114 80 99 140 204 244 266 261 184 113 51 14 0 0 0 0 4 5 109 10 0 0 2 0 0 0 0 0 0 0 0 0 0 0 0 0 0 0 0 0 0
102 125 133 132 124 147 137 166 186 240 275 293 202 89 47 1 0 0 0 137 13 7 148 23 0 1 0 0 0 0 0 0 0 0 0 0 0 0 0 0 0 0 0 0 0
118 159 214 165 140 128 155 196 227 262 306 265 198 66 23 30 12 2 0 30 68 261 279 90 0 0 0 0 0 0 0 0 0 0 0 0 0 0 0 0 0 0 0 0 0
85 84 110 155 83 167 146 252 317 331 344 281 98 42 38 135 15 2 0 0 205 178 92 100 28 42 3 0 0 0 0 0 0 0 0 0 0 0 0 0 0 0 0 0 0
106 137 69 30 17 101 201 259 173 57 140 210 122 28 14 29 19 0 0 30 112 152 121 119 90 27 3 0 0 0 0 0 0 0 0 0 0 0 0 0 0 0 0 0 0
166 173 176 66 18 107 79 0 0 0 7 0 1 0 62 47 51 15 0 36 116 69 44 73 27 5 5 0 0 0 0 0 0 0 0 0 0 0 0 0 0 0 0 0 0
104 131 162 144 55 91 0 0 0 0 0 0 0 0 0 0 45 22 0 26 98 65 0 63 20 4 0 0 0 0 0 0 0 0 0 0 0 0 0 0 0 0 0 0 0
79 123 162 128 48 0 0 0 0 1 5 1 28 16 1 16 6 2 0 1 39 16 4 3 13 13 2 13 2 0 0 0 0 0 0 0 0 0 0 0 0 0 0 0 0
44 59 129 46 0 5 0 20 1 5 0 17 39 20 26 54 3 0 3 25 25 22 0 6 13 10 13 14 7 9 0 0 0 0 0 0 0 0 0 0 0 0 0 0 0
17 39 63 32 17 26 8 19 9 0 0 0 8 29 45 23 0 1 0 13 22 0 0 0 27 38 8 0 0 0 0 0 0 0 0 0 0 0 0 0 0 0 0 0 0
13 4 12 0 4 4 0 0 0 0 0 0 12 6 17 9 14 31 44 0 0 0 0 0 0 0 0 0 0 0 0 0 0 0 0 0 0 0 0 0 0 0 0 0 0
13 0 0 0 7 0 0 0 0 0 0 35 8 2 13 30 22 17 5 0 1 1 2 2 0 0 0 0 0 0 0 0 0 0 0 0 0 0 0 0 0 0 0 0 0
0 0 0 0 0 0 0 0 0 2 2 7 2 22 2 5 16 10 2 0 0 0 0 0 3 0 0 0 0 0 0 0 0 0 0 0 0 0 0 0 0 0 0 0 0
0 0 0 0 0 0 0 0 0 0 7 4 7 13 31 6 8 1 0 0 0 0 0 0 0 0 0 0 0 0 0 0 0 0 0 0 0 0 0 0 0 0 0 0 0
0 0 0 0 0 0 0 0 2 8 4 2 3 0 8 6 10 2 0 0 0 0 0 0 0 0 0 0 0 0 0 0 0 0 0 0 0 0 0 0 0 0 0 0 0
0 0 0 0 0 0 0 1 1 0 0 0 0 0 0 0 0 0 0 0 0 0 0 0 0 1 0 0 0 0 0 0 0 0 0 0 0 0 0 0 0 0 0 0 0
0 0 0 0 0 0 2 1 0 0 0 0 0 0 0 0 0 0 0 0 0 0 0 0 0 2 0 0 0 0 0 0 0 0 0 0 0 0 0 0 0 0 0 0 0
0 0 0 0 0 0 0 0 0 0 0 0 0 0 0 0 0 0 0 0 0 0 0 0 0 0 1 0 0 0 0 0 0 0 0 0 0 0 0 0 0 0 0 0 0
0 0 0 0 0 0 0 0 0 0 0 0 0 0 0 0 0 0 0 0 0 0 0 0 0 0 0 0 0 0 0 0 0 0 0 0 0 0 0 0 0 0 0 0 0
0 0 1 0 0 0 0 0 0 0 0 0 0 0 0 0 0 0 0 0 0 0 0 0 0 0 0 0 0 0 0 0 0 0 0 0 0 0 0 0 0 0 0 0 0
2 3 0 0 0 0 0 0 0 0 0 0 0 0 0 0 0 0 0 0 0 0 0 0 0 0 0 0 0 0 0 0 0 0 0 0 0 0 0 0 0 0 0 0 0
0 1 7 0 0 0 0 0 0 0 0 0 0 0 0 0 0 0 0 0 0 0 0 0 0 0 0 0 0 0 0 0 0 0 0 0 0 0 0 0 0 0 0 0 0

GFSSW_con_sbcape_054.txt.gz
CAPE
47 63 59 56 74 69 90 82 54 71 78 64 14 0 0 0 2 4 5 10 0 2 75 0 14 132 0 0 0 0 0 0 0 0 0 0 0 0 0 0 0 0 0 0 0
56 57 59 67 70 91 78 85 88 70 73 75 56 15 0 0 0 1 0 5 10 0 130 0 59 120 2 0 0 0 0 0 0 0 0 0 0 0 0 0 0 0 0 217 406
56 59 63 79 94 97 93 93 89 85 83 76 76 59 7 5 2 3 46 241 154 10 12 22 80 125 15 1 0 0 0 0 0 0 0 0 0 0 0 0 0 0 0 93 371
74 73 82 72 102 108 112 104 100 92 69 68 74 81 11 6 1 67 32 604 300 23 37 21 77 98 35 0 0 0 0 0 0 0 0 0 0 0 0 0 0 0 0 0 337
95 92 108 95 136 157 123 127 131 156 117 112 92 83 78 16 2 17 0 0 249 80 40 35 69 74 42 14 2 0 0 0 0 0 0 0 0 0 0 0 0 0 0 0 0
99 99 132 142 180 209 183 178 209 192 190 203 199 114 54 21 1 29 0 0 18 125 25 108 25 63 34 23 3 0 0 0 0 0 0 0 0 0 0 0 0 0 0 0 0
95 86 96 172 180 199 153 199 250 252 229 242 246 176 59 0 19 21 1 1 89 79 11 148 59 65 25 22 7 0 0 0 0 0 0 0 0 0 0 0 0 0 0 0 0
99 115 127 114 147 154 170 179 218 267 294 307 221 162 10 2 0 0 28 7 72 32 94 240 199 85 34 13 0 0 0 0 0 0 0 0 0 0 0 0 0 0 0 0 0
120 136 170 155 74 25 69 192 300 339 279 322 213 81 2 189 48 2 57 39 248 126 260 244 130 39 22 25 12 5 0 0 0 0 0 0 0 0 0 0 0 0 0 0 0
78 85 125 170 54 7 147 247 218 132 260 250 83 63 0 105 97 81 76 15 311 125 246 199 108 100 66 25 0 0 0 0 0 0 0 0 0 0 0 0 0 0 0 0 0
48 83 114 143 123 2 184 63 4 38 103 1 8 50 58 0 222 39 0 117 346 161 64 68 36 54 16 1 0 0 0 0 0 0 0 0 0 0 0 0 0 0 0 0 0
26 64 134 112 66 85 78 4 0 2 4 0 0 0 0 0 42 31 1 262 74 49 38 43 45 23 40 20 3 0 0 0 0 0 0 0 0 0 0 0 0 0 0 0 0
23 45 146 104 35 8 5 10 11 23 9 4 17 0 0 0 31 4 8 30 67 22 25 16 14 39 20 17 9 1 0 0 0 0 0 0 0 0 0 0 0 0 0 0 0
18 44 31 7 13 9 15 21 15 5 27 10 12 2 2 4 67 22 0 34 27 7 0 1 9 25 41 19 10 15 0 0 0 0 0 0 0 0 0 0 0 0 0 0 0
9 10 11 0 19 5 11 28 14 0 3 0 15 5 9 8 2 3 1 41 5 9 12 4 1 55 32 17 21 17 0 0 0 0 0 0 0 0 0 0 0 0 0 0 0
15 0 0 1 17 16 8 8 3 8 6 18 10 4 6 2 12 6 43 0 16 5 3 3 22 0 1 0 0 0 0 0 0 0 0 0 0 0 0 0 0 0 0 0 0
9 0 0 0 0 3 16 10 5 7 0 7 21 4 10 26 23 26 5 5 13 29 5 7 3 1 0 1 0 0 0 9 1 6 0 0 0 0 0 0 0 0 0 0 0
3 0 0 0 0 0 9 3 0 6 6 4 4 9 23 27 40 19 2 1 0 0 16 17 8 0 0 0 1 4 1 3 0 0 0 0 0 0 0 0 0 0 0 0 0
0 0 0 0 0 0 6 8 7 2 4 5 15 1 14 5 23 3 2 0 0 0 1 10 6 0 0 0 0 0 1 0 0 0 0 0 0 0 0 0 0 0 0 0 0
1 0 0 0 0 0 9 7 5 3 3 3 1 2 7 3 10 9 3 0 0 0 0 0 7 0 0 0 0 0 0 0 0 0 0 0 0 0 0 0 0 0 0 0 0
0 0 0 0 0 0 8 13 2 1 0 0 0 0 6 3 0 0 0 0 0 0 0 0 0 1 0 0 0 0 0 0 0 0 0 0 0 0 0 0 0 0 0 0 0
0 0 0 0 0 2 10 4 0 0 0 0 0 0 0 0 0 0 0 0 0 0 0 0 0 8 3 0 0 0 0 0 0 0 0 0 0 0 0 0 0 0 0 0 0
2 0 0 0 3 3 1 1 0 0 0 0 0 0 0 0 0 0 0 0 0 0 0 0 0 7 7 1 0 0 0 0 0 0 0 0 0 0 0 0 0 0 0 0 0
1 1 0 0 1 1 0 0 0 0 0 0 0 0 0 0 0 0 0 0 0 0 0 0 0 0 0 0 0 0 0 0 0 0 0 0 0 0 0 0 0 0 0 0 0
2 1 0 2 1 0 0 0 0 0 0 0 0 0 0 0 0 0 0 0 0 0 0 0 0 0 0 0 0 0 0 0 0 0 0 0 0 0 0 0 0 0 0 0 0
3 9 1 0 0 0 0 0 0 0 0 0 0 0 0 0 0 0 0 0 0 0 0 0 0 0 0 0 0 0 0 0 0 0 0 0 0 0 0 0 0 0 0 0 0
3 2 10 1 0 0 1 0 0 0 0 0 0 0 0 0 0 0 0 0 0 0 0 0 0 0 0 0 0 0 0 0 0 0 0 0 0 0 0 0 0 0 0 0 0

GFSSW_con_sbcape_057.txt.gz
CAPE
64 57 67 57 56 67 74 73 88 78 81 79 81 72 2 0 0 0 1 33 12 40 91 0 0 162 25 0 0 0 18 30 9 2 0 5 0 0 0 0 0 0 0 0 70
61 64 64 60 56 70 68 57 74 83 91 97 95 85 52 0 0 0 0 43 84 7 78 0 14 173 29 0 0 0 5 0 0 0 1 3 0 0 0 0 0 0 0 64 139
56 70 71 70 63 58 69 90 122 127 127 103 113 85 84 3 6 0 0 15 331 86 64 10 31 247 46 4 0 0 0 0 0 0 0 0 0 0 0 0 0 0 0 0 192
41 70 71 74 74 73 72 114 133 192 179 157 131 90 87 33 4 22 0 119 457 202 63 27 16 153 92 9 0 0 0 0 0 0 0 0 0 0 0 0 0 0 0 0 118
69 71 73 75 94 120 137 168 209 254 269 218 161 107 66 48 2 9 110 306 459 233 11 45 11 34 55 28 0 0 0 0 0 0 0 0 0 0 0 0 0 0 0 0 0
76 77 78 95 118 132 186 197 247 259 233 202 182 133 48 38 0 0 33 9 373 203 7 41 7 27 53 42 9 0 1 0 0 0 0 0 0 0 0 0 0 0 0 0 0
88 99 116 149 166 125 163 200 223 254 255 240 165 162 66 2 2 201 20 9 10 313 13 20 24 66 38 23 41 8 2 4 0 0 0 0 0 0 0 0 0 0 0 0 0
98 94 114 176 203 96 98 92 227 245 313 301 238 161 38 11 0 0 8 27 1 259 72 47 171 102 55 33 40 25 10 5 0 0 0 0 0 0 0 0 0 0 0 0 0
76 66 130 189 197 89 7 64 210 338 354 310 256 157 16 104 0 0 21 54 42 333 64 108 284 138 126 51 52 41 0 0 0 0 0 0 0 0 0 0 0 0 0 0 0
48 99 180 162 155 0 1 179 210 186 282 234 183 73 4 4 84 12 44 68 99 178 100 133 137 91 76 83 31 0 0 0 0 0 0 0 0 0 0 0 0 0 0 0 0
41 72 163 118 92 0 127 172 146 216 170 82 42 13 29 1 50 0 213 128 247 116 37 190 109 70 14 0 0 0 0 0 0 0 0 0 0 0 0 0 0 0 0 0 0
42 46 72 46 22 48 107 73 38 36 35 0 0 2 0 19 3 86 70 50 288 40 41 224 0 28 34 24 17 0 0 0 0 0 0 0 0 0 0 0 0 0 0 0 0
44 30 5 32 15 50 61 7 2 20 41 21 35 13 0 13 15 92 62 38 61 15 42 17 9 0 13 22 19 6 0 0 0 0 0 0 0 0 0 0 0 0 0 0 0
28 23 3 0 13 30 7 3 13 11 60 4 14 19 8 6 1 0 24 7 2 40 46 2 24 10 16 30 14 23 0 0 0 0 0 0 0 0 0 0 0 0 0 0 0
10 21 0 0 9 4 8 8 25 9 18 0 1 0 0 42 13 11 1 24 1 3 0 7 2 29 16 21 23 31 7 1 0 0 0 0 0 0 0 0 0 0 0 0 0
10 5 1 18 8 1 2 10 4 19 9 11 16 10 26 14 23 31 47 0 2 0 2 6 0 1 7 0 37 26 0 0 0 0 1 0 0 0 0 0 0 0 0 0 0
9 4 3 0 12 10 17 19 8 15 5 26 11 17 23 29 38 11 14 8 6 4 4 3 3 5 0 0 0 23 42 27 21 14 4 0 0 0 0 0 0 0 0 0 0
7 0 0 1 8 16 8 6 9 11 10 4 4 12 10 21 22 4 17 15 28 7 14 38 18 5 7 0 3 4 47 71 13 10 0 0 0 0 0 0 0 0 0 0 0
0 0 0 4 3 10 4 12 3 6 6 3 12 9 12 16 14 1 16 13 5 6 4 12 20 9 4 7 1 9 3 0 0 0 0 0 0 0 0 0 0 0 0 0 0
1 0 0 0 1 5 13 1 7 1 2 1 1 1 2 5 7 4 12 0 0 0 0 0 9 1 1 9 0 2 0 0 0 0 0 0 0 0 0 0 0 0 0 0 0
0 0 0 0 0 7 18 8 5 4 2 3 2 5 3 7 5 1 1 0 0 0 0 0 0 1 0 1 1 0 0 0 0 0 0 0 0 0 0 0 0 0 0 0 0
4 7 0 0 7 10 11 2 0 8 1 0 4 6 10 8 7 1 2 3 0 0 0 0 2 10 5 0 0 0 4 0 0 0 0 0 0 0 0 0 0 0 0 0 0
2 0 0 0 2 6 0 1 0 1 0 0 0 0 0 0 1 0 0 0 0 0 0 0 0 5 3 0 0 0 0 0 0 0 0 0 0 0 0 0 0 0 0 0 0
4 1 0 6 2 15 3 0 0 0 0 0 0 0 0 0 0 0 0 0 0 0 0 0 0 0 0 0 0 0 0 0 0 0 0 0 0 0 0 0 0 0 0 0 0
5 1 2 10 16 9 6 1 0 0 0 0 0 0 0 0 0 0 0 0 0 0 0 0 0 0 0 0 0 0 0 0 0 0 0 0 0 0 0 0 0 0 0 0 0
2 8 6 2 1 1 6 9 2 0 0 0 0 0 0 0 0 0 0 0 0 0 0 0 0 0 0 0 0 0 0 0 0 0 0 0 0 0 0 0 0 0 0 0 0
3 11 14 2 3 4 7 21 14 0 0 0 0 0 0 0 0 0 0 0 0 0 0 1 0 0 1 0 0 0 0 0 0 0 0 0 0 0 0 0 0 0 0 0 0

GFSSW_con_sbcape_060.txt.gz
CAPE
60 57 63 67 65 55 58 59 66 70 72 68 68 69 68 26 0 0 1 6 36 77 16 0 0 9 237 102 2 0 0 6 0 5 0 3 0 0 0 0 0 0 31 71 832
54 51 60 63 70 68 61 62 61 63 72 74 82 78 74 81 3 0 0 4 182 195 8 0 0 37 267 24 2 0 0 0 0 0 0 0 0 0 0 0 0 0 0 32 582
43 51 65 76 82 80 85 76 66 58 64 91 132 125 102 53 27 0 0 5 86 234 0 22 0 224 222 17 0 0 0 0 0 0 0 0 0 0 0 0 0 0 0 70 247
77 78 81 80 88 98 103 113 111 92 102 153 180 174 134 68 20 24 25 4 170 258 40 57 0 55 150 11 0 0 0 0 1 0 0 0 0 0 0 0 0 0 0 0 102
86 88 104 121 192 182 171 174 201 175 178 215 250 211 131 60 2 0 175 27 158 373 24 60 0 44 37 5 0 0 0 0 0 0 0 0 0 0 0 0 0 0 0 0 0
71 113 121 164 229 228 228 184 218 229 219 211 172 164 74 2 1 9 15 64 99 211 82 34 0 17 14 64 2 0 0 0 0 0 0 0 0 0 0 0 0 0 0 0 0
77 105 146 152 191 242 227 149 202 244 235 206 212 69 22 1 25 286 115 1 3 164 130 9 5 10 38 46 39 4 5 0 1 0 0 0 0 0 0 0 0 0 0 0 0
79 73 111 151 183 191 103 90 100 226 236 319 249 140 8 0 0 0 29 2 2 0 109 9 18 13 81 82 32 36 6 5 0 0 0 0 0 0 0 0 0 0 0 0 0
63 47 83 149 146 82 16 1 140 239 341 352 228 119 7 111 0 0 0 0 5 0 189 202 160 88 47 38 31 31 0 1 0 0 0 0 0 0 0 0 0 0 0 0 0
43 41 66 87 49 1 2 75 215 234 313 209 174 73 10 19 60 17 0 17 7 96 207 170 147 62 48 47 11 1 0 0 0 0 0 0 0 0 0 0 0 0 0 0 0
24 34 18 26 23 0 137 260 161 226 152 107 35 14 14 0 176 57 51 0 6 187 20 23 44 0 0 0 0 0 0 0 0 0 0 0 0 0 0 0 0 0 0 0 0
16 30 12 8 12 39 67 8 24 10 4 6 0 0 10 0 1 30 74 29 10 39 48 55 4 0 0 0 3 5 0 0 0 0 0 0 0 0 0 0 0 0 0 0 0
16 12 15 0 4 36 10 5 1 16 2 17 33 15 2 0 1 9 26 37 21 16 1 10 9 11 23 12 21 0 0 0 0 0 0 0 0 0 0 0 0 0 0 0 0
5 7 12 0 5 8 5 0 10 10 15 14 14 24 17 0 0 50 73 56 49 11 62 32 8 0 19 14 11 14 0 3 3 0 0 0 0 0 0 0 0 0 0 0 0
4 6 4 2 20 7 2 0 26 7 1 0 1 0 15 3 1 12 17 20 6 8 0 0 2 8 4 7 33 14 10 4 0 0 0 0 0 0 0 0 0 0 0 0 0
8 6 1 9 19 1 12 24 11 5 1 3 2 1 13 2 12 6 23 1 5 0 0 2 0 2 4 5 1 29 12 0 0 0 1 0 0 0 0 0 0 0 0 0 0
8 5 1 0 9 8 12 11 2 2 0 3 4 12 9 6 2 0 2 11 5 1 1 1 2 0 0 13 5 5 1 8 30 8 0 0 0 0 0 0 0 0 0 0 0
2 0 0 0 4 2 0 4 0 3 5 5 0 3 5 6 8 13 26 18 12 0 3 4 3 2 0 1 0 13 1 15 0 1 0 0 0 0 0 0 0 0 0 0 0
0 0 0 2 0 0 3 2 1 0 1 3 16 8 4 0 0 15 7 1 14 1 9 19 11 7 9 0 0 0 1 0 0 0 0 0 0 0 0 0 0 0 0 0 0
3 0 0 0 0 0 5 0 4 0 0 1 9 7 1 1 0 3 0 0 0 0 0 0 7 8 10 0 0 0 0 0 0 0 0 0 0 0 0 0 0 0 0 0 0
0 0 0 0 0 0 0 2 1 1 1 0 3 1 0 0 8 1 1 0 0 0 0 0 0 13 6 6 7 4 5 0 0 0 0 0 0 0 0 0 0 0 0 0 0
0 0 0 0 0 17 2 0 0 2 1 0 0 2 8 0 2 0 0 0 0 0 0 0 0 3 0 0 0 0 0 0 0 0 0 0 0 0 0 0 0 0 0 0 0
1 0 0 0 3 5 0 0 0 0 0 0 0 0 0 2 0 0 0 0 0 0 0 0 0 0 0 0 0 0 0 0 0 0 0 0 0 0 0 0 0 0 0 0 0
0 0 0 10 1 4 4 1 3 0 0 0 0 0 0 0 0 0 0 0 0 0 0 0 0 0 0 0 0 0 0 0 0 0 0 0 0 0 0 0 0 0 0 0 0
0 1 3 0 5 0 4 4 3 2 0 0 0 0 0 0 0 0 0 0 0 0 0 0 0 0 0 0 0 0 0 0 0 0 0 0 0 0 0 0 0 0 0 0 0
0 11 2 1 0 0 1 6 2 7 0 0 0 0 0 0 0 0 0 0 0 0 0 0 0 0 0 0 0 0 0 0 0 0 0 0 0 0 0 0 0 0 0 0 0
0 1 14 0 0 3 4 11 9 4 0 0 0 0 0 0 0 0 0 0 0 0 0 0 0 0 0 0 0 0 0 0 0 0 0 0 0 0 0 0 0 0 0 0 0

GFSSW_con_sbcape_063.txt.gz
CAPE
26 51 40 56 83 94 96 91 79 74 58 40 55 63 65 71 30 0 0 0 26 138 2 0 0 9 30 161 9 10 6 14 0 0 0 0 0 0 0 0 0 0 33 647 704
55 62 72 79 88 100 109 90 89 64 54 66 66 68 71 58 34 0 0 0 32 200 36 0 0 2 137 159 40 17 3 6 0 0 0 0 0 0 0 0 0 2 655 737 736
61 70 87 108 148 182 179 144 129 85 61 52 76 91 76 60 28 0 13 0 8 136 58 4 0 13 208 46 30 1 0 0 0 0 0 0 0 0 0 0 0 2 294 469 579
57 64 108 126 147 233 218 215 194 165 89 90 100 123 102 59 4 8 27 59 2 7 101 12 0 75 140 41 30 0 0 0 12 0 0 0 0 0 0 0 0 0 6 106 192
41 78 79 117 118 158 196 215 192 181 158 129 110 114 62 26 0 1 23 25 0 103 63 32 0 88 74 47 9 0 0 0 0 0 0 0 0 0 0 0 0 0 0 0 80
48 43 63 100 142 151 200 226 132 148 174 164 141 95 62 9 1 4 20 3 40 131 81 50 1 0 78 65 10 0 0 0 3 0 0 0 0 0 0 0 0 0 0 0 0
46 23 37 51 139 140 166 103 107 132 191 205 179 45 55 18 0 37 69 73 63 78 113 24 11 9 2 18 17 0 21 7 0 0 0 0 0 0 0 0 0 0 0 0 0
35 24 33 51 50 44 40 27 34 106 177 218 232 138 19 0 0 0 2 10 70 10 73 123 8 0 3 16 15 37 0 16 0 0 0 0 0 0 0 0 0 0 0 0 0
31 37 26 31 1 7 5 0 36 152 239 317 208 99 0 85 11 0 0 0 49 1 0 126 30 19 0 18 13 25 0 0 0 0 0 0 0 0 0 0 0 0 0 0 0
23 21 10 13 2 0 0 54 112 118 165 180 172 34 8 9 5 8 0 88 63 38 59 120 58 14 27 0 3 0 0 0 0 0 0 0 0 0 0 0 0 0 0 0 0
19 14 22 0 0 0 0 0 0 0 30 31 18 0 6 0 45 106 42 19 29 3 165 64 39 0 0 0 0 0 0 0 0 0 0 0 0 0 0 0 0 0 0 0 0
5 13 12 3 8 14 1 0 1 0 0 0 28 0 2 0 0 51 1 0 6 2 17 46 7 0 0 0 0 0 0 0 0 0 0 0 0 0 0 0 0 0 0 0 0
7 13 8 3 7 2 0 0 0 2 7 3 15 30 1 0 1 34 0 1 1 7 17 4 4 0 0 0 0 0 0 0 0 0 0 0 0 0 0 0 0 0 0 0 0
16 11 6 4 0 0 0 0 0 2 9 19 14 25 18 0 4 16 0 3 1 13 2 5 2 3 8 0 0 0 0 0 0 0 0 0 0 0 0 0 0 0 0 0 0
14 4 5 5 0 0 0 0 0 0 0 1 2 1 3 0 8 13 12 24 0 7 0 8 1 11 24 13 8 0 0 2 0 0 0 0 0 0 0 0 0 0 0 0 0
5 4 2 0 1 1 3 0 0 0 0 1 3 7 4 2 16 15 40 55 2 3 0 3 0 3 0 0 2 4 0 0 0 0 1 0 0 0 0 0 0 0 0 0 0
3 5 2 0 0 0 1 0 0 0 0 3 3 5 2 6 1 4 13 3 0 0 1 6 2 0 0 0 0 7 0 1 5 7 0 0 0 0 0 0 0 0 0 0 0
0 0 0 0 0 0 0 0 0 0 1 0 0 0 2 6 3 13 18 6 0 0 0 0 11 2 0 0 2 14 0 0 0 0 0 0 0 0 0 0 0 0 0 0 0
0 0 0 0 0 0 0 0 0 0 0 2 0 0 0 5 6 4 0 0 0 0 0 0 1 4 0 5 0 1 1 0 0 0 0 0 0 0 0 0 0 0 0 0 0
0 0 0 0 0 0 0 0 0 0 0 0 1 0 0 0 0 4 0 0 0 0 0 0 2 8 6 5 0 0 0 0 0 0 0 0 0 0 0 0 0 0 0 0 0
0 0 0 0 0 0 0 0 0 0 0 0 0 0 0 0 0 0 0 0 0 0 0 0 0 15 9 6 3 0 0 0 0 0 0 0 0 0 0 0 0 0 0 0 0
0 0 0 0 0 0 0 0 0 0 0 0 0 1 0 0 0 0 0 0 0 0 0 0 0 0 7 0 0 0 0 0 0 0 0 0 0 0 0 0 0 0 0 0 0
0 0 0 0 0 0 0 0 0 0 0 0 0 0 0 0 0 0 0 0 0 0 0 0 0 0 0 0 0 1 0 0 0 0 0 0 0 0 0 0 0 0 0 0 0
0 0 0 0 0 1 0 0 6 0 0 0 0 0 0 0 0 0 0 0 0 0 0 0 0 0 0 0 0 0 0 0 0 0 0 0 0 0 0 0 0 0 0 0 0
0 0 1 0 0 0 0 2 0 2 0 0 0 0 0 0 0 0 0 0 0 0 0 0 0 0 0 0 0 0 0 0 0 0 0 0 0 0 0 0 0 0 0 0 0
0 0 0 0 0 0 0 3 5 12 0 0 0 0 0 0 0 0 0 0 0 0 0 0 0 0 0 0 0 0 0 0 0 0 0 0 0 0 0 0 0 0 0 0 0
0 0 2 0 0 0 0 0 1 6 1 0 0 0 0 0 0 0 0 0 0 0 0 0 0 0 0 0 0 0 0 0 0 0 0 0 0 0 0 0 0 0 0 0 0

GFSSW_con_sbcape_066.txt.gz
CAPE
30 52 56 61 85 116 149 161 153 122 81 39 11 27 57 59 56 7 0 0 6 34 219 0 0 2 11 56 19 41 23 1 0 0 0 0 0 0 0 0 0 5 126 437 524
36 38 56 83 99 150 218 171 181 156 107 47 24 21 45 54 28 1 0 0 6 73 52 0 0 21 92 175 3 9 49 9 0 0 0 0 0 0 0 3 62 815 710 627 440
42 40 69 85 107 124 200 231 184 181 125 79 69 50 49 50 20 0 8 53 23 23 55 0 0 50 203 78 8 1 0 0 0 0 0 0 0 0 0 0 9 651 829 571 381
35 32 42 51 71 121 146 187 212 185 157 103 114 117 92 21 0 11 1 73 69 12 46 33 0 41 166 70 7 0 0 0 0 0 0 0 0 0 0 0 0 122 449 395 319
31 42 34 35 59 116 112 184 149 153 156 120 89 78 22 0 0 0 14 0 0 8 11 44 0 8 55 20 33 4 0 0 9 24 1 0 0 0 0 0 0 12 127 338 280
29 43 30 31 31 78 115 115 72 82 115 70 109 124 15 0 0 0 0 8 0 0 3 42 12 0 48 55 53 6 26 22 0 0 11 8 0 0 0 0 0 0 0 0 66
24 34 24 16 12 43 57 62 80 104 142 202 234 35 32 0 0 0 0 0 30 3 61 36 8 19 5 34 29 13 69 37 0 0 0 0 0 0 0 0 0 0 0 0 0
21 35 31 13 12 3 2 1 1 54 119 181 244 139 0 2 0 0 0 0 39 87 82 84 39 18 2 10 18 34 39 36 0 0 0 0 0 0 0 0 0 0 0 0 0
21 29 25 13 14 0 3 0 0 34 107 220 123 32 0 16 50 3 0 0 65 47 74 103 6 1 2 11 26 26 7 0 0 0 0 0 0 0 0 0 0 0 0 0 0
7 11 21 17 4 16 64 36 17 15 53 124 121 7 0 0 0 7 0 64 32 39 100 83 70 2 5 4 5 0 0 0 0 0 0 0 0 0 0 0 0 0 0 0 0
17 9 6 11 8 15 2 0 0 0 0 0 0 0 0 0 0 115 62 2 0 6 19 59 25 0 0 0 0 0 0 0 0 0 0 0 0 0 0 0 0 0 0 0 0
17 7 8 3 8 11 0 0 0 0 0 0 0 5 0 0 0 69 2 0 1 10 14 45 0 0 0 0 0 0 0 0 0 0 0 0 0 0 0 0 0 0 0 0 0
15 6 8 4 1 0 0 0 0 0 0 0 4 17 5 1 3 50 6 22 5 6 3 0 0 0 0 1 0 0 0 0 0 0 0 0 0 0 0 0 0 0 0 0 0
12 13 7 5 0 0 0 0 0 0 1 6 14 6 10 0 8 13 2 0 2 5 1 22 0 0 0 0 0 0 0 0 0 0 0 0 0 0 0 0 0 0 0 0 0
6 10 6 6 0 2 0 0 0 0 0 7 9 0 7 5 17 0 0 0 6 5 7 3 0 0 0 0 0 0 0 0 0 0 0 0 0 0 0 0 0 0 0 0 0
3 7 1 0 0 2 0 0 2 0 0 1 0 10 3 3 1 0 53 11 17 24 1 1 0 0 1 0 11 3 0 0 0 0 0 0 0 0 0 0 0 0 0 0 0
0 2 1 0 0 0 0 0 0 0 0 9 5 4 12 5 11 10 1 1 21 0 0 1 1 0 0 0 9 5 0 0 3 0 0 0 0 0 0 0 0 0 0 0 0
0 0 0 0 0 0 0 0 0 0 0 1 2 8 2 14 18 12 10 7 0 0 0 0 41 1 0 0 12 15 0 0 0 0 0 0 0 0 0 0 0 0 0 0 0
0 0 0 0 0 0 0 0 0 0 0 0 0 0 8 9 9 20 0 0 0 0 0 0 2 2 0 0 0 1 1 0 0 0 0 0 0 0 0 0 0 0 0 0 0
0 0 0 0 0 0 0 0 0 0 0 0 0 0 1 0 3 0 0 0 0 0 0 0 2 1 1 1 0 0 0 0 0 0 0 0 0 0 0 0 0 0 0 0 0
0 0 0 0 0 0 0 0 0 0 0 0 0 0 0 0 0 0 0 0 0 0 0 0 0 6 11 8 8 3 0 0 0 0 0 0 0 0 0 0 0 0 0 0 0
0 0 0 0 0 0 0 0 0 0 0 0 0 0 0 0 0 0 0 0 0 0 0 0 0 7 3 2 0 0 0 0 0 0 0 0 0 0 0 0 0 0 0 0 0
0 0 0 0 0 0 0 0 0 0 0 0 0 0 0 0 0 0 0 0 0 0 0 0 0 0 0 0 0 3 0 0 0 0 0 0 0 0 0 0 0 0 0 0 0
0 0 0 0 0 0 0 0 0 0 0 0 0 0 0 0 0 0 0 0 0 0 0 0 0 0 0 0 0 0 0 0 0 0 0 0 0 0 0 0 0 0 0 0 0
0 0 0 0 0 0 0 0 3 2 0 0 0 0 0 0 0 0 0 0 0 0 0 0 0 0 0 0 0 0 0 0 0 0 0 0 0 0 0 0 0 0 0 0 0
0 0 0 0 0 0 0 0 10 5 0 0 0 0 0 0 0 0 0 0 0 0 0 0 0 0 0 0 0 0 0 0 0 0 0 0 0 0 0 0 0 0 0 0 0
0 0 0 0 0 0 0 0 0 5 2 0 0 0 0 0 0 0 0 0 0 0 0 0 0 0 0 0 0 0 0 0 0 0 0 0 0 0 0 0 0 0 0 0 0

GFSSW_con_sbcape_069.txt.gz
CAPE
45 50 53 60 71 64 88 153 191 172 161 98 24 28 32 51 68 29 3 0 1 25 77 0 0 11 45 29 114 42 19 2 0 0 0 0 0 0 0 0 5 95 244 402 309
41 43 49 26 39 58 43 80 160 155 181 163 41 17 37 51 26 15 2 26 22 32 62 0 0 35 173 83 103 37 34 0 0 0 0 0 0 0 0 0 326 716 586 488 397
54 55 31 36 48 53 39 47 90 118 161 147 79 49 33 27 0 0 20 84 72 21 0 5 0 0 211 115 17 7 12 0 0 0 0 0 0 0 0 0 23 888 801 476 382
56 59 21 24 36 40 25 28 54 57 102 98 86 88 44 10 0 1 14 73 167 51 0 45 4 9 63 38 2 5 0 0 0 5 0 0 0 0 0 0 0 12 468 387 443
49 41 20 16 26 42 35 48 44 62 88 38 48 57 6 0 0 0 0 0 0 0 0 11 3 2 16 25 47 0 0 0 13 1 0 0 0 0 0 0 0 62 297 237 295
41 38 42 21 19 21 38 39 53 106 136 54 61 59 0 0 0 0 0 0 0 10 0 8 0 0 12 39 81 9 0 0 7 0 0 0 0 0 0 0 0 148 304 187 114
37 28 32 16 14 8 5 13 50 94 154 209 187 12 0 0 0 0 0 0 0 12 15 14 10 0 1 30 30 8 5 3 0 0 9 5 0 0 0 0 0 0 3 4 51
17 26 23 34 7 11 8 0 0 13 92 220 265 89 0 0 0 0 0 0 0 26 46 71 61 0 1 2 2 22 6 2 0 26 0 19 3 0 0 0 0 0 0 0 0
12 8 21 20 28 3 20 54 0 13 56 178 55 5 0 1 16 0 2 1 0 44 83 108 132 0 0 6 5 26 0 0 0 11 7 0 0 0 0 0 0 0 0 0 0
13 7 15 14 20 16 27 18 0 4 25 112 96 1 0 0 0 0 1 1 29 0 118 117 138 1 0 7 1 0 0 0 0 0 1 0 0 0 0 0 0 0 0 0 0
11 11 11 8 15 19 0 0 0 0 0 0 0 0 0 0 0 59 49 24 1 0 44 80 4 0 0 0 0 0 0 0 0 0 0 0 0 0 0 0 0 0 0 0 0
12 12 4 9 6 17 0 0 0 0 0 0 0 0 0 1 0 37 38 3 0 5 6 124 1 0 0 0 0 0 0 0 0 0 1 0 1 0 0 0 0 0 0 0 0
16 11 5 6 3 0 0 0 0 0 0 0 1 1 0 0 3 14 20 1 0 7 5 5 3 1 0 2 1 0 0 0 0 0 0 0 1 0 0 0 0 0 0 0 0
14 13 5 1 0 0 0 0 0 0 1 7 15 1 5 3 9 26 1 36 13 4 6 10 0 0 0 7 0 0 0 0 0 0 0 0 0 0 0 0 0 0 0 0 0
14 11 7 0 0 1 0 0 0 0 0 10 9 3 1 14 23 2 0 16 0 7 5 3 0 0 0 0 0 0 0 0 0 0 0 0 0 0 0 0 0 0 0 0 0
8 6 1 0 0 2 0 0 0 0 0 1 3 21 26 21 2 0 9 6 21 8 5 4 0 0 0 0 0 0 0 0 0 0 0 0 0 0 0 0 0 0 0 0 0
5 3 0 0 0 1 1 0 0 0 0 3 7 5 1 7 16 17 15 9 7 0 0 6 0 0 0 12 0 0 0 1 6 1 0 0 0 0 0 0 0 0 0 0 0
2 0 0 0 0 0 0 0 0 0 0 0 4 4 13 14 11 6 3 7 0 4 0 0 9 0 0 0 1 0 0 0 0 0 0 0 0 0 0 0 0 0 0 0 0
0 0 0 0 0 0 0 0 0 0 0 0 0 9 2 4 12 13 6 5 0 0 0 0 3 1 1 0 0 1 0 0 0 0 0 0 0 0 0 0 0 0 0 0 0
0 0 0 0 0 0 0 0 0 0 0 0 0 0 3 3 2 0 0 6 1 0 0 0 1 0 1 0 0 0 0 0 0 0 0 0 0 0 0 0 0 0 0 0 0
0 0 0 0 0 0 0 0 0 0 0 0 0 0 0 0 0 0 0 0 0 0 0 0 0 0 12 15 5 6 0 0 0 0 0 0 0 0 0 0 0 0 0 0 0
0 0 0 0 0 0 0 0 0 0 0 0 0 0 0 0 0 0 0 0 0 0 0 0 0 1 5 0 1 5 2 0 0 0 0 0 0 0 0 0 0 0 0 0 0
0 0 0 0 0 0 0 0 0 0 0 0 0 0 0 0 0 0 0 0 0 0 0 0 0 0 0 0 3 12 2 0 0 0 0 0 0 0 0 0 0 0 0 0 0
0 0 0 0 0 0 0 0 0 0 0 0 0 0 0 0 0 0 0 0 0 0 0 0 0 0 0 0 0 1 7 0 0 0 0 0 0 0 0 0 0 0 0 0 0
0 0 0 0 0 0 0 0 0 0 0 0 0 0 0 0 0 0 0 0 0 0 0 0 0 0 0 0 0 0 0 0 0 0 0 0 0 0 0 0 0 0 0 0 0
0 0 0 0 0 0 0 0 0 0 0 0 0 0 0 0 0 0 0 0 0 0 0 0 0 0 0 0 0 0 0 0 0 0 0 0 0 0 0 0 0 0 0 0 0
0 0 0 0 0 0 0 0 0 0 5 0 0 0 0 0 0 0 0 0 0 0 0 0 0 0 0 0 0 0 0 0 0 0 0 0 0 0 0 0 0 0 0 0 0

GFSSW_con_sbcape_072.txt.gz
CAPE
54 58 50 36 38 54 43 59 60 100 128 132 93 59 82 83 84 53 30 0 0 7 65 0 0 0 82 27 89 36 17 0 0 0 0 0 0 0 0 0 0 296 165 204 240
37 39 44 42 37 37 48 49 48 85 139 164 90 67 51 71 21 13 22 81 125 26 27 2 0 0 83 18 117 70 0 0 0 0 0 0 0 0 0 0 97 297 434 352 651
30 48 40 34 31 33 32 26 38 51 54 145 108 48 66 29 0 0 25 62 116 87 20 30 0 0 46 18 23 56 0 0 0 7 0 0 0 0 0 0 0 0 68 441 690
29 31 46 13 17 31 22 30 22 3 24 75 85 93 91 0 0 0 90 102 96 56 1 54 15 0 22 33 5 36 1 0 6 52 3 0 0 0 0 0 0 0 0 92 451
25 32 46 39 18 14 28 21 17 3 41 22 7 32 4 0 0 0 2 55 7 1 0 4 25 0 25 28 14 0 1 17 27 5 0 0 0 0 0 0 0 0 84 118 291
21 31 34 47 19 13 7 15 12 10 17 28 58 35 0 0 0 0 0 0 0 0 0 3 9 0 41 52 79 2 2 4 30 3 0 0 0 0 0 0 0 0 61 65 132
17 19 22 34 36 25 21 0 11 15 52 80 57 2 0 0 0 0 0 0 0 0 0 3 22 2 5 48 22 11 33 7 13 0 0 0 0 0 0 0 0 0 0 57 19
16 10 19 26 32 27 33 42 0 0 21 86 166 10 0 0 0 0 0 0 0 0 5 59 82 1 4 1 18 44 17 10 1 2 17 0 0 0 0 0 0 0 0 0 0
20 21 11 23 23 37 33 23 0 0 13 75 0 0 0 0 16 0 0 0 0 1 155 132 135 7 10 30 3 25 7 0 2 0 0 0 0 0 0 0 0 0 0 0 0
21 12 8 20 21 30 37 20 0 0 8 20 0 0 0 0 0 0 0 0 0 0 93 126 81 12 0 1 0 0 0 0 0 0 0 0 0 0 0 0 0 0 0 0 0
25 15 10 13 14 20 1 0 0 0 0 0 0 0 0 0 0 35 32 16 1 2 3 12 2 0 0 0 0 0 0 0 0 0 0 0 0 0 0 0 0 0 0 0 0
18 17 7 15 6 19 0 0 0 0 0 0 0 0 0 0 0 30 40 0 7 5 1 55 2 0 0 0 0 0 0 0 0 0 0 0 0 0 0 0 0 0 0 0 0
14 7 10 19 5 0 0 0 0 0 0 0 0 2 0 0 0 20 27 19 6 1 10 5 1 0 0 3 0 0 0 0 0 0 0 2 6 0 0 0 0 0 0 0 0
10 15 10 6 0 0 0 0 0 0 0 2 0 0 7 7 2 22 4 12 0 0 7 34 0 1 1 8 0 0 0 0 0 0 0 0 2 0 0 0 0 0 0 0 0
15 6 15 1 0 0 0 0 0 0 0 11 2 9 2 30 11 1 1 3 0 7 3 22 3 9 16 19 0 0 0 0 0 0 0 0 0 0 0 0 0 0 0 0 0
10 4 5 0 0 1 0 0 0 0 0 2 10 19 7 17 12 0 8 19 1 4 2 2 1 4 4 0 0 0 0 0 0 0 0 0 0 0 0 0 0 0 0 0 0
9 2 1 0 0 0 0 0 0 0 0 1 3 3 8 21 11 2 3 0 1 1 1 11 6 0 0 3 0 0 0 0 0 0 0 0 0 0 0 0 0 0 0 0 0
0 0 0 0 0 0 0 0 0 0 0 0 5 8 10 7 19 12 4 4 3 2 1 1 0 0 0 0 2 1 0 0 0 0 0 0 0 0 0 0 0 0 0 0 0
0 0 0 0 0 0 0 0 0 0 0 0 2 0 5 4 11 12 1 1 0 7 0 0 9 0 0 0 0 1 0 0 0 0 0 0 0 0 0 0 0 0 0 0 0
0 0 0 0 0 0 0 0 0 0 0 0 0 0 0 0 0 1 4 5 0 0 0 0 1 0 0 0 0 0 0 0 0 0 0 0 0 0 0 0 0 0 0 0 0
0 0 0 0 0 0 0 0 0 0 0 0 0 0 0 0 0 0 0 0 0 0 0 0 0 4 0 0 0 1 0 0 0 0 0 0 0 0 0 0 0 0 0 0 0
0 0 0 0 0 0 0 0 0 0 0 0 0 0 0 0 0 0 0 0 0 0 0 0 0 0 2 0 0 0 0 0 0 0 0 0 0 0 0 0 0 0 0 0 0
0 0 0 0 0 0 0 0 0 0 0 0 0 0 0 0 0 0 0 0 0 0 0 0 0 0 0 0 0 2 1 0 0 0 0 0 0 0 0 0 0 0 0 0 0
0 0 0 0 0 0 0 0 0 0 0 0 0 0 0 0 0 0 0 0 0 0 0 0 0 0 0 0 0 0 2 5 0 0 0 0 0 0 0 0 0 0 0 0 0
0 0 0 0 0 0 0 0 0 0 0 0 0 0 0 0 0 0 0 0 0 0 0 0 0 0 0 0 0 0 0 1 3 0 0 0 0 0 0 0 0 0 0 0 0
0 0 0 0 0 0 0 0 0 0 0 0 0 0 0 0 0 0 0 0 0 0 0 0 0 0 0 0 0 0 0 0 0 0 0 0 0 0 0 0 0 0 0 0 0
0 0 0 0 0 0 0 0 0 0 0 0 0 0 0 0 0 0 0 0 0 0 0 0 0 0 0 0 0 0 0 0 0 0 0 0 0 0 0 0 0 0 0 0 0

GFSSW_con_sbcape_075.txt.gz
CAPE
34 32 39 24 23 36 35 45 37 32 54 94 69 137 56 92 91 38 21 5 26 12 68 0 0 0 56 63 72 44 69 4 0 0 0 0 0 0 0 0 30 324 237 231 690
24 28 40 29 16 20 27 19 12 29 52 41 81 101 55 104 1 0 14 100 103 129 19 15 0 4 109 17 139 103 68 0 0 0 2 0 0 0 0 0 0 0 0 364 414
15 25 34 47 14 17 28 23 14 9 12 28 93 88 120 15 0 0 37 119 174 133 47 41 0 2 40 10 46 52 10 0 7 1 15 15 0 0 0 0 0 0 0 0 495
10 26 27 33 14 14 21 31 9 7 17 51 92 107 113 0 0 0 61 198 146 83 93 24 22 7 28 41 3 66 1 2 65 53 25 17 0 0 0 0 0 0 0 31 410
17 22 30 27 27 12 7 26 20 14 6 10 36 89 3 0 0 0 4 29 74 43 0 20 37 6 20 34 3 2 12 59 81 29 0 0 0 0 0 0 0 0 0 64 129
25 13 27 27 34 15 21 1 16 4 1 24 86 40 0 0 0 0 0 0 0 16 0 21 28 0 21 46 45 3 1 54 98 4 0 0 0 0 0 0 0 0 0 0 140
43 15 20 32 27 36 23 32 0 0 12 59 35 0 0 0 0 0 0 0 0 0 0 0 38 23 12 46 19 30 28 55 71 3 0 0 0 0 0 0 0 0 0 0 1
31 30 13 17 25 22 39 21 2 0 0 48 97 0 0 0 0 0 0 0 0 0 0 26 65 1 3 1 31 36 23 36 1 1 3 0 0 0 0 0 0 0 0 0 0
36 33 16 17 26 16 36 17 1 0 0 27 0 0 0 0 0 0 0 0 5 16 52 81 82 3 1 17 22 3 0 0 11 0 2 0 0 0 0 0 0 0 0 0 0
35 39 25 11 22 19 32 8 0 0 0 0 0 0 0 0 0 0 5 7 13 5 71 82 3 14 0 4 1 0 0 0 1 8 9 0 0 0 0 0 0 0 0 0 0
29 33 22 14 20 12 1 0 0 0 0 0 0 0 0 0 0 0 17 0 0 2 8 21 5 5 0 0 0 0 0 0 1 0 1 0 0 0 0 0 0 0 0 0 0
28 25 11 6 22 9 0 0 0 0 0 0 0 0 0 0 0 57 40 0 2 28 8 15 4 0 0 1 0 0 0 0 0 0 0 0 0 0 0 0 0 0 0 0 0
22 16 6 21 5 0 0 0 0 0 0 0 0 0 0 0 3 43 15 0 6 3 12 28 1 1 16 27 1 0 0 0 0 0 0 0 0 0 0 0 0 0 0 0 0
9 7 8 5 0 0 0 0 0 0 0 0 0 2 0 0 3 26 16 0 4 6 13 45 9 4 10 31 3 4 0 0 0 0 0 0 0 0 0 0 0 0 0 0 0
5 9 9 0 0 0 0 0 0 0 0 14 2 9 1 8 5 3 6 2 0 1 1 14 1 11 12 31 15 1 0 0 0 0 0 0 0 0 0 0 0 0 0 0 0
7 4 7 0 0 0 0 0 0 0 0 2 8 11 3 0 8 1 9 14 0 1 0 2 3 10 0 0 0 0 0 0 0 0 5 0 0 0 0 0 0 0 0 0 0
8 3 1 0 0 0 0 0 0 0 0 4 5 11 3 2 2 0 11 3 0 4 0 29 9 2 0 6 0 0 0 0 8 2 1 0 0 0 0 0 0 0 0 0 0
0 1 0 0 0 0 0 0 0 0 0 0 7 7 16 10 33 2 2 0 0 0 12 3 13 17 0 0 0 0 0 0 0 0 0 0 0 0 0 0 0 0 0 0 0
0 0 0 0 0 0 0 0 0 0 0 0 1 12 21 4 5 18 0 0 0 0 0 5 3 1 0 0 0 0 0 0 0 0 0 0 0 0 0 0 0 0 0 0 0
0 0 0 0 0 0 0 0 0 0 0 0 0 0 4 0 9 4 0 0 3 1 0 0 9 0 0 0 0 0 0 0 0 0 0 0 0 0 0 0 0 0 0 0 0
0 0 0 0 0 0 0 0 0 0 0 0 0 0 0 0 0 0 0 0 0 1 0 0 0 6 1 0 0 0 0 0 0 0 0 0 0 0 0 0 0 0 0 0 0
0 0 0 0 0 0 0 0 0 0 0 0 0 0 0 0 0 0 0 0 0 0 0 0 0 3 4 0 0 0 0 0 0 0 0 0 0 0 0 0 0 0 0 0 0
0 0 0 0 0 0 0 0 0 0 0 0 0 0 0 0 0 0 0 0 0 0 0 0 0 1 0 0 0 0 0 0 0 0 0 0 0 0 0 0 0 0 0 0 0
0 0 0 0 0 0 0 0 0 0 0 0 0 0 0 0 0 0 0 0 0 0 0 0 0 0 0 0 0 0 0 0 0 0 0 0 0 0 0 0 0 0 0 0 0
0 0 0 0 0 0 0 0 0 0 0 0 0 0 0 0 0 0 0 0 0 0 0 0 0 0 0 0 0 0 0 0 0 0 0 0 0 0 0 0 0 0 0 0 0
0 0 0 0 0 0 0 0 0 0 0 0 0 0 0 0 0 0 0 0 0 0 0 0 0 0 0 0 0 0 0 0 0 0 0 0 0 0 0 0 0 0 0 0 0
0 0 0 0 0 0 0 0 0 0 0 0 0 0 0 0 0 0 0 0 0 0 0 0 0 0 0 0 0 0 0 0 0 0 0 1 0 0 0 0 0 0 0 0 0

GFSSW_con_sbcape_078.txt.gz
CAPE
38 45 37 42 14 16 25 20 16 15 17 21 19 51 105 92 116 67 7 1 64 57 64 38 58 32 251 297 404 292 216 115 57 8 0 0 1 0 0 0 227 0 179 530 1104
27 42 35 36 22 14 20 17 15 7 4 0 6 51 103 132 32 3 0 93 75 119 78 44 48 48 230 233 295 275 212 65 22 28 3 1 13 0 0 0 0 0 29 435 959
21 30 42 30 36 15 6 28 12 6 0 0 4 31 106 37 9 0 91 108 106 99 54 52 77 80 95 179 189 167 129 59 83 91 28 35 26 0 0 0 0 0 0 1 984
26 12 30 25 42 12 3 22 23 10 0 0 0 26 91 0 0 7 75 148 205 118 42 42 102 81 49 84 153 146 140 117 142 142 100 67 29 20 0 0 0 0 0 0 801
51 23 10 22 29 29 16 0 15 7 0 0 0 43 1 0 0 0 1 78 158 68 55 55 81 55 33 78 119 138 127 143 128 153 72 4 24 25 5 0 0 0 0 164 386
48 40 14 15 32 36 13 20 6 4 2 0 29 9 0 0 0 0 0 11 18 80 26 53 69 27 33 24 72 66 57 148 138 42 10 76 16 19 0 0 0 0 0 0 320
47 36 20 17 24 25 24 28 0 0 1 33 0 0 0 0 0 0 0 0 0 34 27 4 63 72 25 21 43 70 20 112 117 136 90 22 32 11 17 0 0 0 0 0 0
47 39 28 13 19 25 7 46 23 0 0 40 26 3 0 0 22 6 2 17 3 0 3 3 24 50 63 78 115 90 88 92 100 142 28 46 9 5 9 0 0 0 0 0 0
47 37 30 14 12 23 9 27 15 0 0 11 0 0 0 4 6 5 37 36 24 1 10 8 58 41 77 104 84 95 13 11 42 75 15 5 3 22 16 0 0 0 0 0 0
39 37 33 15 14 20 19 13 8 0 3 0 0 0 0 6 0 1 60 61 41 0 53 19 18 59 84 62 18 11 24 32 43 46 28 17 20 0 0 0 0 0 0 0 0
32 27 24 15 15 20 18 0 0 4 5 0 0 0 0 0 0 54 41 28 49 7 34 25 5 11 6 8 18 28 17 6 27 12 23 10 9 0 0 0 0 0 0 0 0
25 23 23 21 24 9 0 0 0 0 0 0 0 0 0 0 0 70 15 15 34 26 26 25 20 17 30 20 2 23 34 43 17 31 40 9 5 0 0 0 0 0 0 0 0
23 18 19 20 9 1 0 0 0 0 1 0 0 1 0 0 7 10 19 8 10 8 14 41 23 13 40 33 17 22 17 33 5 40 19 11 3 0 0 0 0 0 0 0 0
21 15 16 9 3 0 0 0 0 0 9 5 7 7 4 9 25 22 25 7 5 28 18 29 17 4 29 23 21 19 5 3 0 16 2 1 0 0 0 0 0 0 0 0 0
11 12 13 3 0 1 0 0 0 0 11 6 8 20 5 19 13 25 3 9 10 27 31 59 10 6 24 26 17 2 0 0 0 3 5 1 6 0 0 0 0 0 0 0 1
4 9 8 1 0 2 1 0 0 3 2 5 9 9 5 1 18 7 11 14 6 35 2 18 5 4 11 28 9 0 0 0 5 20 23 6 12 0 0 0 0 0 0 0 0
5 3 3 0 1 0 7 0 6 6 0 8 8 14 4 1 10 2 19 8 14 77 7 28 13 21 4 39 0 9 24 35 31 32 12 0 9 0 0 0 0 0 0 0 0
0 1 0 0 0 1 1 0 3 0 10 6 9 0 3 4 16 16 2 4 0 14 83 67 22 6 20 18 4 35 14 11 3 10 5 0 0 1 0 0 0 0 0 0 0
0 0 0 0 0 0 0 2 0 0 0 11 10 16 22 5 9 24 13 2 0 1 31 18 6 7 1 4 0 2 23 0 0 0 0 0 0 0 0 0 0 0 0 0 0
0 0 2 0 0 0 2 0 0 0 0 0 5 2 8 16 10 6 10 1 2 0 0 1 15 2 11 0 1 7 0 7 2 0 0 0 0 0 0 0 0 0 0 0 0
0 5 0 0 0 0 6 0 0 0 0 0 0 2 0 2 3 3 7 0 0 2 7 0 2 2 9 8 18 0 4 0 0 0 0 0 0 0 0 0 0 0 0 0 0
0 9 0 0 5 1 0 0 0 0 0 0 0 0 0 0 0 0 1 1 1 0 0 0 1 17 32 0 0 2 2 5 17 1 0 0 0 0 0 0 0 0 0 0 0
0 4 0 0 8 1 0 0 0 0 0 0 0 0 0 0 0 0 0 0 0 0 0 0 1 10 9 1 0 1 2 0 0 0 0 0 0 0 0 0 0 0 0 0 0
0 2 0 0 0 0 0 0 0 0 0 0 0 0 0 0 0 0 0 0 0 0 0 0 0 0 0 0 0 0 0 0 0 22 2 0 0 0 0 0 0 0 0 0 0
0 0 0 4 0 0 0 0 0 0 0 0 0 0 0 0 0 0 0 0 0 0 0 0 0 0 0 0 0 0 0 0 0 0 1 0 0 0 0 0 0 0 0 0 0
0 0 0 0 0 0 0 0 0 0 0 0 0 0 0 0 0 0 0 0 0 0 0 0 0 0 0 0 0 0 0 0 0 0 1 1 0 0 0 0 0 0 0 0 0
0 0 0 0 0 0 0 0 0 0 0 0 0 0 0 0 0 0 0 0 0 0 0 0 0 0 0 0 0 0 0 0 0 0 0 0 0 0 0 0 0 0 0 0 0

GFSSW_con_sbcape_081.txt.gz
CAPE
12 25 42 38 46 19 9 31 17 11 2 5 0 0 12 22 41 77 42 12 108 108 74 12 68 65 107 174 183 243 114 115 74 33 32 2 0 0 0 0 168 0 293 699 1286
14 12 18 42 41 20 5 35 19 6 0 0 0 0 2 6 1 16 17 23 109 162 108 44 97 84 119 134 214 267 220 241 108 48 34 0 0 0 0 11 12 1 106 588 1222
53 12 10 33 34 30 8 14 23 7 2 0 0 0 0 0 2 0 151 166 209 128 101 98 90 104 76 75 164 210 118 109 53 16 98 4 0 0 0 17 0 0 0 145 1317
41 40 14 5 32 43 28 0 16 4 0 0 0 0 32 56 43 28 94 134 268 140 93 112 140 154 78 69 98 93 60 110 190 159 45 35 4 0 5 3 0 0 40 147 1231
33 40 37 12 19 37 38 29 19 1 0 0 0 0 8 12 8 0 0 45 196 124 20 97 133 113 58 22 54 123 132 177 148 259 114 21 0 5 1 0 0 0 72 334 847
40 38 31 17 15 29 24 43 0 0 2 0 0 2 17 51 0 2 0 55 142 75 57 5 53 61 29 35 45 46 143 168 206 109 138 146 27 1 1 0 0 0 0 125 408
38 43 37 24 8 20 31 45 23 0 0 1 13 3 11 14 19 8 2 31 28 92 52 27 16 78 7 46 75 117 100 250 162 185 143 193 112 3 0 0 0 0 4 0 3
36 43 36 38 13 9 36 32 36 0 0 1 9 10 15 4 73 25 28 37 1 0 5 7 44 18 83 34 106 107 133 164 122 163 116 113 91 3 0 24 5 4 0 6 0
31 38 36 31 20 20 23 31 23 0 0 0 31 17 21 31 45 11 96 32 17 5 24 39 49 25 91 87 103 85 76 59 92 171 120 69 25 127 28 41 21 8 9 0 0
27 27 29 20 20 19 21 27 14 0 4 0 0 15 2 58 14 2 71 14 38 1 40 44 38 7 76 107 60 32 58 74 69 93 68 79 121 52 2 0 0 0 5 9 0
22 23 27 20 22 26 24 20 13 9 5 1 2 0 0 3 5 88 33 8 15 0 33 11 8 7 25 30 0 4 40 33 46 41 34 44 52 57 8 2 7 7 0 4 4
15 21 18 20 21 15 17 8 0 0 4 0 0 0 0 0 1 73 10 17 23 17 40 24 21 4 27 50 62 79 67 11 14 9 13 26 12 28 20 3 0 0 1 0 4
14 17 16 16 9 7 11 0 0 0 6 2 1 16 12 1 26 7 14 6 32 13 8 52 13 5 25 27 78 31 18 36 14 9 24 33 14 3 1 0 0 0 0 0 2
13 14 16 9 1 4 5 0 0 0 32 9 8 7 14 3 25 1 0 14 30 9 6 33 3 22 38 27 20 41 29 21 24 33 8 3 1 0 0 0 0 0 0 0 0
12 11 15 4 7 1 5 0 0 0 19 5 11 5 8 16 15 1 0 25 23 5 10 31 8 6 31 24 7 33 12 4 30 60 21 29 7 0 0 0 0 0 0 0 0
9 11 8 1 18 7 1 0 6 4 2 7 13 8 14 17 11 5 23 2 29 21 47 23 12 2 29 48 15 3 11 8 13 17 23 7 13 0 17 0 0 0 0 0 0
3 1 4 0 4 6 6 4 8 13 0 3 0 4 4 4 9 8 26 64 36 31 36 20 16 3 14 32 37 15 10 29 25 27 11 0 10 0 0 0 0 0 0 0 0
2 0 0 2 4 1 13 1 3 9 32 9 0 0 9 7 0 5 1 31 18 10 33 50 14 22 28 35 35 19 5 11 2 4 0 0 0 0 0 0 0 0 0 0 0
0 7 9 0 0 2 8 11 5 2 7 1 4 6 14 1 6 7 3 31 20 45 33 20 7 0 9 31 35 50 69 0 1 0 12 3 0 0 0 0 0 0 0 0 0
8 11 14 0 0 1 10 0 1 0 0 10 14 12 5 13 1 5 3 0 0 0 4 12 28 8 17 15 5 15 13 5 13 2 0 0 0 0 0 0 0 0 0 0 0
9 7 4 0 6 8 8 8 0 0 0 0 13 0 2 6 3 0 7 0 1 2 0 4 29 8 28 17 49 13 3 14 10 0 4 0 0 0 0 0 0 0 0 0 0
13 5 0 0 13 1 9 1 0 0 0 0 0 9 19 16 28 23 2 1 0 1 0 0 8 17 17 11 1 15 28 28 25 3 0 0 0 0 0 0 0 0 0 0 0
7 4 0 2 2 10 0 2 4 1 0 0 0 0 0 2 15 3 4 0 0 0 0 0 9 12 22 13 1 1 0 0 10 0 33 0 0 0 0 0 0 0 0 0 0
1 3 7 1 6 2 8 9 2 0 0 0 0 0 0 0 0 4 1 0 3 1 0 0 6 12 25 9 0 0 0 3 4 33 2 0 0 0 0 0 0 0 0 0 0
0 0 0 3 2 1 0 7 7 0 0 0 0 0 2 1 0 1 1 0 0 0 0 0 17 0 0 0 0 0 0 0 6 0 3 0 0 0 0 0 0 0 0 0 0
0 0 0 0 0 0 0 11 13 0 0 0 2 0 0 3 0 4 2 10 12 0 2 0 17 0 0 0 0 0 0 0 0 0 5 0 0 0 0 0 0 0 0 0 0
0 0 0 0 0 1 1 5 6 1 1 0 0 0 0 0 0 0 0 0 0 6 5 6 10 0 9 0 0 0 0 0 0 0 0 3 0 0 0 0 0 0 0 0 0

GFSSW_con_sbcape_084.txt.gz
CAPE
37 17 9 17 45 44 9 2 32 12 3 1 0 0 0 0 0 0 0 56 87 158 114 17 12 17 29 57 213 254 94 21 10 17 81 0 0 0 0 23 4 137 167 853 1352
26 41 28 15 34 42 15 0 26 7 3 0 0 0 0 0 0 10 121 201 120 181 73 33 36 74 38 23 189 138 26 0 11 120 26 0 0 0 0 35 24 159 709 1236 1477
21 43 43 19 18 33 34 13 20 9 1 1 0 0 0 0 6 41 251 299 302 201 123 32 55 89 80 58 137 112 15 1 0 11 27 1 3 0 0 5 1 0 466 721 1371
17 41 40 36 17 13 39 32 6 6 0 0 0 0 1 34 28 58 73 135 219 197 106 47 63 83 82 54 55 90 0 28 9 35 39 11 0 0 11 0 0 0 279 676 1379
12 42 39 43 17 4 32 42 20 1 2 0 0 0 0 35 30 0 12 25 159 148 62 56 82 92 59 0 19 23 35 24 2 52 5 0 2 2 0 0 0 4 428 655 1105
12 40 29 44 28 9 24 28 35 0 0 2 0 0 13 47 0 20 0 44 164 149 58 58 67 86 76 11 21 47 65 85 81 6 25 50 17 1 0 0 0 0 215 589 700
19 25 37 43 39 10 13 31 28 12 0 0 47 23 7 47 12 34 29 156 40 118 37 39 40 1 20 48 13 80 90 75 83 34 16 59 53 0 0 0 0 0 0 210 556
13 20 37 28 33 18 7 17 20 25 0 0 24 13 10 6 27 9 54 103 13 6 6 24 11 1 13 15 35 101 90 89 102 47 37 60 9 1 5 0 0 0 0 4 0
11 24 25 29 24 21 11 12 17 1 0 0 0 40 10 29 52 1 27 31 6 0 5 24 1 12 9 8 45 59 32 40 77 101 74 90 27 50 8 5 1 0 0 0 0
11 17 22 19 24 21 22 4 4 0 0 0 0 1 8 26 13 3 23 7 31 1 25 12 5 3 9 26 28 21 36 20 7 45 65 58 31 32 5 4 0 0 0 0 0
11 14 23 17 21 24 13 2 1 0 0 1 0 0 20 2 0 41 8 2 15 2 5 14 4 5 1 0 0 3 0 0 10 55 50 38 36 10 21 0 0 0 0 0 0
12 18 18 21 22 14 3 3 0 0 2 0 0 1 0 0 0 47 24 22 18 8 6 19 10 0 29 28 11 38 9 13 60 57 42 40 13 1 0 0 0 0 0 0 0
11 17 13 20 11 1 3 1 0 0 1 1 2 2 2 0 3 9 0 13 18 6 11 12 11 0 4 0 0 0 0 2 13 9 2 10 0 0 0 0 0 0 0 0 0
10 9 13 10 0 9 1 0 0 0 19 6 11 8 5 4 15 4 10 12 6 17 4 13 4 2 2 10 36 16 42 25 23 0 6 7 0 0 0 0 0 0 0 0 0
6 4 15 1 4 3 0 0 0 0 0 2 9 0 2 16 0 11 0 19 4 0 1 20 11 2 18 3 29 4 28 60 35 42 27 0 0 0 0 0 0 0 0 0 0
3 12 2 0 13 2 0 0 1 5 0 1 4 4 5 8 11 8 23 1 12 4 10 8 1 0 0 18 3 2 16 3 0 7 0 0 0 0 0 0 0 0 0 0 0
0 0 0 1 10 6 1 2 4 3 0 0 0 7 2 5 2 4 6 12 11 7 3 5 3 0 0 15 11 11 1 0 0 0 0 0 0 0 0 0 0 0 0 0 0
0 0 0 2 0 4 7 3 1 6 21 0 1 1 4 2 0 0 1 4 0 2 0 1 0 2 8 33 14 7 11 8 0 0 0 0 0 0 0 0 0 0 0 0 0
0 4 13 2 0 0 2 0 0 0 0 2 1 3 3 0 0 0 0 0 0 1 6 2 5 1 3 29 29 11 0 0 1 0 0 0 0 0 0 0 0 0 0 0 0
3 10 10 0 0 6 6 0 0 0 7 0 10 2 0 0 0 0 0 0 0 0 0 0 1 1 32 24 11 23 4 0 0 0 0 0 0 0 0 0 0 0 0 0 0
1 10 1 0 7 3 1 1 0 0 0 2 9 2 0 0 0 0 2 0 0 0 0 0 0 7 22 0 5 16 3 2 0 0 0 0 0 0 0 0 0 0 0 0 0
6 5 0 2 15 1 3 0 0 0 0 0 0 5 4 0 0 8 0 0 0 0 0 0 0 1 0 0 1 1 7 2 3 0 0 0 0 0 0 0 0 0 0 0 0
4 1 0 2 4 1 0 0 2 0 0 0 0 0 0 4 7 0 0 0 0 0 0 0 6 6 1 0 0 0 0 8 0 0 0 0 0 0 0 0 0 0 0 0 0
0 3 3 0 0 0 3 1 0 0 0 0 0 0 0 0 0 1 0 0 0 0 0 0 3 2 0 0 0 0 0 0 1 0 0 0 0 0 0 0 0 0 0 0 0
0 0 0 3 0 0 4 1 4 0 0 0 0 0 0 0 0 3 0 0 0 0 0 0 0 0 0 0 0 0 0 0 0 0 0 0 0 0 0 0 0 0 0 0 0
0 0 0 0 0 0 0 0 3 0 0 0 1 0 0 0 0 2 0 0 0 0 0 0 0 0 0 0 0 0 0 0 0 0 0 0 0 0 0 0 0 0 0 0 0
0 0 0 0 0 0 0 1 1 3 0 0 0 0 0 0 0 0 0 0 0 0 0 0 0 0 0 0 0 0 0 0 0 0 0 0 0 0 0 0 0 0 0 0 0

GFSSW_con_sbcape_087.txt.gz
CAPE
21 21 35 19 11 17 43 20 9 18 10 10 4 2 1 0 0 2 0 2 41 95 102 35 16 0 8 0 138 235 132 1 0 0 26 0 0 0 0 1 208 79 366 1178 1276
15 19 39 36 11 11 38 32 2 14 5 7 2 0 0 0 0 0 0 154 201 106 93 63 24 20 12 12 139 121 132 0 0 0 0 0 0 0 0 1 351 810 946 1325 1231
14 12 42 39 26 13 16 61 23 13 2 2 0 0 0 0 0 0 198 216 179 352 214 129 52 21 36 21 47 76 11 1 21 21 13 0 0 0 0 0 0 420 1346 1323 1082
12 19 38 37 34 15 2 49 40 6 2 1 1 0 0 0 0 25 87 181 3 275 191 139 31 59 41 31 12 89 9 0 0 26 22 18 0 0 0 0 0 324 1004 1113 1222
6 15 42 21 31 24 6 37 33 24 1 3 0 0 0 5 13 16 87 34 126 217 158 135 24 14 59 3 27 107 22 2 24 101 22 9 0 0 0 0 69 646 898 1376 1272
12 24 32 39 33 35 11 12 36 39 0 0 1 5 0 12 0 0 4 155 144 212 150 50 13 19 40 33 17 0 39 10 26 27 1 4 4 0 0 0 27 697 877 1077 1207
12 17 30 33 34 36 9 7 25 28 10 0 4 4 7 4 0 0 108 198 97 76 75 55 13 42 6 50 0 0 9 19 64 1 1 32 2 2 0 0 0 476 703 724 1042
9 18 33 27 23 24 11 2 13 20 12 0 0 0 0 0 0 0 2 90 14 6 0 9 36 3 6 0 0 1 63 47 56 7 4 0 0 0 0 0 0 0 313 448 578
10 17 31 22 21 13 4 8 5 3 0 0 0 2 0 18 10 0 0 25 9 12 1 1 20 9 23 8 40 65 46 68 86 36 16 0 0 2 0 0 0 0 0 0 0
11 15 25 18 15 16 5 7 0 0 0 0 0 1 6 8 0 0 3 10 25 32 0 0 1 3 6 14 20 6 14 27 45 17 17 26 25 20 0 0 0 0 0 0 0
7 18 18 13 16 21 1 0 0 0 0 0 0 0 2 0 0 36 1 0 2 5 6 6 7 3 0 0 0 3 0 0 22 43 30 37 15 12 5 0 0 0 0 0 0
5 19 18 13 16 14 1 0 0 0 0 0 0 0 0 0 2 23 0 0 21 6 4 16 8 0 1 0 0 40 19 17 39 41 23 23 4 1 6 0 0 0 0 0 0
3 13 9 15 6 0 0 2 0 0 0 1 0 0 0 6 0 0 0 4 1 6 6 1 11 9 10 16 17 9 14 18 16 32 42 33 15 0 0 0 0 0 0 0 0
2 4 8 11 0 1 5 0 0 0 0 6 11 6 3 1 0 0 0 0 3 9 14 5 1 16 0 0 0 0 0 3 33 3 0 2 4 0 0 0 0 0 0 0 0
1 4 8 6 1 4 1 0 0 0 0 9 1 0 9 9 0 0 0 6 12 3 12 14 1 0 16 0 0 14 0 0 24 1 3 0 0 0 0 0 0 0 0 0 0
0 4 8 0 0 0 0 0 0 0 0 0 0 1 2 7 21 0 5 0 0 11 7 8 7 0 0 0 0 0 0 9 0 0 1 0 0 0 0 0 0 0 0 0 0
0 0 0 3 4 0 0 0 0 0 0 0 0 2 0 1 4 0 0 3 1 0 1 0 0 0 0 0 0 2 0 0 0 0 0 0 0 0 0 0 0 0 0 0 0
0 0 0 0 0 0 0 0 0 0 0 0 0 0 0 0 0 0 0 0 0 0 0 0 0 0 0 0 0 0 0 0 0 0 0 0 0 0 0 0 0 0 0 0 0
0 0 0 0 0 0 0 0 0 0 0 0 0 0 0 0 0 0 0 0 0 0 0 0 1 0 1 0 0 0 0 0 0 0 0 0 0 0 0 0 0 0 0 0 0
0 3 0 0 0 0 0 0 0 0 1 0 0 0 0 0 0 0 0 0 0 0 0 0 5 0 0 0 0 0 0 0 0 0 0 0 0 0 0 0 0 0 0 0 0
0 9 1 0 0 0 0 0 0 0 0 3 0 0 0 0 0 0 0 0 0 0 0 0 0 0 1 0 0 0 0 0 0 0 0 0 0 0 0 0 0 0 0 0 0
0 2 0 0 0 0 0 0 0 0 0 0 0 0 0 0 0 0 0 0 0 0 0 0 0 1 0 0 0 0 0 0 0 0 0 0 0 0 0 0 0 0 0 0 0
0 1 0 1 0 0 0 0 0 0 0 0 0 0 0 1 1 0 0 0 0 0 0 0 0 0 0 0 0 0 0 0 0 0 0 0 0 0 0 0 0 0 0 0 0
0 1 4 0 0 0 0 0 0 0 0 0 0 0 0 0 0 0 0 0 0 0 0 0 0 0 0 0 0 0 0 0 0 0 0 0 0 0 0 0 0 0 0 0 0
0 0 0 1 0 0 0 0 0 0 0 0 0 0 0 0 0 0 0 0 0 0 0 0 0 0 0 0 0 0 0 0 0 0 0 0 0 0 0 0 0 0 0 0 0
0 0 0 0 0 0 0 0 0 0 0 0 0 0 0 0 0 0 0 0 0 0 0 0 0 0 0 0 0 0 0 0 0 0 0 0 0 0 0 0 0 0 0 0 0
0 0 0 0 0 0 0 0 1 0 0 0 0 0 0 0 0 0 0 0 0 0 0 0 0 0 0 0 0 0 0 0 0 0 0 0 0 0 0 0 0 0 0 0 0

GFSSW_con_sbcape_090.txt.gz
CAPE
9 14 11 43 29 7 17 57 19 7 13 11 14 8 7 0 0 0 0 0 1 49 73 0 8 10 8 6 73 220 204 3 0 0 0 0 0 0 4 139 271 155 646 816 565
9 9 13 42 30 27 17 21 45 11 15 4 4 1 0 0 0 0 0 21 102 103 34 18 15 34 10 24 30 170 136 5 0 0 3 1 0 0 59 114 410 886 1192 1173 822
6 9 14 43 34 36 15 0 49 24 10 6 5 0 0 0 0 0 46 40 20 125 122 54 44 47 35 34 42 2 91 51 32 35 50 26 7 0 0 0 6 940 1141 1067 774
6 8 11 42 27 36 17 0 43 49 14 7 1 0 0 0 0 0 84 70 233 189 0 48 38 52 32 51 30 59 40 89 37 28 64 14 0 0 0 0 16 911 1226 1047 807
9 7 18 19 43 33 27 3 24 37 22 0 3 0 0 0 0 0 31 40 241 209 64 34 43 38 28 15 15 43 40 0 1 101 22 10 0 0 0 0 123 852 1015 955 862
10 7 9 16 35 41 37 9 4 39 44 0 6 20 0 0 0 0 0 122 148 126 63 75 75 35 6 14 27 2 32 2 41 2 0 1 0 0 0 2 565 758 911 980 904
7 6 8 14 22 23 30 13 7 25 40 16 0 1 0 0 0 0 284 188 126 79 45 2 55 47 54 40 4 7 50 0 53 56 2 0 0 4 0 0 601 745 649 817 925
5 4 5 14 20 23 9 10 15 9 27 33 0 0 0 0 0 0 20 116 47 53 3 19 4 2 40 10 1 44 58 87 68 72 8 0 0 0 0 0 37 446 455 442 637
6 3 1 4 13 12 10 4 9 5 1 0 0 0 0 0 11 0 0 29 28 33 33 3 14 26 13 23 26 58 39 2 85 33 21 6 0 0 0 0 0 2 126 229 298
3 0 5 2 12 11 12 2 0 0 0 0 0 0 0 0 0 0 0 2 39 20 28 4 21 9 4 7 2 58 32 25 44 16 14 12 3 0 0 0 0 0 0 0 37
1 0 5 0 2 6 2 0 0 0 0 0 0 0 0 0 0 3 0 3 7 14 3 3 5 4 2 5 0 5 11 43 46 9 3 1 0 0 0 0 0 0 0 0 0
0 2 0 1 2 11 0 0 0 0 0 0 0 0 0 0 4 17 4 22 19 15 6 12 4 3 4 2 1 11 12 31 62 2 4 3 5 2 0 0 0 0 0 0 0
0 2 0 0 1 1 0 0 0 0 0 0 0 0 0 0 0 0 0 15 5 8 6 19 12 8 4 4 13 35 22 6 1 26 13 0 0 0 0 0 0 0 0 0 0
0 0 0 0 0 1 0 0 0 0 0 0 0 0 2 1 0 0 0 2 7 3 7 5 4 0 6 0 0 0 0 0 5 20 17 2 0 0 0 0 0 0 0 0 0
0 1 0 0 0 1 0 0 0 0 0 0 0 0 0 1 0 0 0 2 21 15 8 3 37 12 7 2 0 0 4 11 26 1 2 6 0 0 0 0 0 0 0 0 0
0 0 1 0 0 0 0 0 0 0 0 0 0 0 0 4 0 0 0 0 7 9 1 5 0 0 0 0 0 5 24 6 5 0 0 0 0 0 0 0 0 0 0 0 0
1 0 0 0 0 0 0 0 0 0 0 0 0 0 0 0 0 0 0 0 3 0 0 0 1 0 0 2 0 10 2 0 0 0 0 0 0 0 0 0 0 0 0 0 0
1 0 0 0 0 0 0 0 0 0 0 0 0 0 0 0 0 0 0 0 0 0 0 0 0 0 0 0 0 0 0 0 0 0 0 0 0 0 0 0 0 0 0 0 0
4 0 0 0 0 0 0 0 0 0 0 0 0 0 0 0 0 0 0 0 0 0 0 0 0 0 0 0 0 0 0 0 0 0 0 0 0 0 0 0 0 0 0 0 0
0 0 0 0 0 0 0 0 0 0 0 0 0 0 0 0 0 0 0 0 0 0 0 0 0 0 0 0 0 0 0 0 0 0 0 0 0 0 0 0 0 0 0 0 0
0 0 0 0 0 0 0 0 0 0 0 0 0 0 0 0 0 0 0 0 0 0 0 0 0 0 0 0 0 0 0 0 0 0 0 0 0 0 0 0 0 0 0 0 0
0 2 1 0 2 0 0 0 0 0 0 0 0 0 0 0 0 0 0 0 0 0 0 0 0 0 0 0 0 0 0 0 0 0 0 0 0 0 0 0 0 0 0 0 0
0 5 0 0 0 0 0 0 0 0 0 0 0 0 0 0 0 0 0 0 0 0 0 0 0 0 0 0 0 0 0 0 0 0 0 0 0 0 0 0 0 0 0 0 0
0 3 8 0 0 0 0 0 0 0 0 0 0 0 0 0 0 0 0 0 0 0 0 0 0 0 0 0 0 0 0 0 0 0 0 0 0 0 0 0 0 0 0 0 0
0 0 0 1 0 0 0 0 0 0 0 0 0 0 0 0 0 0 0 0 0 0 0 0 0 0 0 0 0 0 0 0 0 0 0 0 0 0 0 0 0 0 0 0 0
0 0 0 0 0 0 0 0 0 0 0 0 0 0 0 0 0 0 0 0 0 0 0 0 0 0 0 0 0 0 0 0 0 0 0 0 0 0 0 0 0 0 0 0 0
0 0 0 0 0 0 0 0 0 0 0 0 0 0 0 0 0 0 0 0 0 0 0 0 0 0 0 0 0 0 0 0 0 0 0 0 0 0 0 0 0 0 0 0 0

GFSSW_con_sbcape_093.txt.gz
CAPE
5 8 4 7 26 15 16 11 23 18 21 5 7 10 8 4 0 0 0 0 0 18 22 0 0 1 3 0 6 229 38 16 0 0 0 0 0 0 48 126 201 179 234 307 453
4 4 6 6 31 19 26 13 9 43 19 3 3 4 2 0 0 0 0 2 80 64 5 0 0 8 18 9 14 87 21 68 0 1 0 9 0 0 230 399 415 798 862 678 592
8 8 7 7 28 17 31 18 7 48 23 0 4 4 1 0 0 0 21 10 16 58 36 22 0 16 29 29 19 36 22 10 29 47 12 71 0 0 44 133 364 982 842 756 544
12 5 4 9 16 25 28 21 2 43 37 0 3 0 0 0 0 0 36 13 53 4 0 0 16 11 31 14 4 46 13 0 215 98 57 22 3 0 0 0 2 1373 1118 751 555
10 4 9 2 12 22 16 28 12 16 51 3 1 3 0 0 0 0 10 3 147 156 60 19 47 14 18 12 3 46 23 0 0 5 33 25 0 0 0 6 462 1128 1193 1008 694
13 7 9 0 10 12 20 27 9 8 40 7 0 2 0 0 0 0 0 22 137 67 109 69 32 11 9 19 15 14 5 21 0 17 2 27 0 0 0 179 568 766 782 798 713
10 10 6 0 12 8 4 19 9 2 28 39 0 0 0 0 0 0 79 150 128 114 49 37 86 62 0 10 0 20 33 36 0 40 24 2 3 0 0 45 519 471 445 491 567
16 11 3 1 3 3 10 5 2 12 19 29 0 0 0 0 0 0 50 140 73 64 32 15 28 59 10 6 50 22 19 37 65 56 92 4 17 0 0 0 157 304 342 536 478
16 11 2 5 0 0 2 0 1 12 2 0 0 0 0 0 0 0 0 27 51 40 50 37 24 24 16 10 40 42 34 4 71 26 21 20 2 0 0 0 0 0 63 165 247
14 6 0 1 0 0 1 0 0 0 0 0 0 0 0 0 0 0 0 4 9 14 30 22 31 7 3 25 2 15 59 40 29 87 33 25 0 0 0 0 0 0 0 0 88
15 5 0 0 0 0 0 0 0 0 0 0 0 0 0 0 0 0 0 0 5 4 26 8 13 1 1 4 0 0 0 0 3 4 8 9 18 0 0 0 0 0 0 0 0
13 5 1 0 0 2 0 0 0 0 0 0 0 0 0 0 0 0 0 12 20 11 14 17 3 0 3 0 0 0 10 5 19 36 2 6 13 1 0 0 0 0 0 0 0
9 12 0 0 0 0 0 0 0 0 0 0 0 0 0 0 0 0 2 1 16 11 12 12 10 2 0 2 4 0 36 51 19 30 2 0 3 0 0 0 0 0 0 0 0
11 10 0 0 0 0 0 0 0 0 0 0 0 0 0 0 0 0 2 8 8 5 6 47 12 2 4 13 1 5 26 71 11 11 62 3 0 0 0 0 0 0 0 0 0
10 6 0 0 0 0 0 0 0 0 0 0 0 0 0 1 0 0 0 15 8 28 6 9 19 5 7 1 0 8 1 0 1 0 2 16 0 0 0 0 0 0 0 0 0
10 6 1 0 0 0 0 0 0 0 0 0 0 0 0 0 0 1 10 1 1 2 4 3 0 0 0 1 10 17 5 0 1 0 3 2 0 0 0 0 0 0 0 0 0
14 9 1 0 0 0 0 0 0 0 0 0 0 0 0 0 0 0 0 0 7 0 0 0 2 0 0 1 0 1 0 1 0 1 0 0 0 0 0 0 0 0 0 0 0
18 20 0 0 0 0 0 0 0 0 0 0 0 0 0 0 0 0 0 0 0 0 0 0 1 0 0 0 0 0 0 0 0 0 0 0 0 0 0 0 0 0 0 0 0
35 0 0 0 0 0 0 0 0 0 0 0 0 0 0 0 0 0 0 0 0 0 0 0 0 0 0 0 0 0 0 0 0 0 0 0 0 0 0 0 0 0 0 0 0
0 0 0 0 0 0 0 0 0 0 0 0 0 0 0 0 0 0 0 0 0 0 0 0 0 0 0 0 0 0 0 0 0 0 0 0 0 0 0 0 0 0 0 0 0
0 0 1 0 0 0 0 0 0 0 0 0 0 0 0 0 0 0 0 0 0 0 0 0 0 0 0 0 0 0 0 0 0 0 0 0 0 0 0 0 0 0 0 0 0
0 0 1 0 0 0 0 0 0 0 0 0 0 0 0 0 0 0 0 0 0 0 0 0 0 0 0 0 0 0 0 0 0 0 0 0 0 0 0 0 0 0 0 0 0
3 4 0 0 0 0 0 0 0 0 0 0 0 0 0 0 0 0 0 0 0 0 0 0 0 0 0 0 0 0 0 0 0 0 0 0 0 0 0 0 0 0 0 0 0
0 6 18 6 0 0 0 0 0 0 0 0 0 0 0 0 0 0 0 0 0 0 0 0 0 0 0 0 0 0 0 0 0 0 0 0 0 0 0 0 0 0 0 0 0
0 0 0 2 2 0 0 0 0 0 0 0 0 0 0 0 0 0 0 0 0 0 0 0 0 0 0 0 0 0 0 0 0 0 0 0 0 0 0 0 0 0 0 0 0
0 0 0 0 0 0 0 0 0 0 0 0 0 0 0 0 0 0 0 0 0 0 0 0 0 0 0 0 0 0 0 0 0 0 0 0 0 0 0 0 0 0 0 0 0
0 0 0 0 0 0 0 0 0 0 0 0 0 0 0 0 0 0 0 0 0 0 0 0 0 0 0 0 0 0 0 0 0 0 0 0 0 0 0 0 0 0 0 0 0

GFSSW_con_sbcape_096.txt.gz
CAPE
11 10 15 8 15 24 7 3 7 8 21 11 0 9 10 3 0 0 0 0 0 22 37 0 0 0 1 0 3 44 129 79 24 0 0 0 0 0 77 65 54 4 0 66 155
6 8 11 11 12 27 13 11 9 0 36 3 1 11 7 0 0 0 0 0 39 47 0 0 0 0 0 13 10 76 18 7 11 7 0 0 0 0 376 400 312 347 576 52 62
13 13 11 11 13 29 17 12 6 0 39 8 2 3 1 0 0 0 8 25 1 38 0 0 0 0 11 28 12 24 12 0 38 9 41 97 13 0 162 273 363 136 342 92 21
10 23 16 13 14 22 18 12 8 0 21 30 9 2 0 0 0 0 21 2 28 0 0 0 0 0 10 16 20 27 2 10 2 56 74 68 3 0 32 44 0 350 610 339 306
18 23 17 14 10 18 24 9 8 0 6 44 6 29 0 0 0 0 19 1 11 2 1 0 12 27 21 1 22 17 0 17 2 108 23 106 46 0 0 0 535 983 807 336 116
18 12 22 17 12 23 1 17 12 0 0 25 2 10 0 0 0 0 0 0 20 0 12 27 20 42 71 4 22 1 0 0 14 4 0 147 37 0 0 0 467 903 784 401 295
16 11 18 10 15 26 6 7 0 0 0 30 10 0 0 0 0 0 0 46 16 27 7 2 22 72 2 58 1 16 15 0 0 30 0 1 1 0 0 0 300 760 609 520 418
23 12 19 0 18 8 4 0 0 0 2 29 16 0 0 0 0 0 11 55 33 4 17 38 58 79 107 28 59 4 19 33 0 36 24 0 2 0 0 23 0 160 327 401 562
41 9 19 6 22 0 0 0 0 4 1 5 0 0 0 0 0 0 0 0 7 17 19 39 14 17 18 118 32 40 3 20 117 16 8 6 5 0 0 0 0 0 33 214 241
50 20 16 8 12 0 0 0 0 0 0 0 0 0 0 0 0 0 0 0 0 7 21 29 6 31 25 74 3 0 14 10 12 73 17 3 1 0 0 0 0 0 0 5 120
58 21 15 25 7 0 0 0 0 0 0 0 0 0 0 0 0 0 0 0 1 1 26 12 7 7 2 0 0 0 21 19 41 66 1 7 9 7 4 0 0 0 0 0 0
47 10 13 31 1 0 0 0 0 0 0 0 0 0 0 0 0 0 0 0 8 1 6 21 11 0 0 10 25 1 50 52 74 5 1 2 7 10 0 0 0 0 0 0 0
38 11 24 25 7 1 0 0 0 0 0 0 0 0 0 0 0 1 0 0 1 18 0 11 5 0 10 7 22 1 24 62 16 8 18 4 1 0 0 0 0 0 0 0 0
54 13 31 16 0 0 0 0 0 0 0 0 0 0 0 0 0 0 5 2 7 8 12 12 1 1 3 22 11 2 0 39 9 7 12 4 0 0 0 0 0 0 0 0 0
68 14 34 3 0 0 0 0 0 0 0 0 0 0 0 0 0 0 0 16 7 12 6 6 8 5 4 47 0 15 62 42 12 2 5 6 0 0 0 0 0 0 0 0 0
56 18 45 12 0 0 0 0 0 0 0 0 0 0 0 0 0 0 3 5 2 4 6 6 1 1 2 2 3 0 0 0 0 0 0 0 0 0 0 0 0 0 0 0 0
28 24 40 0 0 0 0 0 0 0 0 0 0 0 0 0 0 0 0 3 1 0 0 0 2 0 0 3 10 0 0 0 1 0 0 0 0 0 0 0 0 0 0 0 0
18 38 16 0 0 0 0 0 0 0 0 0 0 0 0 0 0 0 0 0 0 0 0 0 0 2 0 0 2 0 0 0 0 0 0 0 0 0 0 0 0 0 0 0 0
37 12 2 0 0 0 0 0 0 0 0 0 0 0 0 0 0 0 0 0 0 0 0 0 9 0 0 0 0 0 0 0 0 0 0 0 0 0 0 0 0 0 0 0 0
6 18 3 0 0 0 0 0 0 0 0 0 0 0 0 0 0 0 0 0 0 0 0 0 0 0 0 0 0 0 0 0 0 0 0 0 0 0 0 0 0 0 0 0 0
5 17 4 0 0 0 0 0 0 0 0 0 0 0 0 0 0 0 0 0 0 0 0 0 0 0 0 0 0 0 0 0 0 0 0 0 0 0 0 0 0 0 0 0 0
2 0 1 0 1 0 0 0 0 0 0 0 0 0 0 0 0 0 0 0 0 0 0 0 0 0 0 0 0 0 0 0 0 0 0 0 0 0 0 0 0 0 0 0 0
11 11 2 1 0 1 0 0 0 0 0 0 0 0 0 0 0 0 0 0 0 0 0 0 0 0 0 0 0 0 0 0 0 0 0 0 0 0 0 0 0 0 0 0 0
2 8 8 25 0 0 0 0 0 0 0 0 0 0 0 0 0 0 0 0 0 0 0 0 0 0 0 0 0 0 0 0 0 0 0 0 0 0 0 0 0 0 0 0 0
0 0 1 4 4 0 0 0 0 0 0 0 0 0 0 0 0 0 0 0 0 0 0 0 0 0 0 0 0 0 0 0 0 0 0 0 0 0 0 0 0 0 0 0 0
0 0 0 0 0 0 0 0 0 0 0 0 0 0 0 0 0 0 0 0 0 0 0 0 0 0 0 0 0 0 0 0 0 0 0 0 0 0 0 0 0 0 0 0 0
0 0 0 0 0 0 0 0 0 0 0 0 0 0 0 0 0 0 0 0 0 0 0 0 0 0 0 0 0 0 0 0 0 0 0 0 0 0 0 0 0 0 0 0 0

GFSSW_con_sbcape_099.txt.gz
CAPE
8 5 8 11 7 9 36 19 14 4 20 29 0 0 2 3 0 0 0 0 0 10 23 0 0 0 0 1 18 70 83 27 42 54 2 0 0 0 71 211 103 1 0 3 82
9 10 7 11 5 8 22 25 23 15 14 36 0 0 2 1 0 0 0 0 16 63 0 0 0 0 0 18 38 48 29 4 1 54 2 0 0 0 189 306 228 7 323 237 23
105 13 14 18 9 10 9 30 22 17 2 45 0 0 0 0 0 0 0 51 2 11 0 0 0 0 7 22 34 49 4 0 0 2 104 192 147 10 6 189 229 22 325 102 54
63 42 20 15 20 3 16 20 10 23 2 45 1 13 1 0 0 0 22 0 68 0 0 0 0 0 12 15 24 39 0 0 0 3 103 118 140 77 0 29 0 176 430 178 107
39 117 22 12 21 0 6 19 11 24 9 39 0 29 0 0 0 0 10 1 0 0 0 0 0 1 0 0 11 42 1 6 13 6 47 145 123 85 8 0 0 336 297 129 52
37 85 14 12 14 2 22 0 9 26 3 38 0 2 0 0 0 0 0 0 0 0 0 0 0 1 8 3 44 0 0 0 1 27 116 81 68 15 16 0 0 172 300 127 81
12 59 20 17 27 30 25 8 0 17 3 37 7 0 0 0 0 0 0 0 0 0 0 0 0 0 12 16 44 17 29 14 0 0 99 5 1 0 0 0 0 58 477 365 178
27 41 31 16 23 30 13 4 0 17 25 30 8 0 0 0 0 0 0 0 0 0 0 1 29 3 15 22 74 64 27 44 0 0 54 2 0 1 0 0 0 9 444 322 280
12 46 41 10 5 41 1 0 2 32 18 20 0 0 0 0 0 0 0 0 0 0 2 26 27 8 20 86 19 84 33 86 41 2 4 0 1 0 0 0 0 0 167 378 272
24 52 34 10 12 27 18 4 12 8 2 0 0 0 0 0 0 0 0 0 0 0 31 36 22 22 19 123 1 60 10 36 88 96 0 2 2 0 0 0 0 0 0 290 251
14 66 10 3 14 32 24 0 0 0 0 0 0 0 0 0 0 0 0 0 0 5 5 14 6 8 0 0 0 16 2 2 50 118 8 2 0 0 0 0 0 0 0 12 207
21 45 18 3 19 16 2 0 0 0 0 0 0 0 0 0 0 0 0 0 16 1 4 14 26 18 1 0 1 1 0 98 146 106 30 2 0 0 0 0 0 0 0 0 0
22 41 14 18 25 15 0 0 0 0 0 0 0 0 0 0 0 0 0 1 3 1 1 12 3 13 9 8 17 0 0 54 9 55 14 9 1 0 0 2 0 0 0 0 0
13 22 18 21 13 0 0 0 0 0 0 0 0 0 0 0 0 0 0 2 8 6 10 13 8 34 9 2 21 4 1 90 65 106 111 12 0 2 0 0 0 0 0 0 0
28 38 17 1 0 0 0 0 0 0 0 0 0 0 0 0 0 0 0 5 9 7 5 12 30 2 21 1 13 0 11 61 29 48 0 0 0 0 0 0 0 0 0 0 0
30 66 24 4 1 0 0 0 0 0 0 0 0 0 0 0 0 0 1 4 3 6 4 4 0 0 10 28 1 27 4 1 0 0 0 0 0 0 0 0 0 0 0 0 0
24 46 19 2 0 0 0 0 0 0 0 0 0 0 0 0 0 0 0 2 0 0 0 7 2 2 0 17 0 0 0 2 0 0 0 0 0 0 0 0 0 0 0 0 0
40 57 18 0 0 0 0 0 0 0 0 0 0 0 0 0 0 0 0 0 0 0 0 0 4 3 0 0 2 0 0 0 0 0 0 0 0 0 0 0 0 0 0 0 0
63 2 6 0 0 0 0 0 0 0 0 0 0 0 0 0 0 0 0 0 0 0 0 0 3 1 0 0 0 0 0 0 0 0 0 0 0 0 0 0 0 0 0 0 0
2 4 12 0 0 0 0 0 0 0 0 0 0 0 0 0 0 0 0 0 0 0 0 0 8 0 0 0 0 0 0 0 0 0 0 0 0 0 0 0 0 0 0 0 0
1 5 13 0 0 0 0 0 0 0 0 0 0 0 0 0 0 0 0 0 0 0 0 0 0 0 0 0 0 0 0 0 0 0 0 0 0 0 0 0 0 0 0 0 0
6 0 6 0 5 0 0 0 0 0 0 0 0 0 0 0 0 0 0 0 0 0 0 0 0 0 0 0 0 0 0 0 0 0 0 0 0 0 0 0 0 0 0 0 0
4 14 4 4 0 1 0 0 0 0 0 0 0 0 0 0 0 0 0 0 0 0 0 0 0 0 0 0 0 0 0 0 0 0 0 0 0 0 0 0 0 0 0 0 0
1 0 6 21 0 0 0 0 0 0 0 0 0 0 0 0 0 0 0 0 0 0 0 0 0 0 0 0 0 0 0 0 0 0 0 0 0 0 0 0 0 0 0 0 0
0 2 0 1 8 0 0 0 0 0 0 0 0 0 0 0 0 0 0 0 0 0 0 0 0 0 0 0 0 0 0 0 0 0 0 0 0 0 0 0 0 0 0 0 0
0 0 0 0 0 0 0 0 0 0 0 0 0 0 0 0 0 0 0 0 0 0 0 0 0 0 0 0 0 0 0 0 0 0 0 0 0 0 0 0 0 0 0 0 0
0 0 0 1 0 0 0 0 0 0 0 0 0 0 0 0 0 0 0 0 0 0 0 0 0 0 0 0 0 0 0 0 0 0 0 0 0 0 0 0 0 0 0 0 0

GFSSW_con_sbcape_102.txt.gz
CAPE
14 80 17 6 9 0 1 5 15 0 0 10 14 0 2 3 0 0 0 0 0 3 24 0 0 0 1 12 32 40 71 34 5 11 29 17 96 64 66 13 66 166 19 11 11
17 36 100 13 10 1 4 12 11 0 0 0 22 0 4 0 0 0 0 0 14 57 0 0 0 0 4 19 27 61 24 12 0 7 42 9 81 86 45 43 59 147 75 125 24
20 15 31 11 12 11 10 6 6 8 1 0 34 1 0 0 0 0 0 4 52 0 0 0 0 0 1 11 29 23 11 0 5 12 41 72 132 115 49 13 14 26 138 188 27
10 15 26 39 17 9 12 16 5 4 10 0 33 0 0 0 0 0 15 5 36 0 0 0 0 0 0 3 4 34 2 5 4 33 21 37 146 129 170 1 42 63 226 183 62
14 9 26 104 15 15 1 19 12 24 10 15 20 14 0 0 0 0 0 27 0 0 0 0 0 0 0 0 2 13 0 0 14 6 0 4 76 99 171 163 92 9 45 289 180
22 18 41 88 17 9 0 22 0 19 10 10 19 6 0 0 0 0 0 0 0 2 0 11 8 9 9 6 8 0 0 0 13 9 7 12 49 110 110 3 63 24 101 262 237
28 22 9 74 11 13 14 23 0 8 12 13 31 0 0 0 0 0 0 0 5 2 0 1 16 15 21 16 16 0 17 18 8 0 10 17 58 102 48 2 21 6 5 59 217
27 18 48 61 20 18 18 1 8 1 20 34 36 0 0 0 0 0 0 3 7 8 16 23 31 35 25 17 6 85 85 51 9 29 15 156 0 6 19 13 23 0 2 68 185
15 16 33 73 12 3 0 1 6 1 31 39 6 0 0 0 0 0 0 0 10 29 31 29 43 23 7 41 189 67 40 38 22 52 33 159 12 52 0 1 0 0 0 0 254
10 10 12 41 8 5 2 17 13 5 8 0 0 0 0 0 0 0 0 0 3 20 44 51 52 19 50 30 114 27 77 40 37 51 110 114 56 2 0 0 0 0 0 0 15
10 4 27 6 16 10 11 12 0 1 4 0 0 0 0 0 0 0 0 0 0 4 8 14 45 28 15 55 55 67 59 73 93 4 94 44 11 0 0 0 0 0 0 0 23
14 10 7 48 23 8 0 0 0 0 0 0 0 0 0 0 0 0 0 0 7 11 10 34 17 11 18 13 41 47 111 82 144 145 99 104 40 0 0 0 0 0 0 0 19
9 1 6 27 21 15 4 0 0 0 0 0 0 0 0 0 0 1 0 1 3 9 11 19 6 6 32 1 18 14 18 60 135 170 202 144 77 19 5 9 0 0 0 0 0
14 6 94 13 2 1 5 0 0 0 0 0 0 0 0 0 1 0 0 1 10 14 16 23 12 22 27 9 6 7 0 96 194 292 258 109 56 3 18 8 0 0 0 0 0
15 11 90 0 1 2 0 0 0 0 0 0 0 0 0 1 0 1 0 3 5 5 6 26 8 6 7 3 3 6 0 107 153 131 166 41 1 0 0 8 6 0 0 0 0
26 16 30 1 0 0 0 0 0 0 0 0 0 0 0 0 0 0 1 3 7 5 8 6 5 7 68 7 0 68 14 38 56 46 31 0 0 12 16 12 0 0 0 0 0
27 9 14 0 0 0 0 0 1 0 0 0 0 0 0 0 0 0 2 6 13 44 7 5 27 4 36 49 64 44 23 70 38 66 13 0 6 3 1 3 0 0 0 0 0
1 18 8 1 0 0 0 0 0 0 0 0 0 0 0 0 0 0 0 8 3 2 13 76 96 12 5 55 44 34 1 27 11 10 1 0 17 0 0 0 0 0 0 0 0
3 7 0 2 0 0 0 3 0 0 0 0 0 0 0 0 0 0 0 2 0 0 0 23 34 1 0 1 23 7 0 0 0 0 2 0 0 0 0 0 0 0 0 0 0
14 2 11 2 0 0 2 0 0 0 0 0 0 0 0 0 0 0 0 0 0 0 0 0 78 4 0 2 0 0 0 0 0 0 0 0 0 0 0 0 0 0 0 0 0
0 3 9 0 0 0 1 0 0 0 0 0 0 0 0 0 0 0 0 0 0 0 0 0 0 7 1 0 1 0 0 0 0 0 0 0 0 0 0 0 0 0 0 0 0
0 6 13 0 10 3 0 0 0 0 0 0 0 0 0 0 0 0 0 0 0 0 0 0 0 8 2 0 0 0 0 0 0 0 0 0 0 0 0 0 0 0 0 0 0
13 20 14 26 7 1 0 0 0 0 0 0 0 0 0 0 0 0 0 0 0 0 0 0 0 0 3 0 0 0 0 0 0 0 0 0 0 0 0 0 0 0 0 0 0
6 3 23 32 0 0 1 3 0 0 0 0 0 0 0 0 0 0 0 0 0 0 0 0 0 0 0 0 0 0 0 0 0 0 0 0 0 0 0 0 0 0 0 0 0
3 11 6 22 12 1 0 0 0 0 0 0 0 0 0 0 0 0 0 0 0 0 0 0 0 0 0 0 0 0 0 0 0 0 0 0 0 0 0 0 0 0 0 0 0
1 0 0 1 2 0 0 2 0 0 0 0 0 0 0 0 0 0 0 0 0 0 0 0 0 0 0 0 0 0 0 0 0 0 0 0 0 0 0 0 0 0 0 0 0
0 0 0 1 2 2 1 0 0 0 0 0 0 0 0 0 0 0 0 0 0 0 0 0 0 0 0 0 0 0 0 0 0 0 0 0 0 0 0 0 0 0 0 0 0

GFSSW_con_sbcape_105.txt.gz
CAPE
17 24 40 103 11 10 1 2 9 5 0 0 24 8 0 0 0 0 0 0 0 0 10 11 0 0 0 1 19 43 38 26 9 7 2 0 19 34 57 88 58 37 82 95 137
13 21 12 18 33 5 2 2 8 0 0 0 11 0 0 0 0 0 0 0 0 3 15 3 0 0 0 0 13 30 31 9 8 12 11 1 7 23 37 72 71 43 115 159 134
25 13 22 30 77 9 8 7 4 0 0 0 20 0 0 0 0 0 0 0 30 24 1 0 0 0 0 6 24 28 14 16 12 16 14 11 24 60 36 68 41 106 70 241 143
24 28 12 28 57 43 17 5 3 0 0 6 22 0 0 0 0 1 30 24 44 0 0 0 0 0 0 0 19 31 22 30 18 9 16 26 31 51 70 52 78 50 157 145 136
20 24 15 27 10 75 9 0 16 0 1 2 18 3 0 0 0 0 0 23 13 0 0 0 0 0 0 0 0 5 8 9 19 18 22 11 11 8 43 61 119 125 122 182 224
23 22 24 13 26 31 0 0 0 0 1 2 9 1 0 0 0 0 0 0 0 0 2 1 1 1 0 0 1 0 1 0 1 9 45 30 11 25 43 136 200 160 101 179 150
23 18 3 12 34 5 0 7 0 0 6 5 11 5 4 0 0 0 0 0 6 2 9 15 11 10 10 11 9 11 18 1 0 9 22 34 21 24 25 132 151 132 140 75 13
18 9 0 12 28 6 11 9 0 0 0 0 22 8 7 0 0 0 0 0 12 24 26 33 34 31 25 19 20 25 32 48 0 0 6 22 16 0 3 214 140 115 161 2 0
5 4 1 0 33 16 17 2 0 0 7 13 19 5 0 0 0 0 0 10 18 36 40 39 42 38 32 30 22 15 46 49 53 10 89 58 9 0 144 142 108 84 20 0 0
2 0 0 2 42 12 0 0 21 22 10 1 0 0 0 0 0 0 0 2 7 22 32 38 48 22 20 17 14 62 69 62 45 20 118 80 91 194 217 150 93 25 18 7 35
0 0 0 40 7 2 6 24 0 3 4 0 0 0 0 0 0 0 5 6 10 18 24 32 34 22 10 13 21 49 82 34 45 28 121 102 100 61 123 113 60 21 0 3 1
1 0 0 10 13 23 2 0 0 0 0 0 0 0 0 0 0 0 0 10 9 14 3 13 12 2 43 37 109 128 0 13 43 23 131 133 140 48 94 35 15 13 0 0 1
0 0 0 13 23 11 2 0 0 0 0 0 0 0 0 0 3 7 0 4 14 15 18 22 6 2 33 21 11 14 3 30 10 100 145 135 216 234 151 39 6 2 0 0 0
0 2 52 74 5 8 3 0 0 0 1 0 0 0 0 0 1 1 0 3 10 13 18 23 4 26 29 17 5 5 1 0 11 130 246 244 174 95 41 22 15 0 2 0 0
0 8 63 0 2 7 0 0 0 0 0 0 0 0 0 1 4 2 0 2 9 18 5 38 6 14 30 9 4 9 34 0 74 108 241 137 79 1 6 7 3 3 0 0 1
0 18 55 0 0 0 0 0 0 15 0 0 0 0 0 4 1 3 3 0 0 5 7 5 1 8 10 33 1 0 10 2 9 50 76 1 2 37 11 10 7 0 0 1 0
0 5 13 0 0 0 0 0 19 1 0 0 0 0 3 0 0 2 9 10 24 40 113 15 18 6 19 16 1 4 30 102 73 43 14 7 3 41 8 0 0 0 0 0 0
1 12 14 1 0 0 0 0 6 0 0 0 0 0 0 0 0 0 10 20 0 1 75 103 21 2 33 47 10 2 14 20 38 10 8 0 5 15 6 1 0 0 0 0 0
10 8 8 3 0 0 0 17 2 0 0 0 0 0 0 0 0 0 4 8 3 0 53 86 29 8 28 41 28 21 0 0 1 1 2 5 0 2 0 0 0 0 0 0 0
15 15 7 2 0 1 15 2 0 0 0 0 0 0 0 0 0 0 6 1 2 0 0 1 5 0 3 12 22 0 0 1 5 2 0 0 2 3 0 0 0 0 0 0 0
0 8 10 0 1 0 17 4 0 0 0 0 0 0 0 0 0 0 0 0 0 0 0 0 16 4 22 1 2 0 0 0 0 0 0 0 0 0 0 0 0 0 0 0 0
6 10 9 1 18 8 1 0 0 0 0 0 0 0 0 0 0 0 0 0 0 0 0 0 9 8 0 0 0 0 0 0 0 0 0 0 1 0 0 0 0 0 0 0 0
14 17 17 15 15 4 0 0 0 0 0 0 0 0 0 0 0 0 0 0 0 0 0 0 0 4 0 0 0 0 0 0 0 0 0 0 4 0 0 0 0 0 0 0 0
7 10 11 16 2 2 0 1 0 0 0 0 0 0 0 0 0 0 0 0 0 0 0 0 0 0 0 0 0 0 0 0 0 8 0 0 3 1 0 0 0 0 0 0 0
3 3 4 6 3 0 0 2 0 0 0 0 0 0 0 0 0 0 0 0 0 0 0 0 0 0 0 0 0 0 0 0 0 0 0 1 0 0 0 0 0 0 0 0 0
0 0 4 3 0 0 0 5 0 0 0 0 0 0 0 0 0 0 0 0 0 0 0 0 0 0 0 0 0 0 0 0 0 0 0 0 0 0 0 0 0 0 0 0 0
0 0 0 1 0 0 0 2 0 0 0 0 0 0 0 0 0 0 0 0 0 0 0 0 0 0 0 0 0 0 0 0 0 0 0 0 0 0 0 0 0 0 0 0 0

GFSSW_con_sbcape_108.txt.gz
CAPE
7 8 8 5 25 117 16 1 5 12 0 0 0 3 0 0 0 0 0 0 0 0 0 0 0 0 0 0 0 18 10 5 0 0 0 0 0 0 4 0 0 0 16 154 84
30 19 9 10 24 77 31 5 4 10 0 0 0 3 0 0 0 0 0 0 0 0 0 2 0 0 0 0 0 0 15 7 0 0 0 0 0 0 0 0 11 0 27 228 109
23 14 38 17 20 49 78 8 8 0 0 0 0 0 0 0 0 0 0 0 0 7 3 0 0 0 0 0 0 1 7 1 0 1 0 0 0 0 0 0 38 27 3 203 183
30 23 18 37 37 42 101 9 5 0 0 0 0 0 0 0 0 1 0 5 44 0 0 0 0 0 0 0 0 0 2 21 12 3 0 0 0 0 2 0 20 22 41 76 189
40 31 29 16 12 27 67 6 0 1 0 0 7 0 0 0 0 0 6 18 17 0 0 0 0 0 0 0 0 0 0 0 0 2 0 0 0 0 0 0 5 63 76 34 116
8 21 22 13 10 27 37 1 4 2 1 0 7 0 0 0 0 0 0 0 1 0 0 0 0 0 0 0 0 0 0 0 0 0 0 0 0 0 0 0 0 31 59 49 120
24 6 2 4 0 30 12 10 2 7 0 1 1 0 0 0 0 0 0 0 0 0 0 0 0 0 1 2 1 0 0 0 0 0 0 0 0 0 0 0 0 75 52 67 95
27 2 0 0 2 45 15 12 3 0 0 0 13 5 0 0 0 0 0 0 0 0 0 0 6 4 5 6 2 9 2 1 0 0 0 0 0 0 0 0 0 7 39 121 101
47 0 0 0 0 16 30 11 0 0 14 8 18 5 0 0 0 0 0 0 2 0 6 10 28 24 21 7 6 5 0 0 0 1 0 0 0 0 0 0 0 77 23 27 19
33 0 0 0 4 46 6 1 5 32 33 10 1 0 0 0 0 0 0 0 0 17 17 22 52 26 27 24 0 0 5 9 0 0 23 0 11 0 4 27 0 54 56 35 8
36 0 1 20 112 4 1 13 10 4 3 0 0 0 0 0 0 0 0 0 0 7 6 22 14 0 0 0 2 2 27 7 3 50 18 1 33 0 14 195 165 158 79 18 13
5 0 1 37 9 17 0 0 0 0 0 0 0 0 0 0 0 0 0 0 1 2 2 17 10 0 3 10 20 23 12 3 2 33 16 0 4 18 8 58 185 163 69 3 0
0 3 1 13 30 3 0 0 0 0 0 0 0 0 0 0 0 0 0 2 15 39 30 26 3 3 9 7 19 21 6 0 2 19 21 0 0 40 60 80 64 65 11 0 0
0 0 0 67 3 4 1 0 0 0 0 0 0 0 0 0 0 0 0 5 10 14 19 14 0 14 22 15 12 6 4 2 0 14 25 0 0 23 136 281 214 7 0 6 91
0 98 39 18 2 0 0 0 0 0 0 0 0 0 0 0 0 0 0 0 7 15 4 19 19 1 0 2 4 0 0 23 4 26 12 1 41 4 45 81 72 46 27 121 98
7 20 5 0 0 0 0 0 0 0 0 0 0 0 0 0 1 0 0 0 0 6 5 2 0 0 0 5 24 5 7 3 3 5 7 41 51 24 18 3 3 1 64 47 21
0 9 1 0 1 0 0 0 0 5 0 0 0 0 0 1 2 3 8 7 8 7 0 4 2 1 0 8 0 1 4 2 13 5 13 2 7 7 18 0 1 0 0 2 0
14 4 3 4 0 0 0 0 0 0 0 0 0 0 0 0 0 0 1 6 4 3 1 2 0 0 23 1 3 4 12 3 16 11 15 0 1 16 12 6 1 0 0 0 0
11 3 5 5 0 0 0 17 2 0 0 0 0 0 0 0 0 0 0 1 0 0 2 70 1 0 0 8 12 9 0 0 5 0 0 34 4 8 11 5 3 0 0 0 0
2 0 8 0 0 0 3 6 0 0 0 0 0 0 1 0 0 0 1 0 0 0 0 0 2 1 4 15 10 0 0 0 2 2 1 10 2 5 6 7 2 0 0 0 0
1 4 12 0 0 0 16 1 0 0 0 0 0 0 0 0 0 0 0 0 0 0 0 0 1 0 3 0 0 0 0 0 0 0 0 0 1 0 3 4 4 0 0 0 0
14 2 1 0 3 0 0 0 0 0 0 0 0 0 0 0 0 0 0 0 0 0 0 0 0 0 0 0 0 0 0 0 0 0 0 0 0 0 0 0 0 0 0 0 0
10 10 7 2 9 0 0 0 0 0 0 0 0 0 0 0 0 0 0 0 0 0 0 0 0 0 3 0 0 0 0 0 0 0 0 0 0 0 0 0 0 0 0 0 0
2 6 3 1 0 0 0 0 0 0 0 0 0 0 0 0 0 0 0 0 0 0 0 0 0 0 0 0 0 0 0 0 0 0 0 0 0 0 0 0 0 0 0 0 0
5 1 0 1 0 0 0 0 0 0 0 0 0 0 0 0 0 0 0 0 0 0 0 0 0 0 0 0 0 0 0 0 0 0 0 0 0 0 0 0 0 0 0 0 0
0 0 0 0 0 0 0 0 0 0 0 0 0 0 0 0 0 0 0 0 0 0 0 0 0 0 0 0 0 0 0 0 0 0 0 0 0 0 0 0 0 0 0 0 0
0 0 0 0 0 0 0 0 0 0 0 0 0 0 0 0 0 0 0 0 0 0 0 0 0 0 0 0 0 0 0 0 0 0 0 0 0 0 0 0 0 0 0 0 0

GFSSW_con_sbcape_111.txt.gz
CAPE
36 31 14 11 8 28 99 74 0 15 1 0 0 2 0 0 0 0 0 0 0 0 0 0 0 0 0 0 0 0 1 5 0 0 0 0 0 0 0 0 0 0 37 106 97
53 31 39 23 13 9 64 96 2 9 1 0 0 1 0 0 0 0 0 0 0 0 0 0 0 0 0 0 0 0 0 0 0 0 0 0 0 0 0 0 0 0 139 130 96
21 40 31 22 23 26 50 80 10 12 1 0 0 0 0 0 0 0 0 0 0 0 0 0 0 0 0 0 0 0 0 0 0 0 0 0 0 0 0 0 0 0 4 122 86
51 49 41 26 17 4 15 91 4 7 1 0 0 0 0 0 0 0 0 0 11 0 0 0 0 0 0 0 0 0 0 0 0 0 0 0 0 0 0 0 0 0 8 13 48
94 49 36 26 19 8 36 46 24 2 0 0 0 0 0 0 0 11 23 43 0 0 0 0 0 0 0 0 0 0 0 0 0 0 0 0 0 0 0 0 0 0 0 0 25
102 72 27 21 10 2 0 96 18 4 0 0 3 0 0 0 0 0 0 0 0 0 0 0 0 0 0 0 0 0 0 0 0 0 0 0 0 0 0 0 0 0 0 0 0
89 76 27 7 1 11 69 62 31 4 0 2 0 0 0 0 0 0 0 0 0 0 0 0 0 0 0 0 0 0 0 0 0 0 0 0 0 0 0 0 0 0 0 10 0
117 96 11 1 0 5 153 26 5 10 1 0 1 0 0 0 0 0 0 0 0 0 0 0 0 0 0 0 0 0 0 0 0 0 0 0 0 0 0 0 0 0 0 0 0
89 81 9 0 0 21 35 6 1 0 0 0 0 0 0 0 0 0 0 0 0 0 0 0 0 0 0 0 0 0 0 0 0 0 0 0 0 0 0 0 0 0 0 0 0
50 25 4 0 0 55 6 4 2 4 1 12 1 0 0 0 0 0 0 1 1 0 0 0 0 0 0 2 0 0 0 1 0 0 0 0 0 0 0 0 0 0 0 0 1
9 2 1 284 161 0 2 19 8 3 5 0 0 0 0 0 0 0 0 0 0 0 0 3 2 0 0 0 0 0 0 0 0 0 0 0 0 0 0 0 0 0 0 3 13
3 0 0 99 23 0 0 0 0 0 0 0 0 0 0 0 0 0 0 0 0 0 0 0 3 0 0 0 3 14 29 0 0 0 5 9 0 0 0 0 0 0 38 25 28
0 0 10 75 2 0 0 0 0 0 0 0 0 0 0 0 0 0 0 0 0 14 6 3 0 4 12 13 13 0 0 0 0 0 0 0 0 0 0 0 0 0 66 33 23
13 0 1 45 6 0 0 0 0 0 0 0 0 0 0 0 0 0 0 0 4 1 17 2 0 2 18 19 16 3 0 1 5 1 0 0 0 0 0 0 0 0 11 9 23
38 89 51 4 0 0 0 0 0 0 0 0 0 0 0 0 0 0 0 0 9 11 5 1 1 7 2 0 0 0 0 0 3 6 5 0 4 4 0 5 3 33 0 0 100
20 18 1 0 0 1 0 0 0 0 0 0 0 0 0 0 0 0 0 0 0 5 5 3 0 0 0 0 0 8 0 1 5 7 4 8 0 7 4 6 0 0 3 108 185
5 1 0 0 1 0 0 0 0 0 0 0 0 0 0 0 0 0 4 4 9 1 0 2 0 0 0 1 0 1 2 0 0 3 2 2 5 3 8 10 0 0 0 56 164
0 0 1 2 0 0 0 0 0 0 0 0 0 0 0 0 0 1 3 3 5 1 0 0 0 0 4 1 2 4 6 3 0 0 15 1 3 12 13 1 0 0 1 9 1
0 0 1 0 0 0 0 0 0 0 0 0 0 0 0 0 0 0 0 0 0 0 0 0 0 0 0 8 6 3 12 0 10 0 0 5 5 0 5 6 1 14 2 2 0
0 0 2 0 0 0 0 0 0 0 0 0 0 0 0 0 0 0 0 0 0 0 0 0 1 0 14 5 3 8 0 0 0 0 10 2 1 6 1 9 14 9 1 0 0
0 1 0 0 0 0 0 0 0 0 0 0 0 0 0 0 0 0 0 0 0 0 0 0 0 0 0 0 0 0 0 0 0 0 0 1 2 1 3 10 4 5 1 0 0
0 0 0 0 0 0 0 0 0 0 0 0 0 0 0 0 0 0 0 0 0 0 0 0 0 0 0 0 0 0 0 0 0 0 0 0 5 0 0 0 0 0 0 0 0
0 0 0 0 0 0 0 0 0 0 0 0 0 0 0 0 0 0 0 0 0 0 0 0 0 0 0 0 0 0 0 0 0 0 0 0 12 0 0 0 0 0 0 0 0
0 0 0 0 0 0 0 0 0 0 0 0 0 0 0 0 0 0 0 0 0 0 0 0 0 0 0 0 0 0 0 0 0 0 0 0 0 0 0 0 0 0 0 0 0
0 0 0 0 0 0 0 0 0 0 0 0 0 0 0 0 0 0 0 0 0 0 0 0 0 0 0 0 0 0 0 0 0 0 0 0 0 0 0 0 0 0 0 0 0
0 0 0 0 0 0 0 0 0 0 0 0 0 0 0 0 0 0 0 0 0 0 0 0 0 0 0 0 0 0 0 0 0 0 0 0 0 0 0 0 0 0 0 0 0
0 0 0 0 0 0 0 0 0 0 0 0 0 0 0 0 0 0 0 0 0 0 0 0 0 0 0 0 0 0 0 0 0 0 0 0 0 0 0 0 0 0 0 0 0

GFSSW_con_sbcape_114.txt.gz
CAPE
15 31 27 7 8 1 3 72 100 13 4 0 0 0 0 0 0 0 0 0 0 0 0 0 0 0 0 0 0 0 0 0 0 0 0 0 0 0 0 0 0 0 55 56 103
14 12 36 34 16 10 27 21 116 27 2 0 0 0 0 0 0 0 0 0 0 0 0 0 0 0 0 0 0 0 0 0 0 0 0 0 0 0 0 0 0 0 0 69 63
58 20 33 39 18 16 1 35 126 43 6 0 0 1 0 0 0 0 0 0 0 0 0 0 0 0 0 0 0 0 0 0 0 0 0 0 0 0 0 0 0 0 0 2 79
30 51 18 22 19 13 3 15 97 89 6 0 0 2 0 0 0 0 0 0 0 0 0 0 0 0 0 0 0 0 0 0 0 0 0 0 0 0 0 0 0 0 0 0 24
53 59 22 14 19 13 7 6 145 39 5 0 0 0 0 0 0 0 25 0 0 0 0 0 0 0 0 0 0 0 0 0 0 0 0 0 0 0 0 0 0 0 0 0 0
75 53 51 14 9 8 1 7 157 12 1 0 0 0 0 0 0 0 0 0 0 0 0 0 0 0 0 0 0 0 0 0 0 0 0 0 0 0 0 0 0 0 0 0 0
88 53 56 15 8 15 122 176 31 6 0 4 0 0 0 0 0 0 0 0 0 0 0 0 0 0 0 0 0 0 0 0 0 0 0 0 0 0 0 0 0 0 0 0 0
75 34 16 11 1 22 195 108 14 14 23 11 0 0 0 0 0 0 0 0 0 0 0 0 0 0 0 0 0 0 0 0 0 0 0 0 0 0 0 0 0 0 0 0 0
63 22 9 15 1 9 93 25 1 24 17 1 0 0 0 0 0 0 0 0 0 0 0 0 0 0 0 0 0 0 0 0 0 0 0 0 0 0 0 0 0 0 0 0 0
16 4 19 8 27 27 2 1 6 0 0 0 0 0 0 0 0 0 0 0 0 0 0 0 0 0 0 0 0 0 0 0 0 0 0 0 0 0 0 0 0 0 0 0 0
0 41 287 366 43 20 7 2 0 0 0 0 0 0 0 0 0 0 0 0 0 0 0 0 0 0 0 0 0 0 0 0 0 0 0 0 0 0 0 0 0 0 0 0 0
0 104 248 142 60 39 0 0 0 0 0 0 0 0 0 0 0 0 0 0 0 0 0 0 0 0 0 0 0 1 12 2 0 0 0 0 0 0 0 0 0 0 0 0 0
0 1 86 31 0 0 0 0 0 0 0 0 0 0 0 0 0 0 0 0 0 2 5 2 0 4 3 3 4 2 0 0 0 0 0 0 0 0 0 0 0 0 0 0 0
0 0 12 2 0 0 0 0 0 0 0 0 0 0 0 0 0 0 1 1 1 2 4 2 0 0 4 5 2 2 0 0 0 14 0 0 0 0 0 0 0 0 0 0 0
0 0 0 0 0 0 0 0 0 0 0 0 0 0 0 0 0 0 0 0 2 2 1 0 0 0 2 0 0 0 0 0 0 28 8 0 0 0 1 0 0 0 0 0 0
11 2 0 0 0 0 0 0 0 0 0 0 0 0 0 0 0 0 0 0 0 6 2 0 0 0 0 0 0 0 8 0 11 9 0 0 0 3 11 10 0 0 0 0 0
2 0 0 0 0 0 0 0 0 0 0 0 0 0 0 0 0 0 3 5 5 0 0 0 0 0 0 1 4 11 1 0 0 0 0 10 2 6 4 2 3 0 0 9 16
0 0 0 1 0 0 0 0 0 0 0 0 0 0 0 0 0 1 2 2 0 1 0 0 0 0 0 3 1 4 4 2 0 0 1 24 1 1 12 13 8 5 4 3 0
0 0 0 0 0 0 0 0 0 0 0 0 0 0 0 0 0 4 0 0 0 0 0 0 0 0 0 0 1 23 15 3 11 6 0 4 3 8 7 3 2 9 6 6 1
0 0 0 0 0 0 0 0 0 0 0 0 0 0 0 0 0 0 0 0 0 0 0 0 0 0 0 0 0 5 0 0 0 0 0 0 1 0 1 6 14 15 18 4 0
0 0 0 0 0 0 0 0 0 0 0 0 0 0 0 0 0 0 0 0 0 0 0 0 0 0 0 0 0 0 0 0 0 0 0 0 3 1 1 6 13 11 0 0 0
0 0 0 0 0 0 0 0 0 0 0 0 0 0 0 0 0 0 0 0 0 0 0 0 0 0 0 0 0 0 0 0 0 0 0 0 1 0 6 12 6 0 0 0 0
0 0 0 0 0 0 0 0 0 0 0 0 0 0 0 0 0 0 0 0 0 0 0 0 0 0 0 0 0 0 0 0 0 0 0 0 0 0 0 0 0 0 0 0 0
0 0 0 0 0 0 0 0 0 0 0 0 0 0 0 0 0 0 0 0 0 0 0 0 0 0 0 0 0 0 0 0 0 0 0 0 0 0 0 0 0 0 0 0 0
0 0 0 0 0 0 0 0 0 0 0 0 0 0 0 0 0 0 0 0 0 0 0 0 0 0 0 0 0 0 0 0 0 0 0 0 0 0 0 0 0 0 0 0 0
0 0 0 0 0 0 0 0 0 0 0 0 0 0 0 0 0 0 0 0 0 0 0 0 0 0 0 0 0 0 0 0 0 0 0 0 0 0 0 0 0 0 0 0 0
0 0 0 0 0 0 0 0 0 0 0 0 0 0 0 0 0 0 0 0 0 0 0 0 0 0 0 0 0 0 0 0 0 0 0 0 0 0 0 0 0 0 0 0 0

GFSSW_con_sbcape_117.txt.gz
CAPE
49 27 39 16 6 8 0 8 54 44 11 0 0 0 0 0 0 0 0 0 0 0 0 0 0 0 0 0 0 0 0 0 0 0 0 0 0 0 0 0 0 0 0 0 0
55 20 12 22 29 7 2 5 46 41 14 0 0 0 0 0 0 0 0 0 0 0 0 0 0 0 0 0 0 0 0 0 0 0 0 0 0 0 0 0 0 0 0 0 9
53 59 20 43 29 20 11 0 64 110 3 0 0 0 0 0 0 0 0 0 0 0 0 0 0 0 0 0 0 0 0 0 0 0 0 0 0 0 0 0 0 0 0 0 0
64 63 47 6 9 16 7 0 5 148 14 0 0 0 0 0 0 0 0 0 0 0 0 0 0 0 0 0 0 0 0 0 0 0 0 0 0 0 0 0 0 0 0 0 0
120 69 56 4 0 10 14 3 4 198 5 0 1 0 0 0 0 0 7 0 0 0 0 0 0 0 0 0 0 0 0 0 0 0 0 0 0 0 0 0 0 0 0 0 0
54 49 37 18 6 7 2 2 12 99 1 2 2 0 0 0 0 0 0 0 0 0 0 0 0 0 0 0 0 0 0 0 0 0 0 0 0 0 0 0 0 0 0 0 0
57 39 27 3 5 8 63 58 136 5 4 8 0 0 0 0 0 0 0 0 0 0 0 0 0 0 0 0 0 0 0 0 0 0 0 0 0 0 0 0 0 0 0 0 0
33 7 7 6 17 48 226 134 16 11 19 2 0 0 0 0 0 0 0 0 0 0 0 0 0 0 0 0 0 0 0 0 0 0 0 0 0 0 0 0 0 0 0 0 0
24 6 0 7 34 101 90 25 16 14 23 0 0 0 0 0 0 0 0 0 0 0 0 0 0 0 0 0 0 0 0 0 0 0 0 0 0 0 0 0 0 0 0 0 0
8 0 1 199 262 113 149 26 15 4 1 0 0 0 0 0 0 0 0 0 0 0 0 0 0 0 0 0 0 0 0 0 0 0 0 0 0 0 0 0 0 0 0 0 0
80 136 63 180 70 35 4 0 0 0 0 0 0 0 0 0 0 0 0 0 0 0 0 0 0 0 0 0 0 0 0 0 0 0 0 0 0 0 0 0 0 0 0 0 0
236 517 173 91 110 2 0 0 0 0 0 0 0 0 0 0 0 0 0 0 0 0 0 0 0 0 0 0 0 0 1 0 0 0 0 0 0 0 0 0 0 0 0 0 0
179 176 85 50 0 0 0 0 0 0 0 0 0 0 0 0 0 0 0 0 0 1 4 5 0 0 0 0 5 1 0 0 0 0 0 0 0 0 0 0 0 0 0 0 0
58 51 16 3 0 0 0 0 0 0 0 0 0 0 0 0 0 0 2 0 0 0 1 1 0 0 0 0 0 0 0 0 0 3 0 0 0 0 0 0 0 0 0 0 0
0 2 0 0 0 0 0 0 0 0 0 0 0 0 0 0 0 0 0 0 0 1 0 0 0 0 2 0 0 0 0 0 6 11 17 0 1 0 0 0 0 0 0 1 0
3 0 0 0 0 0 0 0 0 0 0 0 0 0 0 0 0 0 0 0 0 4 2 1 0 2 0 0 0 0 0 3 12 14 0 0 0 0 5 8 1 0 0 33 107
0 0 0 0 0 0 0 0 0 0 0 0 0 0 0 0 0 0 2 2 4 0 0 0 0 0 0 0 0 4 1 0 0 0 0 5 4 4 6 3 1 7 2 34 47
0 0 0 0 0 0 0 0 0 0 0 0 0 0 0 0 0 0 8 2 0 2 1 0 0 0 0 0 0 3 5 1 0 0 0 4 0 2 15 3 1 2 1 7 4
0 0 0 0 0 0 0 0 0 0 0 0 0 0 0 0 0 4 0 0 0 0 0 0 0 0 0 0 0 7 8 6 9 5 0 0 0 6 8 5 7 0 4 5 3
0 0 0 0 0 0 0 0 0 0 0 0 0 0 0 0 0 0 0 0 0 0 0 0 0 0 0 0 0 1 0 3 0 0 0 0 0 0 0 1 7 12 13 10 2
0 0 0 0 0 0 0 0 0 0 0 0 0 0 0 0 0 0 0 0 0 0 0 0 0 0 0 0 0 0 0 0 0 0 0 0 0 12 2 5 6 8 8 0 0
0 0 0 0 0 0 0 0 0 0 0 0 0 0 0 0 0 0 0 0 0 0 0 0 0 0 0 0 0 0 0 0 0 0 0 0 0 2 4 2 11 0 0 0 0
0 0 0 0 0 0 0 0 0 0 0 0 0 0 0 0 0 0 0 0 0 0 0 0 0 0 0 0 0 0 0 0 0 0 0 0 0 0 0 0 0 0 0 0 0
0 0 0 0 0 0 0 0 0 0 0 0 0 0 0 0 0 0 0 0 0 0 0 0 0 0 0 0 0 0 0 0 0 0 0 0 0 0 0 0 0 0 0 0 0
0 0 0 0 0 0 0 0 0 0 0 0 0 0 0 0 0 0 0 0 0 0 0 0 0 0 0 0 0 0 0 0 0 0 0 0 0 0 0 0 0 0 0 0 0
0 0 0 0 0 0 0 0 0 0 0 0 0 0 0 0 0 0 0 0 0 0 0 0 0 0 0 0 0 0 0 0 0 0 0 0 0 0 0 0 0 0 0 0 0
0 0 0 0 0 0 0 0 0 0 0 0 0 0 0 0 0 0 0 0 0 0 0 0 0 0 0 0 0 0 0 0 0 0 0 0 0 0 0 0 0 0 0 0 0